Wetterdaten: Sonntag, 31.01.2021
Datum Zeit Temp. 2m Temp +5 cm Feuchte A. Luftdruck Regen Wind Richtung Richtung Sonnenschein UV Solar Taupunkt Windchill Windben
31.01.2021 00:00 -1,6 C -0,6 C 95 % 1001,6 hPa 0,0 l/m 11,3 km/h (2 Bft) NO 45 0 min 0,0 UV-I 0 W/m -2,3 C -6,3 C 16,1 km/h (3 Bft)
31.01.2021 00:01 -1,6 C -0,6 C 96 % 1001,7 hPa 0,0 l/m 12,9 km/h (3 Bft) NO 45 0 min 0,0 UV-I 0 W/m -2,2 C -7,5 C 17,7 km/h (3 Bft)
31.01.2021 00:02 -1,7 C -0,6 C 96 % 1001,6 hPa 0,0 l/m 12,9 km/h (3 Bft) NO 45 0 min 0,0 UV-I 0 W/m -2,3 C -7,6 C 17,7 km/h (3 Bft)
31.01.2021 00:03 -1,6 C -0,6 C 96 % 1001,7 hPa 0,0 l/m 11,3 km/h (2 Bft) NO 45 0 min 0,0 UV-I 0 W/m -2,2 C -6,3 C 16,1 km/h (3 Bft)
31.01.2021 00:04 -1,7 C -0,6 C 96 % 1001,7 hPa 0,0 l/m 11,3 km/h (2 Bft) NO 45 0 min 0,0 UV-I 0 W/m -2,3 C -6,4 C 16,1 km/h (3 Bft)
31.01.2021 00:05 -1,6 C -0,6 C 96 % 1001,7 hPa 0,0 l/m 14,5 km/h (3 Bft) NO 45 0 min 0,0 UV-I 0 W/m -2,2 C -8,6 C 20,9 km/h (4 Bft)
31.01.2021 00:06 -1,6 C -0,6 C 96 % 1001,7 hPa 0,0 l/m 12,9 km/h (3 Bft) NO 45 0 min 0,0 UV-I 0 W/m -2,2 C -7,5 C 19,3 km/h (3 Bft)
31.01.2021 00:07 -1,6 C -0,6 C 96 % 1001,7 hPa 0,0 l/m 12,9 km/h (3 Bft) NO 45 0 min 0,0 UV-I 0 W/m -2,2 C -7,5 C 17,7 km/h (3 Bft)
31.01.2021 00:08 -1,6 C -0,6 C 96 % 1001,7 hPa 0,0 l/m 14,5 km/h (3 Bft) O-NO 67 0 min 0,0 UV-I 0 W/m -2,2 C -8,6 C 22,5 km/h (4 Bft)
31.01.2021 00:09 -1,6 C -0,6 C 96 % 1001,7 hPa 0,0 l/m 14,5 km/h (3 Bft) NO 45 0 min 0,0 UV-I 0 W/m -2,2 C -8,6 C 22,5 km/h (4 Bft)
31.01.2021 00:10 -1,6 C -0,6 C 96 % 1001,6 hPa 0,0 l/m 12,9 km/h (3 Bft) NO 45 0 min 0,0 UV-I 0 W/m -2,2 C -7,5 C 19,3 km/h (3 Bft)
31.01.2021 00:11 -1,6 C -0,6 C 96 % 1001,7 hPa 0,0 l/m 12,9 km/h (3 Bft) NO 45 0 min 0,0 UV-I 0 W/m -2,2 C -7,5 C 17,7 km/h (3 Bft)
31.01.2021 00:12 -1,6 C -0,6 C 96 % 1001,6 hPa 0,0 l/m 12,9 km/h (3 Bft) NO 45 0 min 0,0 UV-I 0 W/m -2,2 C -7,5 C 17,7 km/h (3 Bft)
31.01.2021 00:13 -1,6 C -0,6 C 96 % 1001,7 hPa 0,0 l/m 14,5 km/h (3 Bft) NO 45 0 min 0,0 UV-I 0 W/m -2,2 C -8,6 C 17,7 km/h (3 Bft)
31.01.2021 00:14 -1,6 C -0,6 C 96 % 1001,7 hPa 0,0 l/m 9,7 km/h (2 Bft) NO 45 0 min 0,0 UV-I 0 W/m -2,2 C -5,0 C 14,5 km/h (3 Bft)
31.01.2021 00:15 -1,6 C -0,6 C 96 % 1001,7 hPa 0,0 l/m 12,9 km/h (3 Bft) NO 45 0 min 0,0 UV-I 0 W/m -2,2 C -7,5 C 17,7 km/h (3 Bft)
31.01.2021 00:16 -1,6 C -0,6 C 96 % 1001,6 hPa 0,0 l/m 14,5 km/h (3 Bft) NO 45 0 min 0,0 UV-I 0 W/m -2,2 C -8,6 C 19,3 km/h (3 Bft)
31.01.2021 00:17 -1,6 C -0,6 C 96 % 1001,7 hPa 0,0 l/m 14,5 km/h (3 Bft) N-NO 22 0 min 0,0 UV-I 0 W/m -2,2 C -8,6 C 16,1 km/h (3 Bft)
31.01.2021 00:18 -1,6 C -0,6 C 96 % 1001,7 hPa 0,0 l/m 14,5 km/h (3 Bft) NO 45 0 min 0,0 UV-I 0 W/m -2,2 C -8,6 C 19,3 km/h (3 Bft)
31.01.2021 00:19 -1,6 C -0,6 C 96 % 1001,6 hPa 0,0 l/m 17,7 km/h (3 Bft) NO 45 0 min 0,0 UV-I 0 W/m -2,2 C -10,5 C 25,7 km/h (4 Bft)
31.01.2021 00:20 -1,6 C -0,6 C 96 % 1001,6 hPa 0,0 l/m 16,1 km/h (3 Bft) NO 45 0 min 0,0 UV-I 0 W/m -2,2 C -9,6 C 22,5 km/h (4 Bft)
31.01.2021 00:21 -1,6 C -0,6 C 96 % 1001,6 hPa 0,0 l/m 14,5 km/h (3 Bft) O-NO 67 0 min 0,0 UV-I 0 W/m -2,2 C -8,6 C 25,7 km/h (4 Bft)
31.01.2021 00:22 -1,6 C -0,6 C 96 % 1001,6 hPa 0,0 l/m 14,5 km/h (3 Bft) NO 45 0 min 0,0 UV-I 0 W/m -2,2 C -8,6 C 19,3 km/h (3 Bft)
31.01.2021 00:23 -1,6 C -0,6 C 96 % 1001,6 hPa 0,0 l/m 17,7 km/h (3 Bft) NO 45 0 min 0,0 UV-I 0 W/m -2,2 C -10,5 C 20,9 km/h (4 Bft)
31.01.2021 00:24 -1,6 C -0,6 C 96 % 1001,6 hPa 0,0 l/m 16,1 km/h (3 Bft) NO 45 0 min 0,0 UV-I 0 W/m -2,2 C -9,6 C 20,9 km/h (4 Bft)
31.01.2021 00:25 -1,6 C -0,6 C 96 % 1001,7 hPa 0,0 l/m 11,3 km/h (2 Bft) NO 45 0 min 0,0 UV-I 0 W/m -2,2 C -6,3 C 14,5 km/h (3 Bft)
31.01.2021 00:26 -1,6 C -0,6 C 96 % 1001,6 hPa 0,0 l/m 14,5 km/h (3 Bft) N-NO 22 0 min 0,0 UV-I 0 W/m -2,2 C -8,6 C 19,3 km/h (3 Bft)
31.01.2021 00:27 -1,6 C -0,6 C 96 % 1001,6 hPa 0,0 l/m 17,7 km/h (3 Bft) NO 45 0 min 0,0 UV-I 0 W/m -2,2 C -10,5 C 22,5 km/h (4 Bft)
31.01.2021 00:28 -1,6 C -0,6 C 96 % 1001,7 hPa 0,0 l/m 14,5 km/h (3 Bft) NO 45 0 min 0,0 UV-I 0 W/m -2,2 C -8,6 C 19,3 km/h (3 Bft)
31.01.2021 00:29 -1,6 C -0,6 C 96 % 1001,8 hPa 0,0 l/m 12,9 km/h (3 Bft) NO 45 0 min 0,0 UV-I 0 W/m -2,2 C -7,5 C 17,7 km/h (3 Bft)
31.01.2021 00:30 -1,6 C -0,6 C 96 % 1001,7 hPa 0,0 l/m 16,1 km/h (3 Bft) O-NO 67 0 min 0,0 UV-I 0 W/m -2,2 C -9,6 C 19,3 km/h (3 Bft)
31.01.2021 00:31 -1,6 C -0,6 C 96 % 1001,7 hPa 0,0 l/m 11,3 km/h (2 Bft) NO 45 0 min 0,0 UV-I 0 W/m -2,2 C -6,3 C 14,5 km/h (3 Bft)
31.01.2021 00:32 -1,6 C -0,6 C 96 % 1001,8 hPa 0,0 l/m 12,9 km/h (3 Bft) NO 45 0 min 0,0 UV-I 0 W/m -2,2 C -7,5 C 17,7 km/h (3 Bft)
31.01.2021 00:33 -1,6 C -0,6 C 96 % 1001,8 hPa 0,0 l/m 11,3 km/h (2 Bft) NO 45 0 min 0,0 UV-I 0 W/m -2,2 C -6,3 C 19,3 km/h (3 Bft)
31.01.2021 00:34 -1,6 C -0,6 C 96 % 1001,8 hPa 0,0 l/m 12,9 km/h (3 Bft) NO 45 0 min 0,0 UV-I 0 W/m -2,2 C -7,5 C 16,1 km/h (3 Bft)
31.01.2021 00:35 -1,6 C -0,6 C 96 % 1001,9 hPa 0,0 l/m 12,9 km/h (3 Bft) NO 45 0 min 0,0 UV-I 0 W/m -2,2 C -7,5 C 17,7 km/h (3 Bft)
31.01.2021 00:36 -1,6 C -0,6 C 96 % 1001,9 hPa 0,0 l/m 14,5 km/h (3 Bft) NO 45 0 min 0,0 UV-I 0 W/m -2,2 C -8,6 C 19,3 km/h (3 Bft)
31.01.2021 00:37 -1,6 C -0,6 C 96 % 1001,9 hPa 0,0 l/m 17,7 km/h (3 Bft) NO 45 0 min 0,0 UV-I 0 W/m -2,2 C -10,5 C 20,9 km/h (4 Bft)
31.01.2021 00:38 -1,6 C -0,6 C 96 % 1001,9 hPa 0,0 l/m 12,9 km/h (3 Bft) NO 45 0 min 0,0 UV-I 0 W/m -2,2 C -7,5 C 19,3 km/h (3 Bft)
31.01.2021 00:39 -1,6 C -0,6 C 96 % 1002,0 hPa 0,0 l/m 12,9 km/h (3 Bft) NO 45 0 min 0,0 UV-I 0 W/m -2,2 C -7,5 C 17,7 km/h (3 Bft)
31.01.2021 00:40 -1,6 C -0,6 C 96 % 1002,0 hPa 0,0 l/m 9,7 km/h (2 Bft) NO 45 0 min 0,0 UV-I 0 W/m -2,2 C -5,0 C 11,3 km/h (2 Bft)
31.01.2021 00:41 -1,6 C -0,6 C 96 % 1001,9 hPa 0,0 l/m 11,3 km/h (2 Bft) NO 45 0 min 0,0 UV-I 0 W/m -2,2 C -6,3 C 14,5 km/h (3 Bft)
31.01.2021 00:42 -1,6 C -0,6 C 96 % 1002,0 hPa 0,0 l/m 11,3 km/h (2 Bft) NO 45 0 min 0,0 UV-I 0 W/m -2,2 C -6,3 C 16,1 km/h (3 Bft)
31.01.2021 00:43 -1,6 C -0,6 C 96 % 1001,9 hPa 0,0 l/m 11,3 km/h (2 Bft) O-NO 67 0 min 0,0 UV-I 0 W/m -2,2 C -6,3 C 14,5 km/h (3 Bft)
31.01.2021 00:44 -1,6 C -0,6 C 96 % 1001,9 hPa 0,0 l/m 6,4 km/h (2 Bft) NO 45 0 min 0,0 UV-I 0 W/m -2,2 C -1,6 C 11,3 km/h (2 Bft)
31.01.2021 00:45 -1,6 C -0,6 C 96 % 1001,9 hPa 0,0 l/m 11,3 km/h (2 Bft) NO 45 0 min 0,0 UV-I 0 W/m -2,2 C -6,3 C 16,1 km/h (3 Bft)
31.01.2021 00:46 -1,6 C -0,6 C 96 % 1002,0 hPa 0,0 l/m 9,7 km/h (2 Bft) N-NO 22 0 min 0,0 UV-I 0 W/m -2,2 C -5,0 C 14,5 km/h (3 Bft)
31.01.2021 00:47 -1,6 C -0,6 C 96 % 1002,0 hPa 0,0 l/m 12,9 km/h (3 Bft) NO 45 0 min 0,0 UV-I 0 W/m -2,2 C -7,5 C 16,1 km/h (3 Bft)
31.01.2021 00:48 -1,6 C -0,6 C 96 % 1002,0 hPa 0,0 l/m 11,3 km/h (2 Bft) NO 45 0 min 0,0 UV-I 0 W/m -2,2 C -6,3 C 16,1 km/h (3 Bft)
31.01.2021 00:49 -1,6 C -0,6 C 96 % 1002,0 hPa 0,0 l/m 8,0 km/h (2 Bft) NO 45 0 min 0,0 UV-I 0 W/m -2,2 C -3,3 C 14,5 km/h (3 Bft)
31.01.2021 00:50 -1,6 C -0,6 C 96 % 1002,0 hPa 0,0 l/m 8,0 km/h (2 Bft) NO 45 0 min 0,0 UV-I 0 W/m -2,2 C -3,3 C 12,9 km/h (3 Bft)
31.01.2021 00:51 -1,6 C -0,6 C 96 % 1001,9 hPa 0,0 l/m 11,3 km/h (2 Bft) NO 45 0 min 0,0 UV-I 0 W/m -2,2 C -6,3 C 17,7 km/h (3 Bft)
31.01.2021 00:52 -1,6 C -0,6 C 96 % 1001,9 hPa 0,0 l/m 9,7 km/h (2 Bft) NO 45 0 min 0,0 UV-I 0 W/m -2,2 C -5,0 C 19,3 km/h (3 Bft)
31.01.2021 00:53 -1,6 C -0,6 C 96 % 1001,8 hPa 0,0 l/m 12,9 km/h (3 Bft) NO 45 0 min 0,0 UV-I 0 W/m -2,2 C -7,5 C 19,3 km/h (3 Bft)
31.01.2021 00:54 -1,6 C -0,6 C 96 % 1001,9 hPa 0,0 l/m 12,9 km/h (3 Bft) NO 45 0 min 0,0 UV-I 0 W/m -2,2 C -7,5 C 17,7 km/h (3 Bft)
31.01.2021 00:55 -1,6 C -0,6 C 96 % 1001,9 hPa 0,0 l/m 9,7 km/h (2 Bft) NO 45 0 min 0,0 UV-I 0 W/m -2,2 C -5,0 C 16,1 km/h (3 Bft)
31.01.2021 00:56 -1,6 C -0,6 C 96 % 1001,9 hPa 0,0 l/m 12,9 km/h (3 Bft) NO 45 0 min 0,0 UV-I 0 W/m -2,2 C -7,5 C 17,7 km/h (3 Bft)
31.01.2021 00:57 -1,6 C -0,6 C 96 % 1002,0 hPa 0,0 l/m 14,5 km/h (3 Bft) N-NO 22 0 min 0,0 UV-I 0 W/m -2,2 C -8,6 C 19,3 km/h (3 Bft)
31.01.2021 00:58 -1,6 C -0,6 C 96 % 1001,9 hPa 0,0 l/m 17,7 km/h (3 Bft) NO 45 0 min 0,0 UV-I 0 W/m -2,2 C -10,5 C 19,3 km/h (3 Bft)
31.01.2021 00:59 -1,6 C -0,6 C 96 % 1001,9 hPa 0,0 l/m 11,3 km/h (2 Bft) NO 45 0 min 0,0 UV-I 0 W/m -2,2 C -6,3 C 16,1 km/h (3 Bft)
31.01.2021 01:00 -1,6 C -0,6 C 96 % 1001,9 hPa 0,0 l/m 9,7 km/h (2 Bft) NO 45 0 min 0,0 UV-I 0 W/m -2,2 C -5,0 C 16,1 km/h (3 Bft)
31.01.2021 01:01 -1,6 C -0,6 C 96 % 1001,9 hPa 0,0 l/m 11,3 km/h (2 Bft) NO 45 0 min 0,0 UV-I 0 W/m -2,2 C -6,3 C 17,7 km/h (3 Bft)
31.01.2021 01:02 -1,6 C -0,6 C 96 % 1001,9 hPa 0,0 l/m 11,3 km/h (2 Bft) O-NO 67 0 min 0,0 UV-I 0 W/m -2,2 C -6,3 C 17,7 km/h (3 Bft)
31.01.2021 01:03 -1,6 C -0,6 C 96 % 1001,8 hPa 0,0 l/m 8,0 km/h (2 Bft) NO 45 0 min 0,0 UV-I 0 W/m -2,2 C -3,3 C 14,5 km/h (3 Bft)
31.01.2021 01:04 -1,6 C -0,6 C 96 % 1001,9 hPa 0,0 l/m 9,7 km/h (2 Bft) NO 45 0 min 0,0 UV-I 0 W/m -2,2 C -5,0 C 14,5 km/h (3 Bft)
31.01.2021 01:05 -1,6 C -0,6 C 96 % 1002,0 hPa 0,0 l/m 12,9 km/h (3 Bft) O-NO 67 0 min 0,0 UV-I 0 W/m -2,2 C -7,5 C 17,7 km/h (3 Bft)
31.01.2021 01:06 -1,6 C -0,6 C 96 % 1002,0 hPa 0,0 l/m 16,1 km/h (3 Bft) NO 45 0 min 0,0 UV-I 0 W/m -2,2 C -9,6 C 22,5 km/h (4 Bft)
31.01.2021 01:07 -1,6 C -0,6 C 96 % 1001,9 hPa 0,0 l/m 9,7 km/h (2 Bft) O-NO 67 0 min 0,0 UV-I 0 W/m -2,2 C -5,0 C 14,5 km/h (3 Bft)
31.01.2021 01:08 -1,6 C -0,6 C 96 % 1002,0 hPa 0,0 l/m 9,7 km/h (2 Bft) N-NO 22 0 min 0,0 UV-I 0 W/m -2,2 C -5,0 C 14,5 km/h (3 Bft)
31.01.2021 01:09 -1,5 C -0,6 C 96 % 1002,0 hPa 0,0 l/m 8,0 km/h (2 Bft) NO 45 0 min 0,0 UV-I 0 W/m -2,1 C -3,2 C 12,9 km/h (3 Bft)
31.01.2021 01:10 -1,6 C -0,6 C 96 % 1002,0 hPa 0,0 l/m 8,0 km/h (2 Bft) N-NO 22 0 min 0,0 UV-I 0 W/m -2,2 C -3,3 C 14,5 km/h (3 Bft)
31.01.2021 01:11 -1,5 C -0,6 C 96 % 1002,0 hPa 0,0 l/m 9,7 km/h (2 Bft) NO 45 0 min 0,0 UV-I 0 W/m -2,1 C -4,8 C 12,9 km/h (3 Bft)
31.01.2021 01:12 -1,6 C -0,6 C 96 % 1002,0 hPa 0,0 l/m 11,3 km/h (2 Bft) NO 45 0 min 0,0 UV-I 0 W/m -2,2 C -6,3 C 16,1 km/h (3 Bft)
31.01.2021 01:13 -1,6 C -0,6 C 96 % 1002,1 hPa 0,0 l/m 12,9 km/h (3 Bft) NO 45 0 min 0,0 UV-I 0 W/m -2,2 C -7,5 C 19,3 km/h (3 Bft)
31.01.2021 01:14 -1,6 C -0,6 C 96 % 1002,0 hPa 0,0 l/m 11,3 km/h (2 Bft) NO 45 0 min 0,0 UV-I 0 W/m -2,2 C -6,3 C 14,5 km/h (3 Bft)
31.01.2021 01:15 -1,5 C -0,6 C 96 % 1002,1 hPa 0,0 l/m 12,9 km/h (3 Bft) NO 45 0 min 0,0 UV-I 0 W/m -2,1 C -7,4 C 17,7 km/h (3 Bft)
31.01.2021 01:16 -1,5 C -0,6 C 96 % 1002,0 hPa 0,0 l/m 16,1 km/h (3 Bft) NO 45 0 min 0,0 UV-I 0 W/m -2,1 C -9,5 C 20,9 km/h (4 Bft)
31.01.2021 01:17 -1,5 C -0,6 C 96 % 1002,0 hPa 0,0 l/m 12,9 km/h (3 Bft) N-NO 22 0 min 0,0 UV-I 0 W/m -2,1 C -7,4 C 22,5 km/h (4 Bft)
31.01.2021 01:18 -1,6 C -0,6 C 96 % 1002,0 hPa 0,0 l/m 16,1 km/h (3 Bft) NO 45 0 min 0,0 UV-I 0 W/m -2,2 C -9,6 C 19,3 km/h (3 Bft)
31.01.2021 01:19 -1,5 C -0,6 C 96 % 1002,1 hPa 0,0 l/m 12,9 km/h (3 Bft) NO 45 0 min 0,0 UV-I 0 W/m -2,1 C -7,4 C 20,9 km/h (4 Bft)
31.01.2021 01:20 -1,6 C -0,6 C 96 % 1002,0 hPa 0,0 l/m 12,9 km/h (3 Bft) NO 45 0 min 0,0 UV-I 0 W/m -2,2 C -7,5 C 19,3 km/h (3 Bft)
31.01.2021 01:21 -1,6 C -0,6 C 96 % 1002,1 hPa 0,0 l/m 16,1 km/h (3 Bft) N-NO 22 0 min 0,0 UV-I 0 W/m -2,2 C -9,6 C 17,7 km/h (3 Bft)
31.01.2021 01:22 -1,6 C -0,6 C 96 % 1002,0 hPa 0,0 l/m 12,9 km/h (3 Bft) NO 45 0 min 0,0 UV-I 0 W/m -2,2 C -7,5 C 17,7 km/h (3 Bft)
31.01.2021 01:23 -1,6 C -0,6 C 96 % 1002,2 hPa 0,0 l/m 11,3 km/h (2 Bft) N-NO 22 0 min 0,0 UV-I 0 W/m -2,2 C -6,3 C 19,3 km/h (3 Bft)
31.01.2021 01:24 -1,6 C -0,6 C 96 % 1002,2 hPa 0,0 l/m 14,5 km/h (3 Bft) NO 45 0 min 0,0 UV-I 0 W/m -2,2 C -8,6 C 19,3 km/h (3 Bft)
31.01.2021 01:25 -1,6 C -0,6 C 96 % 1002,1 hPa 0,0 l/m 17,7 km/h (3 Bft) NO 45 0 min 0,0 UV-I 0 W/m -2,2 C -10,5 C 20,9 km/h (4 Bft)
31.01.2021 01:26 -1,6 C -0,6 C 96 % 1002,2 hPa 0,0 l/m 14,5 km/h (3 Bft) O-NO 67 0 min 0,0 UV-I 0 W/m -2,2 C -8,6 C 19,3 km/h (3 Bft)
31.01.2021 01:27 -1,6 C -0,6 C 96 % 1002,3 hPa 0,0 l/m 11,3 km/h (2 Bft) NO 45 0 min 0,0 UV-I 0 W/m -2,2 C -6,3 C 16,1 km/h (3 Bft)
31.01.2021 01:28 -1,6 C -0,6 C 96 % 1002,2 hPa 0,0 l/m 12,9 km/h (3 Bft) N-NO 22 0 min 0,0 UV-I 0 W/m -2,2 C -7,5 C 17,7 km/h (3 Bft)
31.01.2021 01:29 -1,6 C -0,6 C 96 % 1002,2 hPa 0,0 l/m 12,9 km/h (3 Bft) NO 45 0 min 0,0 UV-I 0 W/m -2,2 C -7,5 C 19,3 km/h (3 Bft)
31.01.2021 01:30 -1,6 C -0,6 C 96 % 1002,2 hPa 0,0 l/m 14,5 km/h (3 Bft) NO 45 0 min 0,0 UV-I 0 W/m -2,2 C -8,6 C 19,3 km/h (3 Bft)
31.01.2021 01:31 -1,6 C -0,6 C 96 % 1002,3 hPa 0,0 l/m 16,1 km/h (3 Bft) NO 45 0 min 0,0 UV-I 0 W/m -2,2 C -9,6 C 19,3 km/h (3 Bft)
31.01.2021 01:32 -1,6 C -0,6 C 96 % 1002,3 hPa 0,0 l/m 12,9 km/h (3 Bft) NO 45 0 min 0,0 UV-I 0 W/m -2,2 C -7,5 C 16,1 km/h (3 Bft)
31.01.2021 01:33 -1,6 C -0,6 C 96 % 1002,4 hPa 0,0 l/m 16,1 km/h (3 Bft) NO 45 0 min 0,0 UV-I 0 W/m -2,2 C -9,6 C 19,3 km/h (3 Bft)
31.01.2021 01:34 -1,6 C -0,6 C 96 % 1002,3 hPa 0,0 l/m 12,9 km/h (3 Bft) N-NO 22 0 min 0,0 UV-I 0 W/m -2,2 C -7,5 C 17,7 km/h (3 Bft)
31.01.2021 01:35 -1,6 C -0,6 C 96 % 1002,2 hPa 0,0 l/m 12,9 km/h (3 Bft) NO 45 0 min 0,0 UV-I 0 W/m -2,2 C -7,5 C 19,3 km/h (3 Bft)
31.01.2021 01:36 -1,6 C -0,6 C 96 % 1002,3 hPa 0,0 l/m 16,1 km/h (3 Bft) NO 45 0 min 0,0 UV-I 0 W/m -2,2 C -9,6 C 19,3 km/h (3 Bft)
31.01.2021 01:37 -1,5 C -0,6 C 96 % 1002,3 hPa 0,0 l/m 11,3 km/h (2 Bft) NO 45 0 min 0,0 UV-I 0 W/m -2,1 C -6,2 C 16,1 km/h (3 Bft)
31.01.2021 01:38 -1,6 C -0,6 C 96 % 1002,3 hPa 0,0 l/m 9,7 km/h (2 Bft) NO 45 0 min 0,0 UV-I 0 W/m -2,2 C -5,0 C 14,5 km/h (3 Bft)
31.01.2021 01:39 -1,6 C -0,6 C 96 % 1002,4 hPa 0,0 l/m 9,7 km/h (2 Bft) NO 45 0 min 0,0 UV-I 0 W/m -2,2 C -5,0 C 14,5 km/h (3 Bft)
31.01.2021 01:40 -1,6 C -0,6 C 96 % 1002,3 hPa 0,0 l/m 8,0 km/h (2 Bft) NO 45 0 min 0,0 UV-I 0 W/m -2,2 C -3,3 C 12,9 km/h (3 Bft)
31.01.2021 01:41 -1,6 C -0,6 C 96 % 1002,3 hPa 0,0 l/m 9,7 km/h (2 Bft) NO 45 0 min 0,0 UV-I 0 W/m -2,2 C -5,0 C 16,1 km/h (3 Bft)
31.01.2021 01:42 -1,6 C -0,6 C 96 % 1002,3 hPa 0,0 l/m 14,5 km/h (3 Bft) NO 45 0 min 0,0 UV-I 0 W/m -2,2 C -8,6 C 20,9 km/h (4 Bft)
31.01.2021 01:43 -1,6 C -0,6 C 96 % 1002,3 hPa 0,0 l/m 11,3 km/h (2 Bft) O-NO 67 0 min 0,0 UV-I 0 W/m -2,2 C -6,3 C 19,3 km/h (3 Bft)
31.01.2021 01:44 -1,6 C -0,6 C 96 % 1002,2 hPa 0,0 l/m 16,1 km/h (3 Bft) NO 45 0 min 0,0 UV-I 0 W/m -2,2 C -9,6 C 24,1 km/h (4 Bft)
31.01.2021 01:45 -1,6 C -0,6 C 96 % 1002,2 hPa 0,0 l/m 14,5 km/h (3 Bft) NO 45 0 min 0,0 UV-I 0 W/m -2,2 C -8,6 C 20,9 km/h (4 Bft)
31.01.2021 01:46 -1,6 C -0,6 C 96 % 1002,2 hPa 0,0 l/m 14,5 km/h (3 Bft) NO 45 0 min 0,0 UV-I 0 W/m -2,2 C -8,6 C 19,3 km/h (3 Bft)
31.01.2021 01:47 -1,6 C -0,6 C 96 % 1002,3 hPa 0,0 l/m 12,9 km/h (3 Bft) O-NO 67 0 min 0,0 UV-I 0 W/m -2,2 C -7,5 C 17,7 km/h (3 Bft)
31.01.2021 01:48 -1,6 C -0,6 C 96 % 1002,2 hPa 0,0 l/m 9,7 km/h (2 Bft) NO 45 0 min 0,0 UV-I 0 W/m -2,2 C -5,0 C 16,1 km/h (3 Bft)
31.01.2021 01:49 -1,6 C -0,6 C 96 % 1002,2 hPa 0,0 l/m 12,9 km/h (3 Bft) NO 45 0 min 0,0 UV-I 0 W/m -2,2 C -7,5 C 22,5 km/h (4 Bft)
31.01.2021 01:50 -1,6 C -0,6 C 96 % 1002,2 hPa 0,0 l/m 11,3 km/h (2 Bft) NO 45 0 min 0,0 UV-I 0 W/m -2,2 C -6,3 C 16,1 km/h (3 Bft)
31.01.2021 01:51 -1,6 C -0,6 C 96 % 1002,3 hPa 0,0 l/m 12,9 km/h (3 Bft) NO 45 0 min 0,0 UV-I 0 W/m -2,2 C -7,5 C 16,1 km/h (3 Bft)
31.01.2021 01:52 -1,6 C -0,6 C 96 % 1002,2 hPa 0,0 l/m 9,7 km/h (2 Bft) NO 45 0 min 0,0 UV-I 0 W/m -2,2 C -5,0 C 12,9 km/h (3 Bft)
31.01.2021 01:53 -1,6 C -0,6 C 96 % 1002,2 hPa 0,0 l/m 14,5 km/h (3 Bft) NO 45 0 min 0,0 UV-I 0 W/m -2,2 C -8,6 C 19,3 km/h (3 Bft)
31.01.2021 01:54 -1,6 C -0,6 C 96 % 1002,2 hPa 0,0 l/m 14,5 km/h (3 Bft) O-NO 67 0 min 0,0 UV-I 0 W/m -2,2 C -8,6 C 19,3 km/h (3 Bft)
31.01.2021 01:55 -1,6 C -0,6 C 96 % 1002,3 hPa 0,0 l/m 9,7 km/h (2 Bft) NO 45 0 min 0,0 UV-I 0 W/m -2,2 C -5,0 C 17,7 km/h (3 Bft)
31.01.2021 01:56 -1,6 C -0,6 C 96 % 1002,2 hPa 0,0 l/m 16,1 km/h (3 Bft) NO 45 0 min 0,0 UV-I 0 W/m -2,2 C -9,6 C 19,3 km/h (3 Bft)
31.01.2021 01:57 -1,6 C -0,6 C 96 % 1002,2 hPa 0,0 l/m 12,9 km/h (3 Bft) NO 45 0 min 0,0 UV-I 0 W/m -2,2 C -7,5 C 19,3 km/h (3 Bft)
31.01.2021 01:58 -1,6 C -0,6 C 96 % 1002,2 hPa 0,0 l/m 12,9 km/h (3 Bft) NO 45 0 min 0,0 UV-I 0 W/m -2,2 C -7,5 C 19,3 km/h (3 Bft)
31.01.2021 01:59 -1,6 C -0,6 C 96 % 1002,1 hPa 0,0 l/m 14,5 km/h (3 Bft) O-NO 67 0 min 0,0 UV-I 0 W/m -2,2 C -8,6 C 20,9 km/h (4 Bft)
31.01.2021 02:00 -1,6 C -0,6 C 96 % 1002,2 hPa 0,0 l/m 12,9 km/h (3 Bft) NO 45 0 min 0,0 UV-I 0 W/m -2,2 C -7,5 C 17,7 km/h (3 Bft)
31.01.2021 02:01 -1,6 C -0,6 C 96 % 1002,3 hPa 0,0 l/m 11,3 km/h (2 Bft) O-NO 67 0 min 0,0 UV-I 0 W/m -2,2 C -6,3 C 17,7 km/h (3 Bft)
31.01.2021 02:02 -1,6 C -0,6 C 96 % 1002,3 hPa 0,0 l/m 12,9 km/h (3 Bft) O-NO 67 0 min 0,0 UV-I 0 W/m -2,2 C -7,5 C 14,5 km/h (3 Bft)
31.01.2021 02:03 -1,6 C -1,1 C 96 % 1002,2 hPa 0,0 l/m 11,3 km/h (2 Bft) NO 45 0 min 0,0 UV-I 0 W/m -2,2 C -6,3 C 17,7 km/h (3 Bft)
31.01.2021 02:04 -1,6 C -1,1 C 96 % 1002,3 hPa 0,0 l/m 11,3 km/h (2 Bft) NO 45 0 min 0,0 UV-I 0 W/m -2,2 C -6,3 C 16,1 km/h (3 Bft)
31.01.2021 02:05 -1,6 C -0,6 C 96 % 1002,4 hPa 0,0 l/m 11,3 km/h (2 Bft) O-NO 67 0 min 0,0 UV-I 0 W/m -2,2 C -6,3 C 17,7 km/h (3 Bft)
31.01.2021 02:06 -1,6 C -0,6 C 96 % 1002,3 hPa 0,0 l/m 9,7 km/h (2 Bft) NO 45 0 min 0,0 UV-I 0 W/m -2,2 C -5,0 C 16,1 km/h (3 Bft)
31.01.2021 02:07 -1,6 C -0,6 C 96 % 1002,4 hPa 0,0 l/m 12,9 km/h (3 Bft) NO 45 0 min 0,0 UV-I 0 W/m -2,2 C -7,5 C 17,7 km/h (3 Bft)
31.01.2021 02:08 -1,6 C -0,6 C 96 % 1002,3 hPa 0,0 l/m 14,5 km/h (3 Bft) NO 45 0 min 0,0 UV-I 0 W/m -2,2 C -8,6 C 22,5 km/h (4 Bft)
31.01.2021 02:09 -1,6 C -1,1 C 96 % 1002,3 hPa 0,0 l/m 16,1 km/h (3 Bft) NO 45 0 min 0,0 UV-I 0 W/m -2,2 C -9,6 C 20,9 km/h (4 Bft)
31.01.2021 02:10 -1,6 C -1,1 C 96 % 1002,4 hPa 0,0 l/m 9,7 km/h (2 Bft) NO 45 0 min 0,0 UV-I 0 W/m -2,2 C -5,0 C 14,5 km/h (3 Bft)
31.01.2021 02:11 -1,6 C -0,6 C 96 % 1002,3 hPa 0,0 l/m 9,7 km/h (2 Bft) NO 45 0 min 0,0 UV-I 0 W/m -2,2 C -5,0 C 16,1 km/h (3 Bft)
31.01.2021 02:12 -1,6 C -0,6 C 96 % 1002,4 hPa 0,0 l/m 12,9 km/h (3 Bft) NO 45 0 min 0,0 UV-I 0 W/m -2,2 C -7,5 C 20,9 km/h (4 Bft)
31.01.2021 02:13 -1,6 C -0,6 C 96 % 1002,3 hPa 0,0 l/m 16,1 km/h (3 Bft) NO 45 0 min 0,0 UV-I 0 W/m -2,2 C -9,6 C 19,3 km/h (3 Bft)
31.01.2021 02:14 -1,6 C -0,6 C 96 % 1002,4 hPa 0,0 l/m 14,5 km/h (3 Bft) NO 45 0 min 0,0 UV-I 0 W/m -2,2 C -8,6 C 19,3 km/h (3 Bft)
31.01.2021 02:15 -1,6 C -0,6 C 96 % 1002,4 hPa 0,0 l/m 11,3 km/h (2 Bft) NO 45 0 min 0,0 UV-I 0 W/m -2,2 C -6,3 C 16,1 km/h (3 Bft)
31.01.2021 02:16 -1,6 C -0,6 C 96 % 1002,4 hPa 0,0 l/m 8,0 km/h (2 Bft) NO 45 0 min 0,0 UV-I 0 W/m -2,2 C -3,3 C 16,1 km/h (3 Bft)
31.01.2021 02:17 -1,6 C -0,6 C 96 % 1002,4 hPa 0,0 l/m 8,0 km/h (2 Bft) NO 45 0 min 0,0 UV-I 0 W/m -2,2 C -3,3 C 12,9 km/h (3 Bft)
31.01.2021 02:18 -1,6 C -0,6 C 96 % 1002,4 hPa 0,0 l/m 12,9 km/h (3 Bft) NO 45 0 min 0,0 UV-I 0 W/m -2,2 C -7,5 C 17,7 km/h (3 Bft)
31.01.2021 02:19 -1,6 C -0,6 C 96 % 1002,5 hPa 0,0 l/m 11,3 km/h (2 Bft) NO 45 0 min 0,0 UV-I 0 W/m -2,2 C -6,3 C 16,1 km/h (3 Bft)
31.01.2021 02:20 -1,6 C -0,6 C 96 % 1002,5 hPa 0,0 l/m 16,1 km/h (3 Bft) NO 45 0 min 0,0 UV-I 0 W/m -2,2 C -9,6 C 20,9 km/h (4 Bft)
31.01.2021 02:21 -1,6 C -0,6 C 96 % 1002,5 hPa 0,0 l/m 14,5 km/h (3 Bft) NO 45 0 min 0,0 UV-I 0 W/m -2,2 C -8,6 C 24,1 km/h (4 Bft)
31.01.2021 02:22 -1,7 C -0,6 C 96 % 1002,5 hPa 0,0 l/m 19,3 km/h (3 Bft) NO 45 0 min 0,0 UV-I 0 W/m -2,3 C -11,5 C 24,1 km/h (4 Bft)
31.01.2021 02:23 -1,6 C -0,6 C 96 % 1002,6 hPa 0,0 l/m 19,3 km/h (3 Bft) O-NO 67 0 min 0,0 UV-I 0 W/m -2,2 C -11,4 C 24,1 km/h (4 Bft)
31.01.2021 02:24 -1,6 C -0,6 C 96 % 1002,6 hPa 0,0 l/m 9,7 km/h (2 Bft) NO 45 0 min 0,0 UV-I 0 W/m -2,2 C -5,0 C 14,5 km/h (3 Bft)
31.01.2021 02:25 -1,6 C -0,6 C 96 % 1002,6 hPa 0,0 l/m 12,9 km/h (3 Bft) NO 45 0 min 0,0 UV-I 0 W/m -2,2 C -7,5 C 19,3 km/h (3 Bft)
31.01.2021 02:26 -1,6 C -0,6 C 96 % 1002,6 hPa 0,0 l/m 16,1 km/h (3 Bft) NO 45 0 min 0,0 UV-I 0 W/m -2,2 C -9,6 C 22,5 km/h (4 Bft)
31.01.2021 02:27 -1,6 C -0,6 C 96 % 1002,6 hPa 0,0 l/m 11,3 km/h (2 Bft) NO 45 0 min 0,0 UV-I 0 W/m -2,2 C -6,3 C 14,5 km/h (3 Bft)
31.01.2021 02:28 -1,6 C -0,6 C 96 % 1002,7 hPa 0,0 l/m 12,9 km/h (3 Bft) NO 45 0 min 0,0 UV-I 0 W/m -2,2 C -7,5 C 16,1 km/h (3 Bft)
31.01.2021 02:29 -1,6 C -0,6 C 96 % 1002,6 hPa 0,0 l/m 12,9 km/h (3 Bft) NO 45 0 min 0,0 UV-I 0 W/m -2,2 C -7,5 C 17,7 km/h (3 Bft)
31.01.2021 02:30 -1,6 C -1,1 C 96 % 1002,6 hPa 0,0 l/m 9,7 km/h (2 Bft) NO 45 0 min 0,0 UV-I 0 W/m -2,2 C -5,0 C 17,7 km/h (3 Bft)
31.01.2021 02:31 -1,6 C -1,1 C 96 % 1002,7 hPa 0,0 l/m 14,5 km/h (3 Bft) NO 45 0 min 0,0 UV-I 0 W/m -2,2 C -8,6 C 17,7 km/h (3 Bft)
31.01.2021 02:32 -1,7 C -1,1 C 96 % 1002,7 hPa 0,0 l/m 16,1 km/h (3 Bft) NO 45 0 min 0,0 UV-I 0 W/m -2,3 C -9,7 C 24,1 km/h (4 Bft)
31.01.2021 02:33 -1,6 C -1,1 C 96 % 1002,7 hPa 0,0 l/m 11,3 km/h (2 Bft) NO 45 0 min 0,0 UV-I 0 W/m -2,2 C -6,3 C 16,1 km/h (3 Bft)
31.01.2021 02:34 -1,6 C -0,6 C 96 % 1002,8 hPa 0,0 l/m 12,9 km/h (3 Bft) NO 45 0 min 0,0 UV-I 0 W/m -2,2 C -7,5 C 14,5 km/h (3 Bft)
31.01.2021 02:35 -1,6 C -0,6 C 96 % 1002,7 hPa 0,0 l/m 11,3 km/h (2 Bft) NO 45 0 min 0,0 UV-I 0 W/m -2,2 C -6,3 C 16,1 km/h (3 Bft)
31.01.2021 02:36 -1,7 C -0,6 C 96 % 1002,8 hPa 0,0 l/m 11,3 km/h (2 Bft) NO 45 0 min 0,0 UV-I 0 W/m -2,3 C -6,4 C 16,1 km/h (3 Bft)
31.01.2021 02:37 -1,6 C -0,6 C 96 % 1002,8 hPa 0,0 l/m 12,9 km/h (3 Bft) NO 45 0 min 0,0 UV-I 0 W/m -2,2 C -7,5 C 17,7 km/h (3 Bft)
31.01.2021 02:38 -1,6 C -0,6 C 96 % 1002,8 hPa 0,0 l/m 16,1 km/h (3 Bft) NO 45 0 min 0,0 UV-I 0 W/m -2,2 C -9,6 C 20,9 km/h (4 Bft)
31.01.2021 02:39 -1,6 C -0,6 C 96 % 1002,8 hPa 0,0 l/m 14,5 km/h (3 Bft) N-NO 22 0 min 0,0 UV-I 0 W/m -2,2 C -8,6 C 20,9 km/h (4 Bft)
31.01.2021 02:40 -1,6 C -0,6 C 96 % 1002,8 hPa 0,0 l/m 14,5 km/h (3 Bft) NO 45 0 min 0,0 UV-I 0 W/m -2,2 C -8,6 C 16,1 km/h (3 Bft)
31.01.2021 02:41 -1,6 C -0,6 C 96 % 1002,7 hPa 0,0 l/m 11,3 km/h (2 Bft) NO 45 0 min 0,0 UV-I 0 W/m -2,2 C -6,3 C 16,1 km/h (3 Bft)
31.01.2021 02:42 -1,6 C -0,6 C 96 % 1002,7 hPa 0,0 l/m 12,9 km/h (3 Bft) NO 45 0 min 0,0 UV-I 0 W/m -2,2 C -7,5 C 16,1 km/h (3 Bft)
31.01.2021 02:43 -1,6 C -0,6 C 96 % 1002,7 hPa 0,0 l/m 9,7 km/h (2 Bft) NO 45 0 min 0,0 UV-I 0 W/m -2,2 C -5,0 C 14,5 km/h (3 Bft)
31.01.2021 02:44 -1,6 C -1,1 C 96 % 1002,7 hPa 0,0 l/m 11,3 km/h (2 Bft) NO 45 0 min 0,0 UV-I 0 W/m -2,2 C -6,3 C 17,7 km/h (3 Bft)
31.01.2021 02:45 -1,6 C -1,1 C 96 % 1002,7 hPa 0,0 l/m 14,5 km/h (3 Bft) O-NO 67 0 min 0,0 UV-I 0 W/m -2,2 C -8,6 C 17,7 km/h (3 Bft)
31.01.2021 02:46 -1,6 C -0,6 C 95 % 1002,7 hPa 0,0 l/m 14,5 km/h (3 Bft) NO 45 0 min 0,0 UV-I 0 W/m -2,3 C -8,6 C 19,3 km/h (3 Bft)
31.01.2021 02:47 -1,6 C -0,6 C 95 % 1002,6 hPa 0,0 l/m 12,9 km/h (3 Bft) NO 45 0 min 0,0 UV-I 0 W/m -2,3 C -7,5 C 20,9 km/h (4 Bft)
31.01.2021 02:48 -1,7 C -1,1 C 95 % 1002,7 hPa 0,0 l/m 11,3 km/h (2 Bft) NO 45 0 min 0,0 UV-I 0 W/m -2,4 C -6,4 C 20,9 km/h (4 Bft)
31.01.2021 02:49 -1,6 C -0,6 C 95 % 1002,6 hPa 0,0 l/m 16,1 km/h (3 Bft) NO 45 0 min 0,0 UV-I 0 W/m -2,3 C -9,6 C 19,3 km/h (3 Bft)
31.01.2021 02:50 -1,6 C -0,6 C 95 % 1002,7 hPa 0,0 l/m 11,3 km/h (2 Bft) NO 45 0 min 0,0 UV-I 0 W/m -2,3 C -6,3 C 14,5 km/h (3 Bft)
31.01.2021 02:51 -1,7 C -1,1 C 95 % 1002,6 hPa 0,0 l/m 9,7 km/h (2 Bft) O-NO 67 0 min 0,0 UV-I 0 W/m -2,4 C -5,1 C 14,5 km/h (3 Bft)
31.01.2021 02:52 -1,6 C -1,1 C 95 % 1002,5 hPa 0,0 l/m 11,3 km/h (2 Bft) O-NO 67 0 min 0,0 UV-I 0 W/m -2,3 C -6,3 C 17,7 km/h (3 Bft)
31.01.2021 02:53 -1,7 C -1,1 C 95 % 1002,6 hPa 0,0 l/m 11,3 km/h (2 Bft) O-NO 67 0 min 0,0 UV-I 0 W/m -2,4 C -6,4 C 17,7 km/h (3 Bft)
31.01.2021 02:54 -1,6 C -1,1 C 95 % 1002,6 hPa 0,0 l/m 11,3 km/h (2 Bft) NO 45 0 min 0,0 UV-I 0 W/m -2,3 C -6,3 C 17,7 km/h (3 Bft)
31.01.2021 02:55 -1,7 C -1,1 C 95 % 1002,6 hPa 0,0 l/m 9,7 km/h (2 Bft) O-NO 67 0 min 0,0 UV-I 0 W/m -2,4 C -5,1 C 14,5 km/h (3 Bft)
31.01.2021 02:56 -1,7 C -1,1 C 95 % 1002,6 hPa 0,0 l/m 9,7 km/h (2 Bft) O-NO 67 0 min 0,0 UV-I 0 W/m -2,4 C -5,1 C 16,1 km/h (3 Bft)
31.01.2021 02:57 -1,7 C -1,1 C 95 % 1002,6 hPa 0,0 l/m 9,7 km/h (2 Bft) O-NO 67 0 min 0,0 UV-I 0 W/m -2,4 C -5,1 C 14,5 km/h (3 Bft)
31.01.2021 02:58 -1,7 C -1,1 C 95 % 1002,6 hPa 0,0 l/m 11,3 km/h (2 Bft) NO 45 0 min 0,0 UV-I 0 W/m -2,4 C -6,4 C 14,5 km/h (3 Bft)
31.01.2021 02:59 -1,7 C -0,6 C 95 % 1002,6 hPa 0,0 l/m 9,7 km/h (2 Bft) NO 45 0 min 0,0 UV-I 0 W/m -2,4 C -5,1 C 14,5 km/h (3 Bft)
31.01.2021 03:00 -1,7 C -0,6 C 95 % 1002,6 hPa 0,0 l/m 9,7 km/h (2 Bft) NO 45 0 min 0,0 UV-I 0 W/m -2,4 C -5,1 C 16,1 km/h (3 Bft)
31.01.2021 03:01 -1,7 C -0,6 C 95 % 1002,5 hPa 0,0 l/m 11,3 km/h (2 Bft) NO 45 0 min 0,0 UV-I 0 W/m -2,4 C -6,4 C 17,7 km/h (3 Bft)
31.01.2021 03:02 -1,7 C -1,1 C 95 % 1002,6 hPa 0,0 l/m 11,3 km/h (2 Bft) O-NO 67 0 min 0,0 UV-I 0 W/m -2,4 C -6,4 C 16,1 km/h (3 Bft)
31.01.2021 03:03 -1,7 C -0,6 C 95 % 1002,6 hPa 0,0 l/m 11,3 km/h (2 Bft) NO 45 0 min 0,0 UV-I 0 W/m -2,4 C -6,4 C 16,1 km/h (3 Bft)
31.01.2021 03:04 -1,7 C -0,6 C 95 % 1002,6 hPa 0,0 l/m 8,0 km/h (2 Bft) NO 45 0 min 0,0 UV-I 0 W/m -2,4 C -3,4 C 11,3 km/h (2 Bft)
31.01.2021 03:05 -1,7 C -0,6 C 95 % 1002,6 hPa 0,0 l/m 11,3 km/h (2 Bft) O-NO 67 0 min 0,0 UV-I 0 W/m -2,4 C -6,4 C 16,1 km/h (3 Bft)
31.01.2021 03:06 -1,7 C -0,6 C 95 % 1002,6 hPa 0,0 l/m 14,5 km/h (3 Bft) NO 45 0 min 0,0 UV-I 0 W/m -2,4 C -8,7 C 17,7 km/h (3 Bft)
31.01.2021 03:07 -1,7 C -0,6 C 95 % 1002,5 hPa 0,0 l/m 11,3 km/h (2 Bft) NO 45 0 min 0,0 UV-I 0 W/m -2,4 C -6,4 C 16,1 km/h (3 Bft)
31.01.2021 03:08 -1,7 C -1,1 C 95 % 1002,6 hPa 0,0 l/m 16,1 km/h (3 Bft) N-NO 22 0 min 0,0 UV-I 0 W/m -2,4 C -9,7 C 20,9 km/h (4 Bft)
31.01.2021 03:09 -1,7 C -0,6 C 95 % 1002,5 hPa 0,0 l/m 12,9 km/h (3 Bft) NO 45 0 min 0,0 UV-I 0 W/m -2,4 C -7,6 C 20,9 km/h (4 Bft)
31.01.2021 03:10 -1,7 C -0,6 C 95 % 1002,6 hPa 0,0 l/m 9,7 km/h (2 Bft) NO 45 0 min 0,0 UV-I 0 W/m -2,4 C -5,1 C 16,1 km/h (3 Bft)
31.01.2021 03:11 -1,7 C -0,6 C 95 % 1002,5 hPa 0,0 l/m 9,7 km/h (2 Bft) NO 45 0 min 0,0 UV-I 0 W/m -2,4 C -5,1 C 17,7 km/h (3 Bft)
31.01.2021 03:12 -1,7 C -0,6 C 95 % 1002,6 hPa 0,0 l/m 14,5 km/h (3 Bft) NO 45 0 min 0,0 UV-I 0 W/m -2,4 C -8,7 C 22,5 km/h (4 Bft)
31.01.2021 03:13 -1,7 C -0,6 C 95 % 1002,6 hPa 0,0 l/m 12,9 km/h (3 Bft) NO 45 0 min 0,0 UV-I 0 W/m -2,4 C -7,6 C 17,7 km/h (3 Bft)
31.01.2021 03:14 -1,7 C -0,6 C 95 % 1002,6 hPa 0,0 l/m 11,3 km/h (2 Bft) NO 45 0 min 0,0 UV-I 0 W/m -2,4 C -6,4 C 17,7 km/h (3 Bft)
31.01.2021 03:15 -1,7 C -0,6 C 95 % 1002,7 hPa 0,0 l/m 12,9 km/h (3 Bft) NO 45 0 min 0,0 UV-I 0 W/m -2,4 C -7,6 C 17,7 km/h (3 Bft)
31.01.2021 03:16 -1,7 C -0,6 C 95 % 1002,5 hPa 0,0 l/m 11,3 km/h (2 Bft) NO 45 0 min 0,0 UV-I 0 W/m -2,4 C -6,4 C 14,5 km/h (3 Bft)
31.01.2021 03:17 -1,7 C -0,6 C 95 % 1002,6 hPa 0,0 l/m 9,7 km/h (2 Bft) NO 45 0 min 0,0 UV-I 0 W/m -2,4 C -5,1 C 16,1 km/h (3 Bft)
31.01.2021 03:18 -1,7 C -0,6 C 95 % 1002,6 hPa 0,0 l/m 11,3 km/h (2 Bft) NO 45 0 min 0,0 UV-I 0 W/m -2,4 C -6,4 C 17,7 km/h (3 Bft)
31.01.2021 03:19 -1,7 C -0,6 C 95 % 1002,6 hPa 0,0 l/m 12,9 km/h (3 Bft) NO 45 0 min 0,0 UV-I 0 W/m -2,4 C -7,6 C 16,1 km/h (3 Bft)
31.01.2021 03:20 -1,7 C -0,6 C 95 % 1002,6 hPa 0,0 l/m 12,9 km/h (3 Bft) NO 45 0 min 0,0 UV-I 0 W/m -2,4 C -7,6 C 17,7 km/h (3 Bft)
31.01.2021 03:21 -1,7 C -0,6 C 95 % 1002,6 hPa 0,0 l/m 16,1 km/h (3 Bft) NO 45 0 min 0,0 UV-I 0 W/m -2,4 C -9,7 C 20,9 km/h (4 Bft)
31.01.2021 03:22 -1,7 C -0,6 C 95 % 1002,6 hPa 0,0 l/m 16,1 km/h (3 Bft) NO 45 0 min 0,0 UV-I 0 W/m -2,4 C -9,7 C 20,9 km/h (4 Bft)
31.01.2021 03:23 -1,7 C -0,6 C 95 % 1002,6 hPa 0,0 l/m 12,9 km/h (3 Bft) NO 45 0 min 0,0 UV-I 0 W/m -2,4 C -7,6 C 17,7 km/h (3 Bft)
31.01.2021 03:24 -1,7 C -0,6 C 95 % 1002,5 hPa 0,0 l/m 11,3 km/h (2 Bft) NO 45 0 min 0,0 UV-I 0 W/m -2,4 C -6,4 C 16,1 km/h (3 Bft)
31.01.2021 03:25 -1,7 C -0,6 C 95 % 1002,5 hPa 0,0 l/m 11,3 km/h (2 Bft) NO 45 0 min 0,0 UV-I 0 W/m -2,4 C -6,4 C 16,1 km/h (3 Bft)
31.01.2021 03:26 -1,7 C -0,6 C 95 % 1002,6 hPa 0,0 l/m 12,9 km/h (3 Bft) O-NO 67 0 min 0,0 UV-I 0 W/m -2,4 C -7,6 C 16,1 km/h (3 Bft)
31.01.2021 03:27 -1,7 C -1,1 C 95 % 1002,5 hPa 0,0 l/m 12,9 km/h (3 Bft) NO 45 0 min 0,0 UV-I 0 W/m -2,4 C -7,6 C 19,3 km/h (3 Bft)
31.01.2021 03:28 -1,7 C -1,1 C 95 % 1002,5 hPa 0,0 l/m 16,1 km/h (3 Bft) NO 45 0 min 0,0 UV-I 0 W/m -2,4 C -9,7 C 25,7 km/h (4 Bft)
31.01.2021 03:29 -1,7 C -0,6 C 95 % 1002,5 hPa 0,0 l/m 19,3 km/h (3 Bft) NO 45 0 min 0,0 UV-I 0 W/m -2,4 C -11,5 C 24,1 km/h (4 Bft)
31.01.2021 03:30 -1,7 C -0,6 C 95 % 1002,6 hPa 0,0 l/m 14,5 km/h (3 Bft) NO 45 0 min 0,0 UV-I 0 W/m -2,4 C -8,7 C 22,5 km/h (4 Bft)
31.01.2021 03:31 -1,8 C -0,6 C 95 % 1002,6 hPa 0,0 l/m 12,9 km/h (3 Bft) NO 45 0 min 0,0 UV-I 0 W/m -2,5 C -7,7 C 16,1 km/h (3 Bft)
31.01.2021 03:32 -1,7 C -0,6 C 95 % 1002,6 hPa 0,0 l/m 12,9 km/h (3 Bft) N-NO 22 0 min 0,0 UV-I 0 W/m -2,4 C -7,6 C 22,5 km/h (4 Bft)
31.01.2021 03:33 -1,7 C -0,6 C 95 % 1002,5 hPa 0,0 l/m 12,9 km/h (3 Bft) NO 45 0 min 0,0 UV-I 0 W/m -2,4 C -7,6 C 17,7 km/h (3 Bft)
31.01.2021 03:34 -1,8 C -0,6 C 95 % 1002,6 hPa 0,0 l/m 14,5 km/h (3 Bft) NO 45 0 min 0,0 UV-I 0 W/m -2,5 C -8,8 C 20,9 km/h (4 Bft)
31.01.2021 03:35 -1,8 C -0,6 C 95 % 1002,6 hPa 0,0 l/m 14,5 km/h (3 Bft) NO 45 0 min 0,0 UV-I 0 W/m -2,5 C -8,8 C 19,3 km/h (3 Bft)
31.01.2021 03:36 -1,8 C -0,6 C 95 % 1002,6 hPa 0,0 l/m 14,5 km/h (3 Bft) NO 45 0 min 0,0 UV-I 0 W/m -2,5 C -8,8 C 20,9 km/h (4 Bft)
31.01.2021 03:37 -1,8 C -1,1 C 95 % 1002,6 hPa 0,0 l/m 14,5 km/h (3 Bft) NO 45 0 min 0,0 UV-I 0 W/m -2,5 C -8,8 C 20,9 km/h (4 Bft)
31.01.2021 03:38 -1,8 C -0,6 C 95 % 1002,6 hPa 0,0 l/m 14,5 km/h (3 Bft) NO 45 0 min 0,0 UV-I 0 W/m -2,5 C -8,8 C 19,3 km/h (3 Bft)
31.01.2021 03:39 -1,8 C -0,6 C 95 % 1002,6 hPa 0,0 l/m 16,1 km/h (3 Bft) O-NO 67 0 min 0,0 UV-I 0 W/m -2,5 C -9,8 C 19,3 km/h (3 Bft)
31.01.2021 03:40 -1,8 C -1,1 C 95 % 1002,6 hPa 0,0 l/m 14,5 km/h (3 Bft) O-NO 67 0 min 0,0 UV-I 0 W/m -2,5 C -8,8 C 19,3 km/h (3 Bft)
31.01.2021 03:41 -1,8 C -1,1 C 95 % 1002,6 hPa 0,0 l/m 14,5 km/h (3 Bft) O-NO 67 0 min 0,0 UV-I 0 W/m -2,5 C -8,8 C 19,3 km/h (3 Bft)
31.01.2021 03:42 -1,8 C -1,1 C 95 % 1002,6 hPa 0,0 l/m 11,3 km/h (2 Bft) NO 45 0 min 0,0 UV-I 0 W/m -2,5 C -6,5 C 17,7 km/h (3 Bft)
31.01.2021 03:43 -1,8 C -1,1 C 95 % 1002,6 hPa 0,0 l/m 8,0 km/h (2 Bft) NO 45 0 min 0,0 UV-I 0 W/m -2,5 C -3,5 C 11,3 km/h (2 Bft)
31.01.2021 03:44 -1,8 C -1,1 C 95 % 1002,6 hPa 0,0 l/m 9,7 km/h (2 Bft) NO 45 0 min 0,0 UV-I 0 W/m -2,5 C -5,2 C 12,9 km/h (3 Bft)
31.01.2021 03:45 -1,8 C -1,1 C 95 % 1002,5 hPa 0,0 l/m 11,3 km/h (2 Bft) NO 45 0 min 0,0 UV-I 0 W/m -2,5 C -6,5 C 14,5 km/h (3 Bft)
31.01.2021 03:46 -1,8 C -1,1 C 95 % 1002,5 hPa 0,0 l/m 12,9 km/h (3 Bft) NO 45 0 min 0,0 UV-I 0 W/m -2,5 C -7,7 C 17,7 km/h (3 Bft)
31.01.2021 03:47 -1,8 C -1,1 C 95 % 1002,5 hPa 0,0 l/m 16,1 km/h (3 Bft) O-NO 67 0 min 0,0 UV-I 0 W/m -2,5 C -9,8 C 20,9 km/h (4 Bft)
31.01.2021 03:48 -1,8 C -1,1 C 95 % 1002,6 hPa 0,0 l/m 12,9 km/h (3 Bft) NO 45 0 min 0,0 UV-I 0 W/m -2,5 C -7,7 C 16,1 km/h (3 Bft)
31.01.2021 03:49 -1,8 C -1,1 C 95 % 1002,7 hPa 0,0 l/m 11,3 km/h (2 Bft) NO 45 0 min 0,0 UV-I 0 W/m -2,5 C -6,5 C 16,1 km/h (3 Bft)
31.01.2021 03:50 -1,8 C -1,1 C 95 % 1002,6 hPa 0,0 l/m 8,0 km/h (2 Bft) NO 45 0 min 0,0 UV-I 0 W/m -2,5 C -3,5 C 9,7 km/h (2 Bft)
31.01.2021 03:51 -1,8 C -1,1 C 95 % 1002,6 hPa 0,0 l/m 11,3 km/h (2 Bft) O-NO 67 0 min 0,0 UV-I 0 W/m -2,5 C -6,5 C 16,1 km/h (3 Bft)
31.01.2021 03:52 -1,8 C -1,1 C 95 % 1002,6 hPa 0,0 l/m 12,9 km/h (3 Bft) O-NO 67 0 min 0,0 UV-I 0 W/m -2,5 C -7,7 C 17,7 km/h (3 Bft)
31.01.2021 03:53 -1,8 C -1,1 C 95 % 1002,7 hPa 0,0 l/m 8,0 km/h (2 Bft) NO 45 0 min 0,0 UV-I 0 W/m -2,5 C -3,5 C 14,5 km/h (3 Bft)
31.01.2021 03:54 -1,8 C -1,1 C 95 % 1002,6 hPa 0,0 l/m 6,4 km/h (2 Bft) NO 45 0 min 0,0 UV-I 0 W/m -2,5 C -1,8 C 9,7 km/h (2 Bft)
31.01.2021 03:55 -1,8 C -1,1 C 95 % 1002,7 hPa 0,0 l/m 8,0 km/h (2 Bft) NO 45 0 min 0,0 UV-I 0 W/m -2,5 C -3,5 C 11,3 km/h (2 Bft)
31.01.2021 03:56 -1,8 C -1,1 C 95 % 1002,7 hPa 0,0 l/m 9,7 km/h (2 Bft) NO 45 0 min 0,0 UV-I 0 W/m -2,5 C -5,2 C 14,5 km/h (3 Bft)
31.01.2021 03:57 -1,8 C -1,1 C 95 % 1002,7 hPa 0,0 l/m 11,3 km/h (2 Bft) O-NO 67 0 min 0,0 UV-I 0 W/m -2,5 C -6,5 C 19,3 km/h (3 Bft)
31.01.2021 03:58 -1,8 C -1,1 C 95 % 1002,7 hPa 0,0 l/m 11,3 km/h (2 Bft) O-NO 67 0 min 0,0 UV-I 0 W/m -2,5 C -6,5 C 16,1 km/h (3 Bft)
31.01.2021 03:59 -1,8 C -1,1 C 95 % 1002,6 hPa 0,0 l/m 6,4 km/h (2 Bft) O-NO 67 0 min 0,0 UV-I 0 W/m -2,5 C -1,8 C 9,7 km/h (2 Bft)
31.01.2021 04:00 -1,8 C -1,1 C 95 % 1002,6 hPa 0,0 l/m 11,3 km/h (2 Bft) O-NO 67 0 min 0,0 UV-I 0 W/m -2,5 C -6,5 C 17,7 km/h (3 Bft)
31.01.2021 04:01 -1,8 C -1,1 C 95 % 1002,6 hPa 0,0 l/m 11,3 km/h (2 Bft) O-NO 67 0 min 0,0 UV-I 0 W/m -2,5 C -6,5 C 16,1 km/h (3 Bft)
31.01.2021 04:02 -1,8 C -1,1 C 95 % 1002,6 hPa 0,0 l/m 11,3 km/h (2 Bft) O-NO 67 0 min 0,0 UV-I 0 W/m -2,5 C -6,5 C 16,1 km/h (3 Bft)
31.01.2021 04:03 -1,8 C -1,1 C 95 % 1002,5 hPa 0,0 l/m 8,0 km/h (2 Bft) O-NO 67 0 min 0,0 UV-I 0 W/m -2,5 C -3,5 C 12,9 km/h (3 Bft)
31.01.2021 04:04 -1,8 C -1,1 C 95 % 1002,6 hPa 0,0 l/m 9,7 km/h (2 Bft) O-NO 67 0 min 0,0 UV-I 0 W/m -2,5 C -5,2 C 14,5 km/h (3 Bft)
31.01.2021 04:05 -1,8 C -1,1 C 95 % 1002,6 hPa 0,0 l/m 9,7 km/h (2 Bft) O-NO 67 0 min 0,0 UV-I 0 W/m -2,5 C -5,2 C 14,5 km/h (3 Bft)
31.01.2021 04:06 -1,8 C -1,1 C 95 % 1002,5 hPa 0,0 l/m 8,0 km/h (2 Bft) O-NO 67 0 min 0,0 UV-I 0 W/m -2,5 C -3,5 C 14,5 km/h (3 Bft)
31.01.2021 04:07 -1,8 C -1,1 C 95 % 1002,6 hPa 0,0 l/m 8,0 km/h (2 Bft) O-NO 67 0 min 0,0 UV-I 0 W/m -2,5 C -3,5 C 14,5 km/h (3 Bft)
31.01.2021 04:08 -1,8 C -1,1 C 95 % 1002,5 hPa 0,0 l/m 9,7 km/h (2 Bft) NO 45 0 min 0,0 UV-I 0 W/m -2,5 C -5,2 C 17,7 km/h (3 Bft)
31.01.2021 04:09 -1,8 C -1,1 C 95 % 1002,5 hPa 0,0 l/m 11,3 km/h (2 Bft) O-NO 67 0 min 0,0 UV-I 0 W/m -2,5 C -6,5 C 19,3 km/h (3 Bft)
31.01.2021 04:10 -1,8 C -1,1 C 95 % 1002,6 hPa 0,0 l/m 9,7 km/h (2 Bft) O-NO 67 0 min 0,0 UV-I 0 W/m -2,5 C -5,2 C 14,5 km/h (3 Bft)
31.01.2021 04:11 -1,8 C -1,1 C 95 % 1002,5 hPa 0,0 l/m 4,8 km/h (1 Bft) NO 45 0 min 0,0 UV-I 0 W/m -2,5 C -1,8 C 8,0 km/h (2 Bft)
31.01.2021 04:12 -1,8 C -1,1 C 95 % 1002,6 hPa 0,0 l/m 6,4 km/h (2 Bft) NO 45 0 min 0,0 UV-I 0 W/m -2,5 C -1,8 C 14,5 km/h (3 Bft)
31.01.2021 04:13 -1,8 C -1,1 C 95 % 1002,6 hPa 0,0 l/m 8,0 km/h (2 Bft) O-NO 67 0 min 0,0 UV-I 0 W/m -2,5 C -3,5 C 14,5 km/h (3 Bft)
31.01.2021 04:14 -1,8 C -1,1 C 95 % 1002,6 hPa 0,0 l/m 8,0 km/h (2 Bft) O-NO 67 0 min 0,0 UV-I 0 W/m -2,5 C -3,5 C 11,3 km/h (2 Bft)
31.01.2021 04:15 -1,8 C -1,1 C 95 % 1002,6 hPa 0,0 l/m 8,0 km/h (2 Bft) NO 45 0 min 0,0 UV-I 0 W/m -2,5 C -3,5 C 9,7 km/h (2 Bft)
31.01.2021 04:16 -1,8 C -1,1 C 95 % 1002,6 hPa 0,0 l/m 6,4 km/h (2 Bft) NO 45 0 min 0,0 UV-I 0 W/m -2,5 C -1,8 C 8,0 km/h (2 Bft)
31.01.2021 04:17 -1,8 C -1,1 C 95 % 1002,6 hPa 0,0 l/m 11,3 km/h (2 Bft) NO 45 0 min 0,0 UV-I 0 W/m -2,5 C -6,5 C 16,1 km/h (3 Bft)
31.01.2021 04:18 -1,8 C -1,1 C 95 % 1002,6 hPa 0,0 l/m 8,0 km/h (2 Bft) NO 45 0 min 0,0 UV-I 0 W/m -2,5 C -3,5 C 11,3 km/h (2 Bft)
31.01.2021 04:19 -1,8 C -1,1 C 95 % 1002,6 hPa 0,0 l/m 6,4 km/h (2 Bft) O-NO 67 0 min 0,0 UV-I 0 W/m -2,5 C -1,8 C 11,3 km/h (2 Bft)
31.01.2021 04:20 -1,8 C -1,1 C 95 % 1002,6 hPa 0,0 l/m 9,7 km/h (2 Bft) NO 45 0 min 0,0 UV-I 0 W/m -2,5 C -5,2 C 14,5 km/h (3 Bft)
31.01.2021 04:21 -1,8 C -1,1 C 95 % 1002,6 hPa 0,0 l/m 11,3 km/h (2 Bft) NO 45 0 min 0,0 UV-I 0 W/m -2,5 C -6,5 C 16,1 km/h (3 Bft)
31.01.2021 04:22 -1,8 C -1,1 C 95 % 1002,6 hPa 0,0 l/m 9,7 km/h (2 Bft) NO 45 0 min 0,0 UV-I 0 W/m -2,5 C -5,2 C 14,5 km/h (3 Bft)
31.01.2021 04:23 -1,8 C -1,1 C 95 % 1002,6 hPa 0,0 l/m 11,3 km/h (2 Bft) NO 45 0 min 0,0 UV-I 0 W/m -2,5 C -6,5 C 17,7 km/h (3 Bft)
31.01.2021 04:24 -1,8 C -1,1 C 95 % 1002,6 hPa 0,0 l/m 12,9 km/h (3 Bft) NO 45 0 min 0,0 UV-I 0 W/m -2,5 C -7,7 C 17,7 km/h (3 Bft)
31.01.2021 04:25 -1,8 C -1,1 C 95 % 1002,7 hPa 0,0 l/m 12,9 km/h (3 Bft) NO 45 0 min 0,0 UV-I 0 W/m -2,5 C -7,7 C 19,3 km/h (3 Bft)
31.01.2021 04:26 -1,8 C -1,1 C 95 % 1002,6 hPa 0,0 l/m 12,9 km/h (3 Bft) NO 45 0 min 0,0 UV-I 0 W/m -2,5 C -7,7 C 16,1 km/h (3 Bft)
31.01.2021 04:27 -1,8 C -1,1 C 95 % 1002,7 hPa 0,0 l/m 11,3 km/h (2 Bft) NO 45 0 min 0,0 UV-I 0 W/m -2,5 C -6,5 C 16,1 km/h (3 Bft)
31.01.2021 04:28 -1,9 C -1,1 C 95 % 1002,6 hPa 0,0 l/m 16,1 km/h (3 Bft) NO 45 0 min 0,0 UV-I 0 W/m -2,6 C -10,0 C 22,5 km/h (4 Bft)
31.01.2021 04:29 -1,9 C -1,1 C 95 % 1002,6 hPa 0,0 l/m 11,3 km/h (2 Bft) NO 45 0 min 0,0 UV-I 0 W/m -2,6 C -6,6 C 17,7 km/h (3 Bft)
31.01.2021 04:30 -1,8 C -1,1 C 95 % 1002,6 hPa 0,0 l/m 12,9 km/h (3 Bft) NO 45 0 min 0,0 UV-I 0 W/m -2,5 C -7,7 C 19,3 km/h (3 Bft)
31.01.2021 04:31 -1,9 C -1,1 C 95 % 1002,7 hPa 0,0 l/m 14,5 km/h (3 Bft) NO 45 0 min 0,0 UV-I 0 W/m -2,6 C -9,0 C 17,7 km/h (3 Bft)
31.01.2021 04:32 -1,9 C -1,1 C 95 % 1002,7 hPa 0,0 l/m 9,7 km/h (2 Bft) NO 45 0 min 0,0 UV-I 0 W/m -2,6 C -5,3 C 12,9 km/h (3 Bft)
31.01.2021 04:33 -1,9 C -1,1 C 95 % 1002,6 hPa 0,0 l/m 14,5 km/h (3 Bft) NO 45 0 min 0,0 UV-I 0 W/m -2,6 C -9,0 C 19,3 km/h (3 Bft)
31.01.2021 04:34 -1,9 C -1,1 C 95 % 1002,7 hPa 0,0 l/m 12,9 km/h (3 Bft) NO 45 0 min 0,0 UV-I 0 W/m -2,6 C -7,9 C 17,7 km/h (3 Bft)
31.01.2021 04:35 -1,9 C -1,1 C 95 % 1002,7 hPa 0,0 l/m 9,7 km/h (2 Bft) NO 45 0 min 0,0 UV-I 0 W/m -2,6 C -5,3 C 16,1 km/h (3 Bft)
31.01.2021 04:36 -1,9 C -1,1 C 95 % 1002,8 hPa 0,0 l/m 14,5 km/h (3 Bft) NO 45 0 min 0,0 UV-I 0 W/m -2,6 C -9,0 C 19,3 km/h (3 Bft)
31.01.2021 04:37 -1,9 C -1,1 C 95 % 1002,7 hPa 0,0 l/m 12,9 km/h (3 Bft) O-NO 67 0 min 0,0 UV-I 0 W/m -2,6 C -7,9 C 17,7 km/h (3 Bft)
31.01.2021 04:38 -1,9 C -1,1 C 95 % 1002,7 hPa 0,0 l/m 12,9 km/h (3 Bft) NO 45 0 min 0,0 UV-I 0 W/m -2,6 C -7,9 C 17,7 km/h (3 Bft)
31.01.2021 04:39 -1,9 C -1,1 C 95 % 1002,8 hPa 0,0 l/m 14,5 km/h (3 Bft) O-NO 67 0 min 0,0 UV-I 0 W/m -2,6 C -9,0 C 20,9 km/h (4 Bft)
31.01.2021 04:40 -1,9 C -1,1 C 95 % 1002,7 hPa 0,0 l/m 12,9 km/h (3 Bft) O-NO 67 0 min 0,0 UV-I 0 W/m -2,6 C -7,9 C 17,7 km/h (3 Bft)
31.01.2021 04:41 -1,9 C -1,1 C 95 % 1002,8 hPa 0,0 l/m 12,9 km/h (3 Bft) NO 45 0 min 0,0 UV-I 0 W/m -2,6 C -7,9 C 16,1 km/h (3 Bft)
31.01.2021 04:42 -1,9 C -1,1 C 95 % 1002,8 hPa 0,0 l/m 14,5 km/h (3 Bft) NO 45 0 min 0,0 UV-I 0 W/m -2,6 C -9,0 C 17,7 km/h (3 Bft)
31.01.2021 04:43 -1,9 C -1,1 C 95 % 1002,8 hPa 0,0 l/m 12,9 km/h (3 Bft) NO 45 0 min 0,0 UV-I 0 W/m -2,6 C -7,9 C 17,7 km/h (3 Bft)
31.01.2021 04:44 -1,9 C -1,1 C 95 % 1002,8 hPa 0,0 l/m 14,5 km/h (3 Bft) NO 45 0 min 0,0 UV-I 0 W/m -2,6 C -9,0 C 17,7 km/h (3 Bft)
31.01.2021 04:45 -1,9 C -1,1 C 95 % 1002,8 hPa 0,0 l/m 12,9 km/h (3 Bft) NO 45 0 min 0,0 UV-I 0 W/m -2,6 C -7,9 C 19,3 km/h (3 Bft)
31.01.2021 04:46 -1,9 C -1,1 C 95 % 1002,9 hPa 0,0 l/m 11,3 km/h (2 Bft) O-NO 67 0 min 0,0 UV-I 0 W/m -2,6 C -6,6 C 16,1 km/h (3 Bft)
31.01.2021 04:47 -1,9 C -1,1 C 95 % 1002,8 hPa 0,0 l/m 6,4 km/h (2 Bft) NO 45 0 min 0,0 UV-I 0 W/m -2,6 C -1,9 C 12,9 km/h (3 Bft)
31.01.2021 04:48 -1,9 C -1,1 C 95 % 1002,9 hPa 0,0 l/m 9,7 km/h (2 Bft) NO 45 0 min 0,0 UV-I 0 W/m -2,6 C -5,3 C 14,5 km/h (3 Bft)
31.01.2021 04:49 -1,9 C -1,1 C 95 % 1002,9 hPa 0,0 l/m 11,3 km/h (2 Bft) NO 45 0 min 0,0 UV-I 0 W/m -2,6 C -6,6 C 17,7 km/h (3 Bft)
31.01.2021 04:50 -1,9 C -1,1 C 95 % 1002,8 hPa 0,0 l/m 11,3 km/h (2 Bft) O-NO 67 0 min 0,0 UV-I 0 W/m -2,6 C -6,6 C 17,7 km/h (3 Bft)
31.01.2021 04:51 -1,9 C -1,1 C 95 % 1002,8 hPa 0,0 l/m 12,9 km/h (3 Bft) NO 45 0 min 0,0 UV-I 0 W/m -2,6 C -7,9 C 16,1 km/h (3 Bft)
31.01.2021 04:52 -1,9 C -1,1 C 95 % 1002,9 hPa 0,0 l/m 14,5 km/h (3 Bft) NO 45 0 min 0,0 UV-I 0 W/m -2,6 C -9,0 C 19,3 km/h (3 Bft)
31.01.2021 04:53 -1,9 C -1,1 C 95 % 1002,9 hPa 0,0 l/m 14,5 km/h (3 Bft) O-NO 67 0 min 0,0 UV-I 0 W/m -2,6 C -9,0 C 19,3 km/h (3 Bft)
31.01.2021 04:54 -1,9 C -1,1 C 95 % 1002,9 hPa 0,0 l/m 9,7 km/h (2 Bft) O-NO 67 0 min 0,0 UV-I 0 W/m -2,6 C -5,3 C 16,1 km/h (3 Bft)
31.01.2021 04:55 -2,0 C -1,1 C 95 % 1002,9 hPa 0,0 l/m 8,0 km/h (2 Bft) NO 45 0 min 0,0 UV-I 0 W/m -2,7 C -3,7 C 9,7 km/h (2 Bft)
31.01.2021 04:56 -1,9 C -1,1 C 95 % 1003,0 hPa 0,0 l/m 11,3 km/h (2 Bft) NO 45 0 min 0,0 UV-I 0 W/m -2,6 C -6,6 C 17,7 km/h (3 Bft)
31.01.2021 04:57 -1,9 C -1,1 C 95 % 1002,9 hPa 0,0 l/m 12,9 km/h (3 Bft) NO 45 0 min 0,0 UV-I 0 W/m -2,6 C -7,9 C 16,1 km/h (3 Bft)
31.01.2021 04:58 -2,0 C -1,1 C 95 % 1003,0 hPa 0,0 l/m 12,9 km/h (3 Bft) NO 45 0 min 0,0 UV-I 0 W/m -2,7 C -8,0 C 17,7 km/h (3 Bft)
31.01.2021 04:59 -1,9 C -1,1 C 95 % 1003,0 hPa 0,0 l/m 14,5 km/h (3 Bft) NO 45 0 min 0,0 UV-I 0 W/m -2,6 C -9,0 C 19,3 km/h (3 Bft)
31.01.2021 05:00 -1,9 C -1,1 C 95 % 1003,0 hPa 0,0 l/m 14,5 km/h (3 Bft) NO 45 0 min 0,0 UV-I 0 W/m -2,6 C -9,0 C 20,9 km/h (4 Bft)
31.01.2021 05:01 -2,0 C -1,1 C 95 % 1003,0 hPa 0,0 l/m 14,5 km/h (3 Bft) NO 45 0 min 0,0 UV-I 0 W/m -2,7 C -9,1 C 19,3 km/h (3 Bft)
31.01.2021 05:02 -1,9 C -1,1 C 95 % 1002,9 hPa 0,0 l/m 14,5 km/h (3 Bft) O-NO 67 0 min 0,0 UV-I 0 W/m -2,6 C -9,0 C 19,3 km/h (3 Bft)
31.01.2021 05:03 -2,0 C -1,1 C 95 % 1003,0 hPa 0,0 l/m 14,5 km/h (3 Bft) NO 45 0 min 0,0 UV-I 0 W/m -2,7 C -9,1 C 19,3 km/h (3 Bft)
31.01.2021 05:04 -2,0 C -1,1 C 95 % 1003,0 hPa 0,0 l/m 14,5 km/h (3 Bft) NO 45 0 min 0,0 UV-I 0 W/m -2,7 C -9,1 C 20,9 km/h (4 Bft)
31.01.2021 05:05 -2,0 C -1,1 C 95 % 1002,9 hPa 0,0 l/m 16,1 km/h (3 Bft) O-NO 67 0 min 0,0 UV-I 0 W/m -2,7 C -10,1 C 20,9 km/h (4 Bft)
31.01.2021 05:06 -2,0 C -1,1 C 95 % 1003,0 hPa 0,0 l/m 9,7 km/h (2 Bft) O-NO 67 0 min 0,0 UV-I 0 W/m -2,7 C -5,4 C 17,7 km/h (3 Bft)
31.01.2021 05:07 -2,0 C -1,1 C 95 % 1003,0 hPa 0,0 l/m 12,9 km/h (3 Bft) NO 45 0 min 0,0 UV-I 0 W/m -2,7 C -8,0 C 19,3 km/h (3 Bft)
31.01.2021 05:08 -2,0 C -1,1 C 95 % 1003,0 hPa 0,0 l/m 16,1 km/h (3 Bft) N-NO 22 0 min 0,0 UV-I 0 W/m -2,7 C -10,1 C 20,9 km/h (4 Bft)
31.01.2021 05:09 -2,0 C -1,1 C 95 % 1003,0 hPa 0,0 l/m 16,1 km/h (3 Bft) NO 45 0 min 0,0 UV-I 0 W/m -2,7 C -10,1 C 20,9 km/h (4 Bft)
31.01.2021 05:10 -2,1 C -1,1 C 95 % 1002,9 hPa 0,0 l/m 19,3 km/h (3 Bft) NO 45 0 min 0,0 UV-I 0 W/m -2,8 C -12,0 C 25,7 km/h (4 Bft)
31.01.2021 05:11 -2,1 C -1,1 C 95 % 1003,1 hPa 0,0 l/m 12,9 km/h (3 Bft) NO 45 0 min 0,0 UV-I 0 W/m -2,8 C -8,1 C 17,7 km/h (3 Bft)
31.01.2021 05:12 -2,1 C -1,1 C 95 % 1003,1 hPa 0,0 l/m 12,9 km/h (3 Bft) NO 45 0 min 0,0 UV-I 0 W/m -2,8 C -8,1 C 19,3 km/h (3 Bft)
31.01.2021 05:13 -2,1 C -1,1 C 95 % 1003,1 hPa 0,0 l/m 14,5 km/h (3 Bft) NO 45 0 min 0,0 UV-I 0 W/m -2,8 C -9,2 C 19,3 km/h (3 Bft)
31.01.2021 05:14 -2,1 C -1,1 C 95 % 1003,1 hPa 0,0 l/m 9,7 km/h (2 Bft) NO 45 0 min 0,0 UV-I 0 W/m -2,8 C -5,5 C 16,1 km/h (3 Bft)
31.01.2021 05:15 -2,1 C -1,1 C 95 % 1003,0 hPa 0,0 l/m 9,7 km/h (2 Bft) O-NO 67 0 min 0,0 UV-I 0 W/m -2,8 C -5,5 C 14,5 km/h (3 Bft)
31.01.2021 05:16 -2,1 C -1,1 C 95 % 1003,1 hPa 0,0 l/m 14,5 km/h (3 Bft) NO 45 0 min 0,0 UV-I 0 W/m -2,8 C -9,2 C 22,5 km/h (4 Bft)
31.01.2021 05:17 -2,1 C -1,1 C 95 % 1003,1 hPa 0,0 l/m 14,5 km/h (3 Bft) NO 45 0 min 0,0 UV-I 0 W/m -2,8 C -9,2 C 20,9 km/h (4 Bft)
31.01.2021 05:18 -2,1 C -1,1 C 95 % 1003,1 hPa 0,0 l/m 14,5 km/h (3 Bft) NO 45 0 min 0,0 UV-I 0 W/m -2,8 C -9,2 C 17,7 km/h (3 Bft)
31.01.2021 05:19 -2,1 C -1,1 C 95 % 1003,0 hPa 0,0 l/m 14,5 km/h (3 Bft) NO 45 0 min 0,0 UV-I 0 W/m -2,8 C -9,2 C 19,3 km/h (3 Bft)
31.01.2021 05:20 -2,1 C -1,1 C 95 % 1003,1 hPa 0,0 l/m 12,9 km/h (3 Bft) NO 45 0 min 0,0 UV-I 0 W/m -2,8 C -8,1 C 19,3 km/h (3 Bft)
31.01.2021 05:21 -2,1 C -1,1 C 95 % 1003,0 hPa 0,0 l/m 16,1 km/h (3 Bft) NO 45 0 min 0,0 UV-I 0 W/m -2,8 C -10,2 C 19,3 km/h (3 Bft)
31.01.2021 05:22 -2,1 C -1,1 C 95 % 1003,0 hPa 0,0 l/m 17,7 km/h (3 Bft) O-NO 67 0 min 0,0 UV-I 0 W/m -2,8 C -11,1 C 20,9 km/h (4 Bft)
31.01.2021 05:23 -2,1 C -1,1 C 95 % 1003,0 hPa 0,0 l/m 14,5 km/h (3 Bft) NO 45 0 min 0,0 UV-I 0 W/m -2,8 C -9,2 C 19,3 km/h (3 Bft)
31.01.2021 05:24 -2,1 C -1,1 C 95 % 1003,0 hPa 0,0 l/m 12,9 km/h (3 Bft) O-NO 67 0 min 0,0 UV-I 0 W/m -2,8 C -8,1 C 20,9 km/h (4 Bft)
31.01.2021 05:25 -2,1 C -1,1 C 95 % 1003,0 hPa 0,0 l/m 16,1 km/h (3 Bft) O-NO 67 0 min 0,0 UV-I 0 W/m -2,8 C -10,2 C 19,3 km/h (3 Bft)
31.01.2021 05:26 -2,2 C -1,1 C 95 % 1003,0 hPa 0,0 l/m 14,5 km/h (3 Bft) NO 45 0 min 0,0 UV-I 0 W/m -2,9 C -9,3 C 20,9 km/h (4 Bft)
31.01.2021 05:27 -2,2 C -1,1 C 95 % 1003,0 hPa 0,0 l/m 12,9 km/h (3 Bft) NO 45 0 min 0,0 UV-I 0 W/m -2,9 C -8,2 C 17,7 km/h (3 Bft)
31.01.2021 05:28 -2,1 C -1,1 C 95 % 1003,0 hPa 0,0 l/m 11,3 km/h (2 Bft) NO 45 0 min 0,0 UV-I 0 W/m -2,8 C -6,9 C 16,1 km/h (3 Bft)
31.01.2021 05:29 -2,2 C -1,1 C 95 % 1003,1 hPa 0,0 l/m 12,9 km/h (3 Bft) NO 45 0 min 0,0 UV-I 0 W/m -2,9 C -8,2 C 22,5 km/h (4 Bft)
31.01.2021 05:30 -2,2 C -1,1 C 95 % 1003,1 hPa 0,0 l/m 11,3 km/h (2 Bft) NO 45 0 min 0,0 UV-I 0 W/m -2,9 C -7,0 C 16,1 km/h (3 Bft)
31.01.2021 05:31 -2,1 C -1,1 C 95 % 1003,0 hPa 0,0 l/m 16,1 km/h (3 Bft) NO 45 0 min 0,0 UV-I 0 W/m -2,8 C -10,2 C 19,3 km/h (3 Bft)
31.01.2021 05:32 -2,2 C -1,1 C 95 % 1003,0 hPa 0,0 l/m 14,5 km/h (3 Bft) NO 45 0 min 0,0 UV-I 0 W/m -2,9 C -9,3 C 20,9 km/h (4 Bft)
31.01.2021 05:33 -2,2 C -1,1 C 95 % 1003,1 hPa 0,0 l/m 14,5 km/h (3 Bft) NO 45 0 min 0,0 UV-I 0 W/m -2,9 C -9,3 C 19,3 km/h (3 Bft)
31.01.2021 05:34 -2,2 C -1,1 C 95 % 1003,0 hPa 0,0 l/m 11,3 km/h (2 Bft) O-NO 67 0 min 0,0 UV-I 0 W/m -2,9 C -7,0 C 16,1 km/h (3 Bft)
31.01.2021 05:35 -2,2 C -1,1 C 95 % 1003,1 hPa 0,0 l/m 11,3 km/h (2 Bft) O-NO 67 0 min 0,0 UV-I 0 W/m -2,9 C -7,0 C 17,7 km/h (3 Bft)
31.01.2021 05:36 -2,2 C -1,1 C 95 % 1003,0 hPa 0,0 l/m 12,9 km/h (3 Bft) NO 45 0 min 0,0 UV-I 0 W/m -2,9 C -8,2 C 19,3 km/h (3 Bft)
31.01.2021 05:37 -2,2 C -1,1 C 95 % 1003,1 hPa 0,0 l/m 12,9 km/h (3 Bft) O-NO 67 0 min 0,0 UV-I 0 W/m -2,9 C -8,2 C 19,3 km/h (3 Bft)
31.01.2021 05:38 -2,2 C -1,1 C 95 % 1003,1 hPa 0,0 l/m 14,5 km/h (3 Bft) NO 45 0 min 0,0 UV-I 0 W/m -2,9 C -9,3 C 20,9 km/h (4 Bft)
31.01.2021 05:39 -2,2 C -1,1 C 95 % 1003,1 hPa 0,0 l/m 12,9 km/h (3 Bft) NO 45 0 min 0,0 UV-I 0 W/m -2,9 C -8,2 C 20,9 km/h (4 Bft)
31.01.2021 05:40 -2,2 C -1,1 C 95 % 1003,1 hPa 0,0 l/m 12,9 km/h (3 Bft) O-NO 67 0 min 0,0 UV-I 0 W/m -2,9 C -8,2 C 20,9 km/h (4 Bft)
31.01.2021 05:41 -2,2 C -1,1 C 95 % 1003,0 hPa 0,0 l/m 9,7 km/h (2 Bft) NO 45 0 min 0,0 UV-I 0 W/m -2,9 C -5,6 C 17,7 km/h (3 Bft)
31.01.2021 05:42 -2,2 C -1,1 C 95 % 1003,1 hPa 0,0 l/m 16,1 km/h (3 Bft) NO 45 0 min 0,0 UV-I 0 W/m -2,9 C -10,3 C 20,9 km/h (4 Bft)
31.01.2021 05:43 -2,2 C -1,1 C 95 % 1003,0 hPa 0,0 l/m 14,5 km/h (3 Bft) NO 45 0 min 0,0 UV-I 0 W/m -2,9 C -9,3 C 22,5 km/h (4 Bft)
31.01.2021 05:44 -2,2 C -1,1 C 95 % 1003,1 hPa 0,0 l/m 12,9 km/h (3 Bft) NO 45 0 min 0,0 UV-I 0 W/m -2,9 C -8,2 C 17,7 km/h (3 Bft)
31.01.2021 05:45 -2,2 C -1,1 C 95 % 1003,0 hPa 0,0 l/m 11,3 km/h (2 Bft) O-NO 67 0 min 0,0 UV-I 0 W/m -2,9 C -7,0 C 17,7 km/h (3 Bft)
31.01.2021 05:46 -2,2 C -1,1 C 95 % 1003,0 hPa 0,0 l/m 14,5 km/h (3 Bft) NO 45 0 min 0,0 UV-I 0 W/m -2,9 C -9,3 C 17,7 km/h (3 Bft)
31.01.2021 05:47 -2,2 C -1,1 C 95 % 1003,1 hPa 0,0 l/m 14,5 km/h (3 Bft) NO 45 0 min 0,0 UV-I 0 W/m -2,9 C -9,3 C 20,9 km/h (4 Bft)
31.01.2021 05:48 -2,2 C -1,1 C 95 % 1003,1 hPa 0,0 l/m 19,3 km/h (3 Bft) NO 45 0 min 0,0 UV-I 0 W/m -2,9 C -12,1 C 25,7 km/h (4 Bft)
31.01.2021 05:49 -2,2 C -1,1 C 95 % 1003,2 hPa 0,0 l/m 19,3 km/h (3 Bft) NO 45 0 min 0,0 UV-I 0 W/m -2,9 C -12,1 C 27,4 km/h (4 Bft)
31.01.2021 05:50 -2,2 C -1,1 C 95 % 1003,1 hPa 0,0 l/m 16,1 km/h (3 Bft) NO 45 0 min 0,0 UV-I 0 W/m -2,9 C -10,3 C 27,4 km/h (4 Bft)
31.01.2021 05:51 -2,2 C -1,1 C 95 % 1003,1 hPa 0,0 l/m 17,7 km/h (3 Bft) O-NO 67 0 min 0,0 UV-I 0 W/m -2,9 C -11,3 C 24,1 km/h (4 Bft)
31.01.2021 05:52 -2,2 C -1,1 C 95 % 1003,2 hPa 0,0 l/m 11,3 km/h (2 Bft) NO 45 0 min 0,0 UV-I 0 W/m -2,9 C -7,0 C 17,7 km/h (3 Bft)
31.01.2021 05:53 -2,2 C -1,1 C 95 % 1003,1 hPa 0,0 l/m 11,3 km/h (2 Bft) NO 45 0 min 0,0 UV-I 0 W/m -2,9 C -7,0 C 17,7 km/h (3 Bft)
31.01.2021 05:54 -2,2 C -1,1 C 95 % 1003,2 hPa 0,0 l/m 17,7 km/h (3 Bft) NO 45 0 min 0,0 UV-I 0 W/m -2,9 C -11,3 C 22,5 km/h (4 Bft)
31.01.2021 05:55 -2,2 C -1,1 C 95 % 1003,2 hPa 0,0 l/m 17,7 km/h (3 Bft) NO 45 0 min 0,0 UV-I 0 W/m -2,9 C -11,3 C 20,9 km/h (4 Bft)
31.01.2021 05:56 -2,2 C -1,1 C 95 % 1003,2 hPa 0,0 l/m 17,7 km/h (3 Bft) NO 45 0 min 0,0 UV-I 0 W/m -2,9 C -11,3 C 24,1 km/h (4 Bft)
31.01.2021 05:57 -2,3 C -1,1 C 95 % 1003,2 hPa 0,0 l/m 17,7 km/h (3 Bft) NO 45 0 min 0,0 UV-I 0 W/m -3,0 C -11,4 C 24,1 km/h (4 Bft)
31.01.2021 05:58 -2,2 C -1,1 C 95 % 1003,3 hPa 0,0 l/m 16,1 km/h (3 Bft) O-NO 67 0 min 0,0 UV-I 0 W/m -2,9 C -10,3 C 20,9 km/h (4 Bft)
31.01.2021 05:59 -2,3 C -1,1 C 95 % 1003,2 hPa 0,0 l/m 16,1 km/h (3 Bft) O-NO 67 0 min 0,0 UV-I 0 W/m -3,0 C -10,5 C 20,9 km/h (4 Bft)
31.01.2021 06:00 -2,3 C -1,1 C 95 % 1003,1 hPa 0,0 l/m 14,5 km/h (3 Bft) O-NO 67 0 min 0,0 UV-I 0 W/m -3,0 C -9,4 C 24,1 km/h (4 Bft)
31.01.2021 06:01 -2,3 C -1,1 C 95 % 1003,2 hPa 0,0 l/m 16,1 km/h (3 Bft) NO 45 0 min 0,0 UV-I 0 W/m -3,0 C -10,5 C 22,5 km/h (4 Bft)
31.01.2021 06:02 -2,2 C -1,1 C 95 % 1003,1 hPa 0,0 l/m 16,1 km/h (3 Bft) NO 45 0 min 0,0 UV-I 0 W/m -2,9 C -10,3 C 22,5 km/h (4 Bft)
31.01.2021 06:03 -2,3 C -1,1 C 95 % 1003,1 hPa 0,0 l/m 16,1 km/h (3 Bft) NO 45 0 min 0,0 UV-I 0 W/m -3,0 C -10,5 C 20,9 km/h (4 Bft)
31.01.2021 06:04 -2,3 C -1,1 C 95 % 1003,2 hPa 0,0 l/m 19,3 km/h (3 Bft) NO 45 0 min 0,0 UV-I 0 W/m -3,0 C -12,2 C 25,7 km/h (4 Bft)
31.01.2021 06:05 -2,2 C -1,1 C 95 % 1003,2 hPa 0,0 l/m 16,1 km/h (3 Bft) NO 45 0 min 0,0 UV-I 0 W/m -2,9 C -10,3 C 22,5 km/h (4 Bft)
31.01.2021 06:06 -2,3 C -1,1 C 95 % 1003,3 hPa 0,0 l/m 12,9 km/h (3 Bft) NO 45 0 min 0,0 UV-I 0 W/m -3,0 C -8,3 C 17,7 km/h (3 Bft)
31.01.2021 06:07 -2,3 C -1,1 C 95 % 1003,2 hPa 0,0 l/m 17,7 km/h (3 Bft) NO 45 0 min 0,0 UV-I 0 W/m -3,0 C -11,4 C 24,1 km/h (4 Bft)
31.01.2021 06:08 -2,3 C -1,1 C 95 % 1003,3 hPa 0,0 l/m 14,5 km/h (3 Bft) NO 45 0 min 0,0 UV-I 0 W/m -3,0 C -9,4 C 20,9 km/h (4 Bft)
31.01.2021 06:09 -2,3 C -1,1 C 95 % 1003,3 hPa 0,0 l/m 16,1 km/h (3 Bft) NO 45 0 min 0,0 UV-I 0 W/m -3,0 C -10,5 C 24,1 km/h (4 Bft)
31.01.2021 06:10 -2,3 C -1,1 C 95 % 1003,2 hPa 0,0 l/m 12,9 km/h (3 Bft) NO 45 0 min 0,0 UV-I 0 W/m -3,0 C -8,3 C 19,3 km/h (3 Bft)
31.01.2021 06:11 -2,3 C -1,1 C 95 % 1003,2 hPa 0,0 l/m 11,3 km/h (2 Bft) NO 45 0 min 0,0 UV-I 0 W/m -3,0 C -7,1 C 16,1 km/h (3 Bft)
31.01.2021 06:12 -2,3 C -1,1 C 95 % 1003,2 hPa 0,0 l/m 17,7 km/h (3 Bft) NO 45 0 min 0,0 UV-I 0 W/m -3,0 C -11,4 C 22,5 km/h (4 Bft)
31.01.2021 06:13 -2,3 C -1,1 C 95 % 1003,4 hPa 0,0 l/m 12,9 km/h (3 Bft) O-NO 67 0 min 0,0 UV-I 0 W/m -3,0 C -8,3 C 19,3 km/h (3 Bft)
31.01.2021 06:14 -2,3 C -1,1 C 95 % 1003,2 hPa 0,0 l/m 12,9 km/h (3 Bft) NO 45 0 min 0,0 UV-I 0 W/m -3,0 C -8,3 C 16,1 km/h (3 Bft)
31.01.2021 06:15 -2,3 C -1,1 C 95 % 1003,3 hPa 0,0 l/m 16,1 km/h (3 Bft) NO 45 0 min 0,0 UV-I 0 W/m -3,0 C -10,5 C 22,5 km/h (4 Bft)
31.01.2021 06:16 -2,3 C -1,1 C 95 % 1003,4 hPa 0,0 l/m 12,9 km/h (3 Bft) O-NO 67 0 min 0,0 UV-I 0 W/m -3,0 C -8,3 C 19,3 km/h (3 Bft)
31.01.2021 06:17 -2,3 C -1,1 C 95 % 1003,3 hPa 0,0 l/m 14,5 km/h (3 Bft) NO 45 0 min 0,0 UV-I 0 W/m -3,0 C -9,4 C 20,9 km/h (4 Bft)
31.01.2021 06:18 -2,3 C -1,1 C 95 % 1003,3 hPa 0,0 l/m 12,9 km/h (3 Bft) O-NO 67 0 min 0,0 UV-I 0 W/m -3,0 C -8,3 C 17,7 km/h (3 Bft)
31.01.2021 06:19 -2,3 C -1,1 C 95 % 1003,3 hPa 0,0 l/m 11,3 km/h (2 Bft) O-NO 67 0 min 0,0 UV-I 0 W/m -3,0 C -7,1 C 16,1 km/h (3 Bft)
31.01.2021 06:20 -2,3 C -1,1 C 95 % 1003,3 hPa 0,0 l/m 16,1 km/h (3 Bft) NO 45 0 min 0,0 UV-I 0 W/m -3,0 C -10,5 C 20,9 km/h (4 Bft)
31.01.2021 06:21 -2,3 C -1,1 C 95 % 1003,3 hPa 0,0 l/m 17,7 km/h (3 Bft) NO 45 0 min 0,0 UV-I 0 W/m -3,0 C -11,4 C 24,1 km/h (4 Bft)
31.01.2021 06:22 -2,3 C -1,1 C 95 % 1003,3 hPa 0,0 l/m 14,5 km/h (3 Bft) NO 45 0 min 0,0 UV-I 0 W/m -3,0 C -9,4 C 19,3 km/h (3 Bft)
31.01.2021 06:23 -2,3 C -1,1 C 95 % 1003,4 hPa 0,0 l/m 12,9 km/h (3 Bft) O-NO 67 0 min 0,0 UV-I 0 W/m -3,0 C -8,3 C 19,3 km/h (3 Bft)
31.01.2021 06:24 -2,3 C -1,1 C 95 % 1003,3 hPa 0,0 l/m 12,9 km/h (3 Bft) NO 45 0 min 0,0 UV-I 0 W/m -3,0 C -8,3 C 17,7 km/h (3 Bft)
31.01.2021 06:25 -2,3 C -1,1 C 95 % 1003,3 hPa 0,0 l/m 14,5 km/h (3 Bft) NO 45 0 min 0,0 UV-I 0 W/m -3,0 C -9,4 C 20,9 km/h (4 Bft)
31.01.2021 06:26 -2,3 C -1,1 C 95 % 1003,3 hPa 0,0 l/m 11,3 km/h (2 Bft) NO 45 0 min 0,0 UV-I 0 W/m -3,0 C -7,1 C 17,7 km/h (3 Bft)
31.01.2021 06:27 -2,3 C -1,1 C 95 % 1003,3 hPa 0,0 l/m 11,3 km/h (2 Bft) NO 45 0 min 0,0 UV-I 0 W/m -3,0 C -7,1 C 16,1 km/h (3 Bft)
31.01.2021 06:28 -2,3 C -1,1 C 95 % 1003,3 hPa 0,0 l/m 12,9 km/h (3 Bft) O-NO 67 0 min 0,0 UV-I 0 W/m -3,0 C -8,3 C 20,9 km/h (4 Bft)
31.01.2021 06:29 -2,3 C -1,7 C 95 % 1003,3 hPa 0,0 l/m 11,3 km/h (2 Bft) NO 45 0 min 0,0 UV-I 0 W/m -3,0 C -7,1 C 17,7 km/h (3 Bft)
31.01.2021 06:30 -2,3 C -1,7 C 95 % 1003,2 hPa 0,0 l/m 17,7 km/h (3 Bft) NO 45 0 min 0,0 UV-I 0 W/m -3,0 C -11,4 C 22,5 km/h (4 Bft)
31.01.2021 06:31 -2,3 C -1,7 C 95 % 1003,2 hPa 0,0 l/m 14,5 km/h (3 Bft) O-NO 67 0 min 0,0 UV-I 0 W/m -3,0 C -9,4 C 17,7 km/h (3 Bft)
31.01.2021 06:32 -2,3 C -1,1 C 95 % 1003,3 hPa 0,0 l/m 8,0 km/h (2 Bft) NO 45 0 min 0,0 UV-I 0 W/m -3,0 C -4,1 C 14,5 km/h (3 Bft)
31.01.2021 06:33 -2,3 C -1,1 C 95 % 1003,3 hPa 0,0 l/m 17,7 km/h (3 Bft) NO 45 0 min 0,0 UV-I 0 W/m -3,0 C -11,4 C 20,9 km/h (4 Bft)
31.01.2021 06:34 -2,3 C -1,1 C 95 % 1003,3 hPa 0,0 l/m 12,9 km/h (3 Bft) O-NO 67 0 min 0,0 UV-I 0 W/m -3,0 C -8,3 C 19,3 km/h (3 Bft)
31.01.2021 06:35 -2,3 C -1,1 C 95 % 1003,3 hPa 0,0 l/m 11,3 km/h (2 Bft) NO 45 0 min 0,0 UV-I 0 W/m -3,0 C -7,1 C 17,7 km/h (3 Bft)
31.01.2021 06:36 -2,3 C -1,7 C 95 % 1003,3 hPa 0,0 l/m 12,9 km/h (3 Bft) O-NO 67 0 min 0,0 UV-I 0 W/m -3,0 C -8,3 C 19,3 km/h (3 Bft)
31.01.2021 06:37 -2,3 C -1,7 C 95 % 1003,1 hPa 0,0 l/m 12,9 km/h (3 Bft) O-NO 67 0 min 0,0 UV-I 0 W/m -3,0 C -8,3 C 19,3 km/h (3 Bft)
31.01.2021 06:38 -2,3 C -1,1 C 95 % 1003,2 hPa 0,0 l/m 11,3 km/h (2 Bft) O-NO 67 0 min 0,0 UV-I 0 W/m -3,0 C -7,1 C 16,1 km/h (3 Bft)
31.01.2021 06:39 -2,3 C -1,7 C 95 % 1003,2 hPa 0,0 l/m 11,3 km/h (2 Bft) O-NO 67 0 min 0,0 UV-I 0 W/m -3,0 C -7,1 C 19,3 km/h (3 Bft)
31.01.2021 06:40 -2,3 C -1,7 C 95 % 1003,2 hPa 0,0 l/m 8,0 km/h (2 Bft) O-NO 67 0 min 0,0 UV-I 0 W/m -3,0 C -4,1 C 14,5 km/h (3 Bft)
31.01.2021 06:41 -2,3 C -1,7 C 95 % 1003,2 hPa 0,0 l/m 9,7 km/h (2 Bft) NO 45 0 min 0,0 UV-I 0 W/m -3,0 C -5,7 C 16,1 km/h (3 Bft)
31.01.2021 06:42 -2,3 C -1,1 C 95 % 1003,2 hPa 0,0 l/m 11,3 km/h (2 Bft) O-NO 67 0 min 0,0 UV-I 0 W/m -3,0 C -7,1 C 14,5 km/h (3 Bft)
31.01.2021 06:43 -2,3 C -1,1 C 95 % 1003,1 hPa 0,0 l/m 9,7 km/h (2 Bft) NO 45 0 min 0,0 UV-I 0 W/m -3,0 C -5,7 C 16,1 km/h (3 Bft)
31.01.2021 06:44 -2,3 C -1,7 C 95 % 1003,1 hPa 0,0 l/m 11,3 km/h (2 Bft) O-NO 67 0 min 0,0 UV-I 0 W/m -3,0 C -7,1 C 17,7 km/h (3 Bft)
31.01.2021 06:45 -2,3 C -1,7 C 95 % 1003,2 hPa 0,0 l/m 12,9 km/h (3 Bft) O-NO 67 0 min 0,0 UV-I 0 W/m -3,0 C -8,3 C 16,1 km/h (3 Bft)
31.01.2021 06:46 -2,3 C -1,1 C 95 % 1003,2 hPa 0,0 l/m 9,7 km/h (2 Bft) NO 45 0 min 0,0 UV-I 0 W/m -3,0 C -5,7 C 16,1 km/h (3 Bft)
31.01.2021 06:47 -2,3 C -1,1 C 95 % 1003,2 hPa 0,0 l/m 11,3 km/h (2 Bft) NO 45 0 min 0,0 UV-I 0 W/m -3,0 C -7,1 C 14,5 km/h (3 Bft)
31.01.2021 06:48 -2,3 C -1,7 C 95 % 1003,2 hPa 0,0 l/m 11,3 km/h (2 Bft) NO 45 0 min 0,0 UV-I 0 W/m -3,0 C -7,1 C 16,1 km/h (3 Bft)
31.01.2021 06:49 -2,3 C -1,7 C 95 % 1003,2 hPa 0,0 l/m 11,3 km/h (2 Bft) O-NO 67 0 min 0,0 UV-I 0 W/m -3,0 C -7,1 C 16,1 km/h (3 Bft)
31.01.2021 06:50 -2,3 C -1,1 C 95 % 1003,3 hPa 0,0 l/m 9,7 km/h (2 Bft) NO 45 0 min 0,0 UV-I 0 W/m -3,0 C -5,7 C 16,1 km/h (3 Bft)
31.01.2021 06:51 -2,3 C -1,1 C 95 % 1003,3 hPa 0,0 l/m 11,3 km/h (2 Bft) N-NO 22 0 min 0,0 UV-I 0 W/m -3,0 C -7,1 C 16,1 km/h (3 Bft)
31.01.2021 06:52 -2,3 C -1,1 C 95 % 1003,3 hPa 0,0 l/m 9,7 km/h (2 Bft) NO 45 0 min 0,0 UV-I 0 W/m -3,0 C -5,7 C 20,9 km/h (4 Bft)
31.01.2021 06:53 -2,3 C -1,1 C 95 % 1003,3 hPa 0,0 l/m 14,5 km/h (3 Bft) NO 45 0 min 0,0 UV-I 0 W/m -3,0 C -9,4 C 20,9 km/h (4 Bft)
31.01.2021 06:54 -2,3 C -1,1 C 95 % 1003,2 hPa 0,0 l/m 11,3 km/h (2 Bft) NO 45 0 min 0,0 UV-I 0 W/m -3,0 C -7,1 C 20,9 km/h (4 Bft)
31.01.2021 06:55 -2,3 C -1,1 C 95 % 1003,2 hPa 0,0 l/m 11,3 km/h (2 Bft) O-NO 67 0 min 0,0 UV-I 0 W/m -3,0 C -7,1 C 14,5 km/h (3 Bft)
31.01.2021 06:56 -2,3 C -1,7 C 95 % 1003,2 hPa 0,0 l/m 9,7 km/h (2 Bft) NO 45 0 min 0,0 UV-I 0 W/m -3,0 C -5,7 C 16,1 km/h (3 Bft)
31.01.2021 06:57 -2,3 C -1,7 C 95 % 1003,2 hPa 0,0 l/m 9,7 km/h (2 Bft) NO 45 0 min 0,0 UV-I 0 W/m -3,0 C -5,7 C 14,5 km/h (3 Bft)
31.01.2021 06:58 -2,3 C -1,7 C 95 % 1003,2 hPa 0,0 l/m 9,7 km/h (2 Bft) NO 45 0 min 0,0 UV-I 0 W/m -3,0 C -5,7 C 11,3 km/h (2 Bft)
31.01.2021 06:59 -2,3 C -1,7 C 95 % 1003,3 hPa 0,0 l/m 12,9 km/h (3 Bft) NO 45 0 min 0,0 UV-I 0 W/m -3,0 C -8,3 C 19,3 km/h (3 Bft)
31.01.2021 07:00 -2,3 C -1,7 C 95 % 1003,4 hPa 0,0 l/m 14,5 km/h (3 Bft) NO 45 0 min 0,0 UV-I 0 W/m -3,0 C -9,4 C 17,7 km/h (3 Bft)
31.01.2021 07:01 -2,3 C -1,7 C 95 % 1003,3 hPa 0,0 l/m 16,1 km/h (3 Bft) NO 45 0 min 0,0 UV-I 0 W/m -3,0 C -10,5 C 20,9 km/h (4 Bft)
31.01.2021 07:02 -2,3 C -1,7 C 95 % 1003,3 hPa 0,0 l/m 14,5 km/h (3 Bft) NO 45 0 min 0,0 UV-I 0 W/m -3,0 C -9,4 C 22,5 km/h (4 Bft)
31.01.2021 07:03 -2,3 C -1,1 C 95 % 1003,3 hPa 0,0 l/m 16,1 km/h (3 Bft) NO 45 0 min 0,0 UV-I 0 W/m -3,0 C -10,5 C 22,5 km/h (4 Bft)
31.01.2021 07:04 -2,3 C -1,1 C 95 % 1003,3 hPa 0,0 l/m 12,9 km/h (3 Bft) NO 45 0 min 0,0 UV-I 0 W/m -3,0 C -8,3 C 22,5 km/h (4 Bft)
31.01.2021 07:05 -2,3 C -1,1 C 95 % 1003,3 hPa 0,0 l/m 11,3 km/h (2 Bft) NO 45 0 min 0,0 UV-I 0 W/m -3,0 C -7,1 C 19,3 km/h (3 Bft)
31.01.2021 07:06 -2,3 C -1,1 C 95 % 1003,3 hPa 0,0 l/m 12,9 km/h (3 Bft) NO 45 0 min 0,0 UV-I 0 W/m -3,0 C -8,3 C 17,7 km/h (3 Bft)
31.01.2021 07:07 -2,3 C -1,7 C 95 % 1003,3 hPa 0,0 l/m 14,5 km/h (3 Bft) NO 45 0 min 0,0 UV-I 0 W/m -3,0 C -9,4 C 17,7 km/h (3 Bft)
31.01.2021 07:08 -2,3 C -1,7 C 95 % 1003,4 hPa 0,0 l/m 11,3 km/h (2 Bft) N-NO 22 0 min 0,0 UV-I 0 W/m -3,0 C -7,1 C 17,7 km/h (3 Bft)
31.01.2021 07:09 -2,3 C -1,7 C 95 % 1003,3 hPa 0,0 l/m 11,3 km/h (2 Bft) NO 45 0 min 0,0 UV-I 0 W/m -3,0 C -7,1 C 17,7 km/h (3 Bft)
31.01.2021 07:10 -2,3 C -1,7 C 95 % 1003,3 hPa 0,0 l/m 16,1 km/h (3 Bft) NO 45 0 min 0,0 UV-I 0 W/m -3,0 C -10,5 C 20,9 km/h (4 Bft)
31.01.2021 07:11 -2,3 C -1,7 C 95 % 1003,3 hPa 0,0 l/m 14,5 km/h (3 Bft) NO 45 0 min 0,0 UV-I 0 W/m -3,0 C -9,4 C 19,3 km/h (3 Bft)
31.01.2021 07:12 -2,3 C -1,7 C 95 % 1003,5 hPa 0,0 l/m 12,9 km/h (3 Bft) NO 45 0 min 0,0 UV-I 0 W/m -3,0 C -8,3 C 19,3 km/h (3 Bft)
31.01.2021 07:13 -2,3 C -1,1 C 95 % 1003,4 hPa 0,0 l/m 19,3 km/h (3 Bft) NO 45 0 min 0,0 UV-I 0 W/m -3,0 C -12,2 C 22,5 km/h (4 Bft)
31.01.2021 07:14 -2,3 C -1,1 C 95 % 1003,3 hPa 0,0 l/m 16,1 km/h (3 Bft) NO 45 0 min 0,0 UV-I 0 W/m -3,0 C -10,5 C 20,9 km/h (4 Bft)
31.01.2021 07:15 -2,3 C -1,1 C 95 % 1003,5 hPa 0,0 l/m 12,9 km/h (3 Bft) NO 45 0 min 0,0 UV-I 0 W/m -3,0 C -8,3 C 17,7 km/h (3 Bft)
31.01.2021 07:16 -2,3 C -1,7 C 95 % 1003,5 hPa 0,0 l/m 12,9 km/h (3 Bft) NO 45 0 min 0,0 UV-I 0 W/m -3,0 C -8,3 C 17,7 km/h (3 Bft)
31.01.2021 07:17 -2,3 C -1,7 C 95 % 1003,4 hPa 0,0 l/m 11,3 km/h (2 Bft) NO 45 0 min 0,0 UV-I 0 W/m -3,0 C -7,1 C 20,9 km/h (4 Bft)
31.01.2021 07:18 -2,3 C -1,7 C 95 % 1003,5 hPa 0,0 l/m 12,9 km/h (3 Bft) NO 45 0 min 0,0 UV-I 0 W/m -3,0 C -8,3 C 17,7 km/h (3 Bft)
31.01.2021 07:19 -2,3 C -1,7 C 95 % 1003,4 hPa 0,0 l/m 14,5 km/h (3 Bft) NO 45 0 min 0,0 UV-I 0 W/m -3,0 C -9,4 C 22,5 km/h (4 Bft)
31.01.2021 07:20 -2,3 C -1,1 C 95 % 1003,5 hPa 0,0 l/m 12,9 km/h (3 Bft) NO 45 0 min 0,0 UV-I 0 W/m -3,0 C -8,3 C 19,3 km/h (3 Bft)
31.01.2021 07:21 -2,3 C -1,7 C 95 % 1003,5 hPa 0,0 l/m 12,9 km/h (3 Bft) NO 45 0 min 0,0 UV-I 0 W/m -3,0 C -8,3 C 17,7 km/h (3 Bft)
31.01.2021 07:22 -2,3 C -1,7 C 95 % 1003,5 hPa 0,0 l/m 14,5 km/h (3 Bft) NO 45 0 min 0,0 UV-I 0 W/m -3,0 C -9,4 C 19,3 km/h (3 Bft)
31.01.2021 07:23 -2,3 C -1,7 C 95 % 1003,6 hPa 0,0 l/m 11,3 km/h (2 Bft) NO 45 0 min 0,0 UV-I 0 W/m -3,0 C -7,1 C 16,1 km/h (3 Bft)
31.01.2021 07:24 -2,3 C -1,7 C 95 % 1003,6 hPa 0,0 l/m 14,5 km/h (3 Bft) O-NO 67 0 min 0,0 UV-I 0 W/m -3,0 C -9,4 C 22,5 km/h (4 Bft)
31.01.2021 07:25 -2,3 C -1,7 C 95 % 1003,6 hPa 0,0 l/m 11,3 km/h (2 Bft) NO 45 0 min 0,0 UV-I 0 W/m -3,0 C -7,1 C 16,1 km/h (3 Bft)
31.01.2021 07:26 -2,3 C -1,7 C 95 % 1003,6 hPa 0,0 l/m 9,7 km/h (2 Bft) NO 45 0 min 0,0 UV-I 0 W/m -3,0 C -5,7 C 16,1 km/h (3 Bft)
31.01.2021 07:27 -2,3 C -1,7 C 95 % 1003,7 hPa 0,0 l/m 8,0 km/h (2 Bft) NO 45 0 min 0,0 UV-I 0 W/m -3,0 C -4,1 C 17,7 km/h (3 Bft)
31.01.2021 07:28 -2,3 C -1,7 C 95 % 1003,7 hPa 0,0 l/m 9,7 km/h (2 Bft) NO 45 0 min 0,0 UV-I 0 W/m -3,0 C -5,7 C 12,9 km/h (3 Bft)
31.01.2021 07:29 -2,3 C -1,7 C 95 % 1003,8 hPa 0,0 l/m 14,5 km/h (3 Bft) O-NO 67 0 min 0,0 UV-I 0 W/m -3,0 C -9,4 C 17,7 km/h (3 Bft)
31.01.2021 07:30 -2,3 C -1,7 C 95 % 1003,7 hPa 0,0 l/m 9,7 km/h (2 Bft) O-NO 67 0 min 0,0 UV-I 0 W/m -3,0 C -5,7 C 14,5 km/h (3 Bft)
31.01.2021 07:31 -2,3 C -1,7 C 95 % 1003,7 hPa 0,0 l/m 6,4 km/h (2 Bft) NO 45 0 min 0,0 UV-I 0 W/m -3,0 C -2,3 C 9,7 km/h (2 Bft)
31.01.2021 07:32 -2,3 C -1,7 C 95 % 1003,7 hPa 0,0 l/m 12,9 km/h (3 Bft) O-NO 67 0 min 0,0 UV-I 0 W/m -3,0 C -8,3 C 17,7 km/h (3 Bft)
31.01.2021 07:33 -2,3 C -1,7 C 95 % 1003,7 hPa 0,0 l/m 9,7 km/h (2 Bft) O-NO 67 0 min 0,0 UV-I 0 W/m -3,0 C -5,7 C 16,1 km/h (3 Bft)
31.01.2021 07:34 -2,3 C -1,7 C 95 % 1003,7 hPa 0,0 l/m 8,0 km/h (2 Bft) NO 45 0 min 0,0 UV-I 0 W/m -3,0 C -4,1 C 14,5 km/h (3 Bft)
31.01.2021 07:35 -2,3 C -1,7 C 95 % 1003,8 hPa 0,0 l/m 6,4 km/h (2 Bft) NO 45 0 min 0,0 UV-I 0 W/m -3,0 C -2,3 C 9,7 km/h (2 Bft)
31.01.2021 07:36 -2,3 C -1,7 C 95 % 1003,7 hPa 0,0 l/m 4,8 km/h (1 Bft) NO 45 0 min 0,0 UV-I 0 W/m -3,0 C -2,3 C 9,7 km/h (2 Bft)
31.01.2021 07:37 -2,3 C -1,7 C 95 % 1003,8 hPa 0,0 l/m 9,7 km/h (2 Bft) N-NO 22 0 min 0,0 UV-I 0 W/m -3,0 C -5,7 C 12,9 km/h (3 Bft)
31.01.2021 07:38 -2,3 C -1,7 C 95 % 1003,7 hPa 0,0 l/m 11,3 km/h (2 Bft) O-NO 67 0 min 0,0 UV-I 0 W/m -3,0 C -7,1 C 16,1 km/h (3 Bft)
31.01.2021 07:39 -2,3 C -1,7 C 95 % 1003,7 hPa 0,0 l/m 8,0 km/h (2 Bft) NO 45 0 min 0,0 UV-I 0 W/m -3,0 C -4,1 C 11,3 km/h (2 Bft)
31.01.2021 07:40 -2,3 C -1,7 C 95 % 1003,8 hPa 0,0 l/m 8,0 km/h (2 Bft) NO 45 0 min 0,0 UV-I 0 W/m -3,0 C -4,1 C 11,3 km/h (2 Bft)
31.01.2021 07:41 -2,3 C -1,7 C 95 % 1003,7 hPa 0,0 l/m 8,0 km/h (2 Bft) NO 45 0 min 0,0 UV-I 0 W/m -3,0 C -4,1 C 8,0 km/h (2 Bft)
31.01.2021 07:42 -2,3 C -1,7 C 95 % 1003,8 hPa 0,0 l/m 9,7 km/h (2 Bft) NO 45 0 min 0,0 UV-I 0 W/m -3,0 C -5,7 C 14,5 km/h (3 Bft)
31.01.2021 07:43 -2,3 C -1,7 C 95 % 1003,8 hPa 0,0 l/m 9,7 km/h (2 Bft) NO 45 0 min 0,0 UV-I 0 W/m -3,0 C -5,7 C 14,5 km/h (3 Bft)
31.01.2021 07:44 -2,3 C -1,7 C 95 % 1003,8 hPa 0,0 l/m 12,9 km/h (3 Bft) NO 45 0 min 0,0 UV-I 0 W/m -3,0 C -8,3 C 17,7 km/h (3 Bft)
31.01.2021 07:45 -2,3 C -1,7 C 95 % 1003,7 hPa 0,0 l/m 9,7 km/h (2 Bft) O-NO 67 0 min 0,0 UV-I 0 W/m -3,0 C -5,7 C 12,9 km/h (3 Bft)
31.01.2021 07:46 -2,3 C -1,7 C 95 % 1003,7 hPa 0,0 l/m 9,7 km/h (2 Bft) O-NO 67 0 min 0,0 UV-I 0 W/m -3,0 C -5,7 C 12,9 km/h (3 Bft)
31.01.2021 07:47 -2,3 C -1,7 C 95 % 1003,8 hPa 0,0 l/m 8,0 km/h (2 Bft) NO 45 0 min 0,0 UV-I 0 W/m -3,0 C -4,1 C 14,5 km/h (3 Bft)
31.01.2021 07:48 -2,3 C -1,7 C 95 % 1003,8 hPa 0,0 l/m 8,0 km/h (2 Bft) NO 45 0 min 0,0 UV-I 0 W/m -3,0 C -4,1 C 14,5 km/h (3 Bft)
31.01.2021 07:49 -2,3 C -1,7 C 95 % 1003,8 hPa 0,0 l/m 8,0 km/h (2 Bft) NO 45 0 min 0,0 UV-I 0 W/m -3,0 C -4,1 C 14,5 km/h (3 Bft)
31.01.2021 07:50 -2,3 C -1,7 C 95 % 1003,8 hPa 0,0 l/m 11,3 km/h (2 Bft) NO 45 0 min 0,0 UV-I 0 W/m -3,0 C -7,1 C 14,5 km/h (3 Bft)
31.01.2021 07:51 -2,3 C -1,7 C 95 % 1003,8 hPa 0,0 l/m 8,0 km/h (2 Bft) NO 45 0 min 0,0 UV-I 0 W/m -3,0 C -4,1 C 16,1 km/h (3 Bft)
31.01.2021 07:52 -2,3 C -1,7 C 95 % 1003,8 hPa 0,0 l/m 9,7 km/h (2 Bft) NO 45 0 min 0,0 UV-I 0 W/m -3,0 C -5,7 C 16,1 km/h (3 Bft)
31.01.2021 07:53 -2,3 C -1,7 C 95 % 1003,8 hPa 0,0 l/m 11,3 km/h (2 Bft) O-NO 67 0 min 0,0 UV-I 0 W/m -3,0 C -7,1 C 17,7 km/h (3 Bft)
31.01.2021 07:54 -2,3 C -1,7 C 95 % 1003,8 hPa 0,0 l/m 11,3 km/h (2 Bft) O-NO 67 0 min 0,0 UV-I 0 W/m -3,0 C -7,1 C 16,1 km/h (3 Bft)
31.01.2021 07:55 -2,3 C -1,7 C 95 % 1003,8 hPa 0,0 l/m 9,7 km/h (2 Bft) O-NO 67 0 min 0,0 UV-I 0 W/m -3,0 C -5,7 C 14,5 km/h (3 Bft)
31.01.2021 07:56 -2,3 C -1,7 C 95 % 1003,7 hPa 0,0 l/m 11,3 km/h (2 Bft) NO 45 0 min 0,0 UV-I 0 W/m -3,0 C -7,1 C 14,5 km/h (3 Bft)
31.01.2021 07:57 -2,3 C -1,7 C 95 % 1003,7 hPa 0,0 l/m 11,3 km/h (2 Bft) NO 45 0 min 0,0 UV-I 0 W/m -3,0 C -7,1 C 14,5 km/h (3 Bft)
31.01.2021 07:58 -2,3 C -1,7 C 95 % 1003,8 hPa 0,0 l/m 9,7 km/h (2 Bft) O-NO 67 0 min 0,0 UV-I 0 W/m -3,0 C -5,7 C 12,9 km/h (3 Bft)
31.01.2021 07:59 -2,3 C -1,7 C 95 % 1003,8 hPa 0,0 l/m 6,4 km/h (2 Bft) NO 45 0 min 0,0 UV-I 0 W/m -3,0 C -2,3 C 12,9 km/h (3 Bft)
31.01.2021 08:00 -2,3 C -1,1 C 95 % 1003,7 hPa 0,0 l/m 12,9 km/h (3 Bft) NO 45 0 min 0,0 UV-I 0 W/m -3,0 C -8,3 C 17,7 km/h (3 Bft)
31.01.2021 08:01 -2,4 C -1,1 C 95 % 1003,7 hPa 0,0 l/m 8,0 km/h (2 Bft) NO 45 0 min 0,0 UV-I 0 W/m -3,1 C -4,2 C 11,3 km/h (2 Bft)
31.01.2021 08:02 -2,4 C -1,1 C 95 % 1003,7 hPa 0,0 l/m 11,3 km/h (2 Bft) NO 45 0 min 0,0 UV-I 0 W/m -3,1 C -7,2 C 14,5 km/h (3 Bft)
31.01.2021 08:03 -2,4 C -1,1 C 95 % 1003,8 hPa 0,0 l/m 9,7 km/h (2 Bft) NO 45 0 min 0,0 UV-I 0 W/m -3,1 C -5,8 C 14,5 km/h (3 Bft)
31.01.2021 08:04 -2,3 C -1,1 C 95 % 1003,7 hPa 0,0 l/m 11,3 km/h (2 Bft) NO 45 0 min 0,0 UV-I 0 W/m -3,0 C -7,1 C 16,1 km/h (3 Bft)
31.01.2021 08:05 -2,3 C -1,1 C 95 % 1003,7 hPa 0,0 l/m 11,3 km/h (2 Bft) NO 45 0 min 0,0 UV-I 0 W/m -3,0 C -7,1 C 16,1 km/h (3 Bft)
31.01.2021 08:06 -2,4 C -1,1 C 95 % 1003,6 hPa 0,0 l/m 9,7 km/h (2 Bft) NO 45 0 min 0,0 UV-I 0 W/m -3,1 C -5,8 C 14,5 km/h (3 Bft)
31.01.2021 08:07 -2,4 C -1,1 C 95 % 1003,7 hPa 0,0 l/m 11,3 km/h (2 Bft) NO 45 0 min 0,0 UV-I 0 W/m -3,1 C -7,2 C 14,5 km/h (3 Bft)
31.01.2021 08:08 -2,4 C -1,1 C 95 % 1003,6 hPa 0,0 l/m 11,3 km/h (2 Bft) NO 45 0 min 0,0 UV-I 0 W/m -3,1 C -7,2 C 17,7 km/h (3 Bft)
31.01.2021 08:09 -2,3 C -1,1 C 95 % 1003,7 hPa 0,0 l/m 11,3 km/h (2 Bft) NO 45 0 min 0,0 UV-I 0 W/m -3,0 C -7,1 C 16,1 km/h (3 Bft)
31.01.2021 08:10 -2,3 C -1,1 C 95 % 1003,8 hPa 0,0 l/m 9,7 km/h (2 Bft) NO 45 0 min 0,0 UV-I 0 W/m -3,0 C -5,7 C 14,5 km/h (3 Bft)
31.01.2021 08:11 -2,4 C -1,1 C 95 % 1003,7 hPa 0,0 l/m 11,3 km/h (2 Bft) NO 45 0 min 0,0 UV-I 0 W/m -3,1 C -7,2 C 19,3 km/h (3 Bft)
31.01.2021 08:12 -2,4 C -1,1 C 95 % 1003,7 hPa 0,0 l/m 16,1 km/h (3 Bft) NO 45 0 min 0,0 UV-I 0 W/m -3,1 C -10,6 C 20,9 km/h (4 Bft)
31.01.2021 08:13 -2,4 C -1,1 C 95 % 1003,7 hPa 0,0 l/m 12,9 km/h (3 Bft) NO 45 0 min 0,0 UV-I 0 W/m -3,1 C -8,4 C 19,3 km/h (3 Bft)
31.01.2021 08:14 -2,3 C -1,7 C 95 % 1003,8 hPa 0,0 l/m 9,7 km/h (2 Bft) NO 45 0 min 0,0 UV-I 0 W/m -3,0 C -5,7 C 17,7 km/h (3 Bft)
31.01.2021 08:15 -2,3 C -1,7 C 95 % 1003,7 hPa 0,0 l/m 8,0 km/h (2 Bft) O-NO 67 0 min 0,0 UV-I 0 W/m -3,0 C -4,1 C 12,9 km/h (3 Bft)
31.01.2021 08:16 -2,4 C -1,7 C 95 % 1003,8 hPa 0,0 l/m 8,0 km/h (2 Bft) NO 45 0 min 0,0 UV-I 0 W/m -3,1 C -4,2 C 12,9 km/h (3 Bft)
31.01.2021 08:17 -2,4 C -1,7 C 95 % 1003,8 hPa 0,0 l/m 6,4 km/h (2 Bft) O-NO 67 0 min 0,0 UV-I 0 W/m -3,1 C -2,4 C 12,9 km/h (3 Bft)
31.01.2021 08:18 -2,4 C -1,7 C 95 % 1003,8 hPa 0,0 l/m 8,0 km/h (2 Bft) NO 45 0 min 0,0 UV-I 0 W/m -3,1 C -4,2 C 12,9 km/h (3 Bft)
31.01.2021 08:19 -2,4 C -1,7 C 95 % 1003,8 hPa 0,0 l/m 11,3 km/h (2 Bft) O-NO 67 0 min 0,0 UV-I 5 W/m -3,1 C -7,2 C 17,7 km/h (3 Bft)
31.01.2021 08:20 -2,4 C -1,7 C 95 % 1003,9 hPa 0,0 l/m 9,7 km/h (2 Bft) O-NO 67 0 min 0,0 UV-I 5 W/m -3,1 C -5,8 C 14,5 km/h (3 Bft)
31.01.2021 08:21 -2,4 C -1,7 C 95 % 1003,8 hPa 0,0 l/m 9,7 km/h (2 Bft) NO 45 0 min 0,0 UV-I 5 W/m -3,1 C -5,8 C 14,5 km/h (3 Bft)
31.01.2021 08:22 -2,4 C -1,7 C 95 % 1003,8 hPa 0,0 l/m 9,7 km/h (2 Bft) O-NO 67 0 min 0,0 UV-I 7 W/m -3,1 C -5,8 C 12,9 km/h (3 Bft)
31.01.2021 08:23 -2,3 C -1,7 C 95 % 1003,8 hPa 0,0 l/m 9,7 km/h (2 Bft) NO 45 0 min 0,0 UV-I 7 W/m -3,0 C -5,7 C 17,7 km/h (3 Bft)
31.01.2021 08:24 -2,3 C -1,7 C 95 % 1003,8 hPa 0,0 l/m 12,9 km/h (3 Bft) NO 45 0 min 0,0 UV-I 9 W/m -3,0 C -8,3 C 19,3 km/h (3 Bft)
31.01.2021 08:25 -2,4 C -1,1 C 95 % 1003,8 hPa 0,0 l/m 8,0 km/h (2 Bft) NO 45 0 min 0,0 UV-I 9 W/m -3,1 C -4,2 C 12,9 km/h (3 Bft)
31.01.2021 08:26 -2,3 C -1,1 C 95 % 1003,9 hPa 0,0 l/m 9,7 km/h (2 Bft) NO 45 0 min 0,0 UV-I 10 W/m -3,0 C -5,7 C 16,1 km/h (3 Bft)
31.01.2021 08:27 -2,3 C -1,1 C 95 % 1003,9 hPa 0,0 l/m 9,7 km/h (2 Bft) NO 45 0 min 0,0 UV-I 11 W/m -3,0 C -5,7 C 14,5 km/h (3 Bft)
31.01.2021 08:28 -2,4 C -1,1 C 95 % 1003,9 hPa 0,0 l/m 9,7 km/h (2 Bft) NO 45 0 min 0,0 UV-I 11 W/m -3,1 C -5,8 C 16,1 km/h (3 Bft)
31.01.2021 08:29 -2,3 C -1,7 C 95 % 1003,8 hPa 0,0 l/m 9,7 km/h (2 Bft) NO 45 0 min 0,0 UV-I 11 W/m -3,0 C -5,7 C 14,5 km/h (3 Bft)
31.01.2021 08:30 -2,4 C -1,1 C 95 % 1004,0 hPa 0,0 l/m 12,9 km/h (3 Bft) NO 45 0 min 0,0 UV-I 11 W/m -3,1 C -8,4 C 25,7 km/h (4 Bft)
31.01.2021 08:31 -2,4 C -1,1 C 95 % 1003,9 hPa 0,0 l/m 11,3 km/h (2 Bft) NO 45 0 min 0,0 UV-I 12 W/m -3,1 C -7,2 C 17,7 km/h (3 Bft)
31.01.2021 08:32 -2,4 C -1,1 C 95 % 1004,0 hPa 0,0 l/m 12,9 km/h (3 Bft) O-NO 67 0 min 0,0 UV-I 12 W/m -3,1 C -8,4 C 17,7 km/h (3 Bft)
31.01.2021 08:33 -2,4 C -1,1 C 95 % 1004,0 hPa 0,0 l/m 11,3 km/h (2 Bft) O-NO 67 0 min 0,0 UV-I 14 W/m -3,1 C -7,2 C 19,3 km/h (3 Bft)
31.01.2021 08:34 -2,4 C -1,1 C 95 % 1004,0 hPa 0,0 l/m 9,7 km/h (2 Bft) NO 45 0 min 0,0 UV-I 14 W/m -3,1 C -5,8 C 14,5 km/h (3 Bft)
31.01.2021 08:35 -2,4 C -1,1 C 95 % 1004,0 hPa 0,0 l/m 11,3 km/h (2 Bft) NO 45 0 min 0,0 UV-I 16 W/m -3,1 C -7,2 C 17,7 km/h (3 Bft)
31.01.2021 08:36 -2,4 C -1,1 C 95 % 1004,0 hPa 0,0 l/m 8,0 km/h (2 Bft) O-NO 67 0 min 0,0 UV-I 16 W/m -3,1 C -4,2 C 12,9 km/h (3 Bft)
31.01.2021 08:37 -2,4 C -1,1 C 95 % 1003,9 hPa 0,0 l/m 8,0 km/h (2 Bft) O-NO 67 0 min 0,0 UV-I 18 W/m -3,1 C -4,2 C 12,9 km/h (3 Bft)
31.01.2021 08:38 -2,4 C -1,1 C 95 % 1004,0 hPa 0,0 l/m 8,0 km/h (2 Bft) NO 45 0 min 0,0 UV-I 19 W/m -3,1 C -4,2 C 14,5 km/h (3 Bft)
31.01.2021 08:39 -2,3 C -1,1 C 95 % 1004,0 hPa 0,0 l/m 8,0 km/h (2 Bft) NO 45 0 min 0,0 UV-I 19 W/m -3,0 C -4,1 C 11,3 km/h (2 Bft)
31.01.2021 08:40 -2,3 C -1,1 C 95 % 1004,0 hPa 0,0 l/m 14,5 km/h (3 Bft) O-NO 67 0 min 0,0 UV-I 19 W/m -3,0 C -9,4 C 19,3 km/h (3 Bft)
31.01.2021 08:41 -2,4 C -1,1 C 95 % 1003,9 hPa 0,0 l/m 8,0 km/h (2 Bft) NO 45 0 min 0,0 UV-I 21 W/m -3,1 C -4,2 C 14,5 km/h (3 Bft)
31.01.2021 08:42 -2,3 C -1,7 C 95 % 1003,9 hPa 0,0 l/m 8,0 km/h (2 Bft) O-NO 67 0 min 0,0 UV-I 21 W/m -3,0 C -4,1 C 12,9 km/h (3 Bft)
31.01.2021 08:43 -2,4 C -1,1 C 95 % 1004,0 hPa 0,0 l/m 6,4 km/h (2 Bft) O-NO 67 0 min 0,0 UV-I 23 W/m -3,1 C -2,4 C 12,9 km/h (3 Bft)
31.01.2021 08:44 -2,3 C -1,1 C 95 % 1003,8 hPa 0,0 l/m 12,9 km/h (3 Bft) O-NO 67 0 min 0,0 UV-I 23 W/m -3,0 C -8,3 C 20,9 km/h (4 Bft)
31.01.2021 08:45 -2,3 C -1,1 C 95 % 1003,8 hPa 0,0 l/m 12,9 km/h (3 Bft) O 90 0 min 0,0 UV-I 21 W/m -3,0 C -8,3 C 16,1 km/h (3 Bft)
31.01.2021 08:46 -2,3 C -1,7 C 95 % 1003,9 hPa 0,0 l/m 6,4 km/h (2 Bft) O 90 0 min 0,0 UV-I 23 W/m -3,0 C -2,3 C 8,0 km/h (2 Bft)
31.01.2021 08:47 -2,4 C -1,7 C 95 % 1003,9 hPa 0,0 l/m 8,0 km/h (2 Bft) NO 45 0 min 0,0 UV-I 26 W/m -3,1 C -4,2 C 11,3 km/h (2 Bft)
31.01.2021 08:48 -2,3 C -1,1 C 95 % 1003,9 hPa 0,0 l/m 6,4 km/h (2 Bft) NO 45 0 min 0,0 UV-I 25 W/m -3,0 C -2,3 C 9,7 km/h (2 Bft)
31.01.2021 08:49 -2,3 C -1,1 C 95 % 1003,9 hPa 0,0 l/m 8,0 km/h (2 Bft) NO 45 0 min 0,0 UV-I 25 W/m -3,0 C -4,1 C 9,7 km/h (2 Bft)
31.01.2021 08:50 -2,3 C -1,1 C 95 % 1003,9 hPa 0,0 l/m 9,7 km/h (2 Bft) NO 45 0 min 0,0 UV-I 23 W/m -3,0 C -5,7 C 14,5 km/h (3 Bft)
31.01.2021 08:51 -2,3 C -1,1 C 95 % 1003,9 hPa 0,0 l/m 9,7 km/h (2 Bft) NO 45 0 min 0,0 UV-I 23 W/m -3,0 C -5,7 C 14,5 km/h (3 Bft)
31.01.2021 08:52 -2,3 C -1,1 C 95 % 1004,0 hPa 0,0 l/m 6,4 km/h (2 Bft) NO 45 0 min 0,0 UV-I 25 W/m -3,0 C -2,3 C 9,7 km/h (2 Bft)
31.01.2021 08:53 -2,3 C -1,1 C 95 % 1004,0 hPa 0,0 l/m 8,0 km/h (2 Bft) NO 45 0 min 0,0 UV-I 25 W/m -3,0 C -4,1 C 14,5 km/h (3 Bft)
31.01.2021 08:54 -2,3 C -1,1 C 95 % 1004,2 hPa 0,0 l/m 4,8 km/h (1 Bft) NO 45 0 min 0,0 UV-I 25 W/m -3,0 C -2,3 C 6,4 km/h (2 Bft)
31.01.2021 08:55 -2,3 C -1,1 C 95 % 1004,1 hPa 0,0 l/m 4,8 km/h (1 Bft) NO 45 0 min 0,0 UV-I 26 W/m -3,0 C -2,3 C 11,3 km/h (2 Bft)
31.01.2021 08:56 -2,3 C -1,1 C 95 % 1004,1 hPa 0,0 l/m 9,7 km/h (2 Bft) NO 45 0 min 0,0 UV-I 26 W/m -3,0 C -5,7 C 16,1 km/h (3 Bft)
31.01.2021 08:57 -2,3 C -1,1 C 95 % 1004,1 hPa 0,0 l/m 11,3 km/h (2 Bft) NO 45 0 min 0,0 UV-I 25 W/m -3,0 C -7,1 C 14,5 km/h (3 Bft)
31.01.2021 08:58 -2,3 C -1,1 C 95 % 1004,2 hPa 0,0 l/m 6,4 km/h (2 Bft) O-NO 67 0 min 0,0 UV-I 25 W/m -3,0 C -2,3 C 11,3 km/h (2 Bft)
31.01.2021 08:59 -2,3 C -1,1 C 95 % 1004,1 hPa 0,0 l/m 6,4 km/h (2 Bft) O-NO 67 0 min 0,0 UV-I 25 W/m -3,0 C -2,3 C 8,0 km/h (2 Bft)
31.01.2021 09:00 -2,3 C -1,1 C 95 % 1004,0 hPa 0,0 l/m 6,4 km/h (2 Bft) NO 45 0 min 0,0 UV-I 23 W/m -3,0 C -2,3 C 9,7 km/h (2 Bft)
31.01.2021 09:01 -2,3 C -1,1 C 95 % 1004,2 hPa 0,0 l/m 6,4 km/h (2 Bft) NO 45 0 min 0,0 UV-I 22 W/m -3,0 C -2,3 C 8,0 km/h (2 Bft)
31.01.2021 09:02 -2,3 C -1,1 C 95 % 1004,1 hPa 0,0 l/m 8,0 km/h (2 Bft) O-NO 67 0 min 0,0 UV-I 23 W/m -3,0 C -4,1 C 11,3 km/h (2 Bft)
31.01.2021 09:03 -2,2 C -1,1 C 95 % 1004,2 hPa 0,0 l/m 4,8 km/h (1 Bft) O 90 0 min 0,0 UV-I 25 W/m -2,9 C -2,2 C 8,0 km/h (2 Bft)
31.01.2021 09:04 -2,3 C -1,1 C 95 % 1004,2 hPa 0,0 l/m 8,0 km/h (2 Bft) O-NO 67 0 min 0,0 UV-I 25 W/m -3,0 C -4,1 C 12,9 km/h (3 Bft)
31.01.2021 09:05 -2,3 C -1,1 C 95 % 1004,2 hPa 0,0 l/m 9,7 km/h (2 Bft) O 90 0 min 0,0 UV-I 25 W/m -3,0 C -5,7 C 12,9 km/h (3 Bft)
31.01.2021 09:06 -2,3 C -1,1 C 95 % 1004,1 hPa 0,0 l/m 6,4 km/h (2 Bft) O 90 0 min 0,0 UV-I 25 W/m -3,0 C -2,3 C 9,7 km/h (2 Bft)
31.01.2021 09:07 -2,3 C -1,1 C 95 % 1004,2 hPa 0,0 l/m 6,4 km/h (2 Bft) O 90 0 min 0,0 UV-I 27 W/m -3,0 C -2,3 C 11,3 km/h (2 Bft)
31.01.2021 09:08 -2,2 C -1,1 C 95 % 1004,2 hPa 0,0 l/m 4,8 km/h (1 Bft) O 90 0 min 0,0 UV-I 28 W/m -2,9 C -2,2 C 9,7 km/h (2 Bft)
31.01.2021 09:09 -2,2 C -1,1 C 95 % 1004,2 hPa 0,0 l/m 6,4 km/h (2 Bft) O-NO 67 0 min 0,0 UV-I 30 W/m -2,9 C -2,2 C 11,3 km/h (2 Bft)
31.01.2021 09:10 -2,2 C -1,1 C 95 % 1004,3 hPa 0,0 l/m 11,3 km/h (2 Bft) NO 45 0 min 0,0 UV-I 33 W/m -2,9 C -7,0 C 19,3 km/h (3 Bft)
31.01.2021 09:11 -2,3 C -1,1 C 95 % 1004,3 hPa 0,0 l/m 9,7 km/h (2 Bft) O-SO 112 0 min 0,0 UV-I 32 W/m -3,0 C -5,7 C 17,7 km/h (3 Bft)
31.01.2021 09:12 -2,2 C -1,1 C 95 % 1004,2 hPa 0,0 l/m 11,3 km/h (2 Bft) O-SO 112 0 min 0,0 UV-I 30 W/m -2,9 C -7,0 C 17,7 km/h (3 Bft)
31.01.2021 09:13 -2,3 C -1,7 C 95 % 1004,3 hPa 0,0 l/m 12,9 km/h (3 Bft) O-SO 112 0 min 0,0 UV-I 33 W/m -3,0 C -8,3 C 19,3 km/h (3 Bft)
31.01.2021 09:14 -2,3 C -1,7 C 95 % 1004,3 hPa 0,0 l/m 9,7 km/h (2 Bft) O 90 0 min 0,0 UV-I 33 W/m -3,0 C -5,7 C 14,5 km/h (3 Bft)
31.01.2021 09:15 -2,3 C -1,7 C 95 % 1004,3 hPa 0,0 l/m 11,3 km/h (2 Bft) O 90 0 min 0,0 UV-I 33 W/m -3,0 C -7,1 C 19,3 km/h (3 Bft)
31.01.2021 09:16 -2,3 C -1,1 C 95 % 1004,4 hPa 0,0 l/m 9,7 km/h (2 Bft) O 90 0 min 0,0 UV-I 32 W/m -3,0 C -5,7 C 14,5 km/h (3 Bft)
31.01.2021 09:17 -2,3 C -1,1 C 95 % 1004,2 hPa 0,0 l/m 8,0 km/h (2 Bft) O 90 0 min 0,0 UV-I 33 W/m -3,0 C -4,1 C 16,1 km/h (3 Bft)
31.01.2021 09:18 -2,3 C -1,1 C 95 % 1004,3 hPa 0,0 l/m 9,7 km/h (2 Bft) O 90 0 min 0,0 UV-I 38 W/m -3,0 C -5,7 C 16,1 km/h (3 Bft)
31.01.2021 09:19 -2,3 C -1,1 C 95 % 1004,2 hPa 0,0 l/m 8,0 km/h (2 Bft) O 90 0 min 0,0 UV-I 37 W/m -3,0 C -4,1 C 11,3 km/h (2 Bft)
31.01.2021 09:20 -2,3 C -1,1 C 95 % 1004,3 hPa 0,0 l/m 9,7 km/h (2 Bft) O 90 0 min 0,0 UV-I 37 W/m -3,0 C -5,7 C 12,9 km/h (3 Bft)
31.01.2021 09:21 -2,3 C -1,1 C 95 % 1004,4 hPa 0,0 l/m 9,7 km/h (2 Bft) O-NO 67 0 min 0,0 UV-I 37 W/m -3,0 C -5,7 C 14,5 km/h (3 Bft)
31.01.2021 09:22 -2,3 C -1,1 C 95 % 1004,3 hPa 0,0 l/m 11,3 km/h (2 Bft) O-NO 67 0 min 0,0 UV-I 35 W/m -3,0 C -7,1 C 16,1 km/h (3 Bft)
31.01.2021 09:23 -2,3 C -1,1 C 95 % 1004,3 hPa 0,0 l/m 8,0 km/h (2 Bft) O 90 0 min 0,0 UV-I 35 W/m -3,0 C -4,1 C 12,9 km/h (3 Bft)
31.01.2021 09:24 -2,3 C -1,1 C 95 % 1004,4 hPa 0,0 l/m 8,0 km/h (2 Bft) O-NO 67 0 min 0,0 UV-I 38 W/m -3,0 C -4,1 C 14,5 km/h (3 Bft)
31.01.2021 09:25 -2,3 C -1,1 C 95 % 1004,4 hPa 0,0 l/m 12,9 km/h (3 Bft) O-NO 67 0 min 0,0 UV-I 39 W/m -3,0 C -8,3 C 17,7 km/h (3 Bft)
31.01.2021 09:26 -2,3 C -1,1 C 95 % 1004,5 hPa 0,0 l/m 16,1 km/h (3 Bft) O-NO 67 0 min 0,0 UV-I 39 W/m -3,0 C -10,5 C 20,9 km/h (4 Bft)
31.01.2021 09:27 -2,3 C -1,1 C 95 % 1004,3 hPa 0,0 l/m 11,3 km/h (2 Bft) O-NO 67 0 min 0,0 UV-I 37 W/m -3,0 C -7,1 C 16,1 km/h (3 Bft)
31.01.2021 09:28 -2,3 C -1,1 C 95 % 1004,4 hPa 0,0 l/m 9,7 km/h (2 Bft) O-NO 67 0 min 0,0 UV-I 37 W/m -3,0 C -5,7 C 12,9 km/h (3 Bft)
31.01.2021 09:29 -2,4 C -1,1 C 95 % 1004,4 hPa 0,0 l/m 11,3 km/h (2 Bft) O-NO 67 0 min 0,0 UV-I 37 W/m -3,1 C -7,2 C 16,1 km/h (3 Bft)
31.01.2021 09:30 -2,3 C -1,1 C 95 % 1004,4 hPa 0,0 l/m 11,3 km/h (2 Bft) O-NO 67 0 min 0,0 UV-I 38 W/m -3,0 C -7,1 C 14,5 km/h (3 Bft)
31.01.2021 09:31 -2,4 C -1,1 C 95 % 1004,4 hPa 0,0 l/m 8,0 km/h (2 Bft) O-NO 67 0 min 0,0 UV-I 37 W/m -3,1 C -4,2 C 12,9 km/h (3 Bft)
31.01.2021 09:32 -2,4 C -1,1 C 95 % 1004,5 hPa 0,0 l/m 11,3 km/h (2 Bft) O-NO 67 0 min 0,0 UV-I 37 W/m -3,1 C -7,2 C 14,5 km/h (3 Bft)
31.01.2021 09:33 -2,4 C -1,7 C 95 % 1004,4 hPa 0,0 l/m 12,9 km/h (3 Bft) O-NO 67 0 min 0,0 UV-I 35 W/m -3,1 C -8,4 C 16,1 km/h (3 Bft)
31.01.2021 09:34 -2,4 C -1,1 C 95 % 1004,3 hPa 0,0 l/m 14,5 km/h (3 Bft) O-NO 67 0 min 0,0 UV-I 33 W/m -3,1 C -9,6 C 16,1 km/h (3 Bft)
31.01.2021 09:35 -2,4 C -1,1 C 95 % 1004,4 hPa 0,0 l/m 12,9 km/h (3 Bft) O-NO 67 0 min 0,0 UV-I 33 W/m -3,1 C -8,4 C 17,7 km/h (3 Bft)
31.01.2021 09:36 -2,4 C -1,7 C 95 % 1004,4 hPa 0,0 l/m 12,9 km/h (3 Bft) NO 45 0 min 0,0 UV-I 37 W/m -3,1 C -8,4 C 16,1 km/h (3 Bft)
31.01.2021 09:37 -2,4 C -1,1 C 95 % 1004,4 hPa 0,0 l/m 11,3 km/h (2 Bft) O-NO 67 0 min 0,0 UV-I 39 W/m -3,1 C -7,2 C 17,7 km/h (3 Bft)
31.01.2021 09:38 -2,4 C -1,1 C 95 % 1004,3 hPa 0,0 l/m 9,7 km/h (2 Bft) NO 45 0 min 0,0 UV-I 39 W/m -3,1 C -5,8 C 14,5 km/h (3 Bft)
31.01.2021 09:39 -2,4 C -1,1 C 95 % 1004,3 hPa 0,0 l/m 11,3 km/h (2 Bft) O-NO 67 0 min 0,0 UV-I 40 W/m -3,1 C -7,2 C 17,7 km/h (3 Bft)
31.01.2021 09:40 -2,4 C -1,1 C 95 % 1004,4 hPa 0,0 l/m 11,3 km/h (2 Bft) O-NO 67 0 min 0,0 UV-I 40 W/m -3,1 C -7,2 C 14,5 km/h (3 Bft)
31.01.2021 09:41 -2,4 C -1,1 C 95 % 1004,4 hPa 0,0 l/m 9,7 km/h (2 Bft) O-NO 67 0 min 0,0 UV-I 40 W/m -3,1 C -5,8 C 12,9 km/h (3 Bft)
31.01.2021 09:42 -2,4 C -1,1 C 95 % 1004,3 hPa 0,0 l/m 11,3 km/h (2 Bft) O 90 0 min 0,0 UV-I 40 W/m -3,1 C -7,2 C 12,9 km/h (3 Bft)
31.01.2021 09:43 -2,4 C -1,1 C 95 % 1004,3 hPa 0,0 l/m 6,4 km/h (2 Bft) O 90 0 min 0,0 UV-I 42 W/m -3,1 C -2,4 C 11,3 km/h (2 Bft)
31.01.2021 09:44 -2,4 C -1,1 C 95 % 1004,2 hPa 0,0 l/m 11,3 km/h (2 Bft) O-NO 67 0 min 0,0 UV-I 42 W/m -3,1 C -7,2 C 12,9 km/h (3 Bft)
31.01.2021 09:45 -2,4 C -1,1 C 95 % 1004,3 hPa 0,0 l/m 12,9 km/h (3 Bft) O-NO 67 0 min 0,0 UV-I 40 W/m -3,1 C -8,4 C 17,7 km/h (3 Bft)
31.01.2021 09:46 -2,4 C -1,1 C 95 % 1004,2 hPa 0,0 l/m 6,4 km/h (2 Bft) O-NO 67 0 min 0,0 UV-I 40 W/m -3,1 C -2,4 C 9,7 km/h (2 Bft)
31.01.2021 09:47 -2,4 C -1,1 C 95 % 1004,2 hPa 0,0 l/m 8,0 km/h (2 Bft) O 90 0 min 0,0 UV-I 40 W/m -3,1 C -4,2 C 16,1 km/h (3 Bft)
31.01.2021 09:48 -2,3 C -1,1 C 95 % 1004,1 hPa 0,0 l/m 9,7 km/h (2 Bft) O-NO 67 0 min 0,0 UV-I 42 W/m -3,0 C -5,7 C 12,9 km/h (3 Bft)
31.01.2021 09:49 -2,4 C -1,1 C 95 % 1004,1 hPa 0,0 l/m 14,5 km/h (3 Bft) O-NO 67 0 min 0,0 UV-I 44 W/m -3,1 C -9,6 C 19,3 km/h (3 Bft)
31.01.2021 09:50 -2,4 C -1,1 C 95 % 1004,1 hPa 0,0 l/m 14,5 km/h (3 Bft) O-NO 67 0 min 0,0 UV-I 44 W/m -3,1 C -9,6 C 20,9 km/h (4 Bft)
31.01.2021 09:51 -2,4 C -1,1 C 95 % 1004,2 hPa 0,0 l/m 9,7 km/h (2 Bft) O-NO 67 0 min 0,0 UV-I 44 W/m -3,1 C -5,8 C 19,3 km/h (3 Bft)
31.01.2021 09:52 -2,4 C -1,1 C 95 % 1004,1 hPa 0,0 l/m 6,4 km/h (2 Bft) O-NO 67 0 min 0,0 UV-I 44 W/m -3,1 C -2,4 C 11,3 km/h (2 Bft)
31.01.2021 09:53 -2,4 C -1,1 C 95 % 1004,2 hPa 0,0 l/m 6,4 km/h (2 Bft) O-NO 67 0 min 0,0 UV-I 42 W/m -3,1 C -2,4 C 8,0 km/h (2 Bft)
31.01.2021 09:54 -2,3 C -1,1 C 95 % 1004,2 hPa 0,0 l/m 6,4 km/h (2 Bft) O-NO 67 0 min 0,0 UV-I 45 W/m -3,0 C -2,3 C 9,7 km/h (2 Bft)
31.01.2021 09:55 -2,3 C -1,1 C 95 % 1004,1 hPa 0,0 l/m 6,4 km/h (2 Bft) O 90 0 min 0,0 UV-I 49 W/m -3,0 C -2,3 C 9,7 km/h (2 Bft)
31.01.2021 09:56 -2,3 C -1,1 C 95 % 1004,2 hPa 0,0 l/m 6,4 km/h (2 Bft) O-SO 112 0 min 0,0 UV-I 51 W/m -3,0 C -2,3 C 11,3 km/h (2 Bft)
31.01.2021 09:57 -2,3 C -1,1 C 95 % 1004,2 hPa 0,0 l/m 4,8 km/h (1 Bft) O 90 0 min 0,0 UV-I 49 W/m -3,0 C -2,3 C 6,4 km/h (2 Bft)
31.01.2021 09:58 -2,3 C -1,1 C 95 % 1004,2 hPa 0,0 l/m 8,0 km/h (2 Bft) O-NO 67 0 min 0,0 UV-I 49 W/m -3,0 C -4,1 C 16,1 km/h (3 Bft)
31.01.2021 09:59 -2,3 C -1,1 C 95 % 1004,1 hPa 0,0 l/m 9,7 km/h (2 Bft) O-NO 67 0 min 0,0 UV-I 52 W/m -3,0 C -5,7 C 14,5 km/h (3 Bft)
31.01.2021 10:00 -2,3 C -1,1 C 95 % 1004,1 hPa 0,0 l/m 6,4 km/h (2 Bft) NO 45 0 min 0,0 UV-I 53 W/m -3,0 C -2,3 C 8,0 km/h (2 Bft)
31.01.2021 10:01 -2,3 C -1,1 C 95 % 1004,0 hPa 0,0 l/m 12,9 km/h (3 Bft) O-NO 67 0 min 0,0 UV-I 53 W/m -3,0 C -8,3 C 17,7 km/h (3 Bft)
31.01.2021 10:02 -2,3 C -1,1 C 95 % 1004,1 hPa 0,0 l/m 11,3 km/h (2 Bft) O-NO 67 0 min 0,0 UV-I 53 W/m -3,0 C -7,1 C 14,5 km/h (3 Bft)
31.01.2021 10:03 -2,3 C -1,1 C 95 % 1004,1 hPa 0,0 l/m 8,0 km/h (2 Bft) O-NO 67 0 min 0,0 UV-I 54 W/m -3,0 C -4,1 C 11,3 km/h (2 Bft)
31.01.2021 10:04 -2,3 C -1,1 C 95 % 1004,1 hPa 0,0 l/m 8,0 km/h (2 Bft) O-NO 67 0 min 0,0 UV-I 56 W/m -3,0 C -4,1 C 11,3 km/h (2 Bft)
31.01.2021 10:05 -2,3 C -0,6 C 95 % 1004,1 hPa 0,0 l/m 8,0 km/h (2 Bft) NO 45 0 min 0,0 UV-I 58 W/m -3,0 C -4,1 C 11,3 km/h (2 Bft)
31.01.2021 10:06 -2,3 C -1,1 C 95 % 1004,1 hPa 0,0 l/m 8,0 km/h (2 Bft) O-NO 67 0 min 0,0 UV-I 60 W/m -3,0 C -4,1 C 9,7 km/h (2 Bft)
31.01.2021 10:07 -2,3 C -0,6 C 95 % 1004,1 hPa 0,0 l/m 11,3 km/h (2 Bft) NO 45 0 min 0,0 UV-I 60 W/m -3,0 C -7,1 C 17,7 km/h (3 Bft)
31.01.2021 10:08 -2,3 C -1,1 C 95 % 1004,1 hPa 0,0 l/m 6,4 km/h (2 Bft) O-NO 67 0 min 0,0 UV-I 60 W/m -3,0 C -2,3 C 9,7 km/h (2 Bft)
31.01.2021 10:09 -2,2 C -0,6 C 95 % 1004,0 hPa 0,0 l/m 9,7 km/h (2 Bft) NO 45 0 min 0,0 UV-I 60 W/m -2,9 C -5,6 C 14,5 km/h (3 Bft)
31.01.2021 10:10 -2,2 C -0,6 C 95 % 1004,0 hPa 0,0 l/m 9,7 km/h (2 Bft) O-NO 67 0 min 0,0 UV-I 62 W/m -2,9 C -5,6 C 14,5 km/h (3 Bft)
31.01.2021 10:11 -2,2 C -0,6 C 95 % 1004,1 hPa 0,0 l/m 11,3 km/h (2 Bft) NO 45 0 min 0,0 UV-I 66 W/m -2,9 C -7,0 C 17,7 km/h (3 Bft)
31.01.2021 10:12 -2,2 C -0,6 C 95 % 1004,0 hPa 0,0 l/m 9,7 km/h (2 Bft) O-NO 67 0 min 0,0 UV-I 69 W/m -2,9 C -5,6 C 17,7 km/h (3 Bft)
31.01.2021 10:13 -2,2 C -0,6 C 95 % 1004,1 hPa 0,0 l/m 12,9 km/h (3 Bft) NO 45 0 min 0,0 UV-I 70 W/m -2,9 C -8,2 C 16,1 km/h (3 Bft)
31.01.2021 10:14 -2,2 C -1,1 C 95 % 1004,1 hPa 0,0 l/m 12,9 km/h (3 Bft) NO 45 0 min 0,0 UV-I 74 W/m -2,9 C -8,2 C 16,1 km/h (3 Bft)
31.01.2021 10:15 -2,2 C -1,1 C 95 % 1004,0 hPa 0,0 l/m 9,7 km/h (2 Bft) NO 45 0 min 0,0 UV-I 74 W/m -2,9 C -5,6 C 11,3 km/h (2 Bft)
31.01.2021 10:16 -2,2 C -0,6 C 95 % 1003,9 hPa 0,0 l/m 6,4 km/h (2 Bft) O 90 0 min 0,0 UV-I 77 W/m -2,9 C -2,2 C 11,3 km/h (2 Bft)
31.01.2021 10:17 -2,2 C -1,1 C 95 % 1004,0 hPa 0,0 l/m 8,0 km/h (2 Bft) O 90 0 min 0,0 UV-I 74 W/m -2,9 C -4,0 C 9,7 km/h (2 Bft)
31.01.2021 10:18 -2,2 C -1,1 C 95 % 1004,1 hPa 0,0 l/m 4,8 km/h (1 Bft) O 90 0 min 0,0 UV-I 70 W/m -2,9 C -2,2 C 6,4 km/h (2 Bft)
31.01.2021 10:19 -2,2 C -1,1 C 95 % 1004,1 hPa 0,0 l/m 4,8 km/h (1 Bft) O 90 0 min 0,0 UV-I 72 W/m -2,9 C -2,2 C 6,4 km/h (2 Bft)
31.01.2021 10:20 -2,2 C -1,7 C 95 % 1004,0 hPa 0,0 l/m 6,4 km/h (2 Bft) O 90 0 min 0,0 UV-I 72 W/m -2,9 C -2,2 C 11,3 km/h (2 Bft)
31.01.2021 10:21 -2,2 C -1,1 C 95 % 1004,1 hPa 0,0 l/m 6,4 km/h (2 Bft) O-NO 67 0 min 0,0 UV-I 77 W/m -2,9 C -2,2 C 11,3 km/h (2 Bft)
31.01.2021 10:22 -2,2 C -1,1 C 95 % 1004,1 hPa 0,0 l/m 8,0 km/h (2 Bft) O 90 0 min 0,0 UV-I 76 W/m -2,9 C -4,0 C 11,3 km/h (2 Bft)
31.01.2021 10:23 -2,2 C -0,6 C 95 % 1004,1 hPa 0,0 l/m 8,0 km/h (2 Bft) O 90 0 min 0,0 UV-I 76 W/m -2,9 C -4,0 C 12,9 km/h (3 Bft)
31.01.2021 10:24 -2,1 C -0,6 C 95 % 1004,1 hPa 0,0 l/m 9,7 km/h (2 Bft) O 90 0 min 0,0 UV-I 81 W/m -2,8 C -5,5 C 12,9 km/h (3 Bft)
31.01.2021 10:25 -2,2 C -1,1 C 95 % 1004,1 hPa 0,0 l/m 6,4 km/h (2 Bft) O 90 0 min 0,0 UV-I 77 W/m -2,9 C -2,2 C 9,7 km/h (2 Bft)
31.01.2021 10:26 -2,2 C -1,1 C 95 % 1004,1 hPa 0,0 l/m 9,7 km/h (2 Bft) O-NO 67 0 min 0,0 UV-I 76 W/m -2,9 C -5,6 C 12,9 km/h (3 Bft)
31.01.2021 10:27 -2,2 C -1,1 C 95 % 1004,1 hPa 0,0 l/m 12,9 km/h (3 Bft) O-NO 67 0 min 0,0 UV-I 74 W/m -2,9 C -8,2 C 17,7 km/h (3 Bft)
31.01.2021 10:28 -2,1 C -0,6 C 95 % 1004,2 hPa 0,0 l/m 6,4 km/h (2 Bft) O-NO 67 0 min 0,0 UV-I 63 W/m -2,8 C -2,1 C 11,3 km/h (2 Bft)
31.01.2021 10:29 -2,1 C -0,6 C 95 % 1004,2 hPa 0,0 l/m 4,8 km/h (1 Bft) O-NO 67 0 min 0,0 UV-I 70 W/m -2,8 C -2,1 C 8,0 km/h (2 Bft)
31.01.2021 10:30 -2,1 C -0,6 C 95 % 1004,3 hPa 0,0 l/m 6,4 km/h (2 Bft) O 90 0 min 0,0 UV-I 56 W/m -2,8 C -2,1 C 9,7 km/h (2 Bft)
31.01.2021 10:31 -2,1 C -0,6 C 95 % 1004,3 hPa 0,0 l/m 6,4 km/h (2 Bft) O-NO 67 0 min 0,0 UV-I 63 W/m -2,8 C -2,1 C 9,7 km/h (2 Bft)
31.01.2021 10:32 -2,1 C -0,6 C 95 % 1004,2 hPa 0,0 l/m 6,4 km/h (2 Bft) O-NO 67 0 min 0,0 UV-I 69 W/m -2,8 C -2,1 C 9,7 km/h (2 Bft)
31.01.2021 10:33 -2,1 C -0,6 C 95 % 1004,4 hPa 0,0 l/m 4,8 km/h (1 Bft) NO 45 0 min 0,0 UV-I 67 W/m -2,8 C -2,1 C 8,0 km/h (2 Bft)
31.01.2021 10:34 -2,1 C -0,6 C 95 % 1004,3 hPa 0,0 l/m 8,0 km/h (2 Bft) O-NO 67 0 min 0,0 UV-I 65 W/m -2,8 C -3,9 C 14,5 km/h (3 Bft)
31.01.2021 10:35 -2,1 C -0,6 C 95 % 1004,2 hPa 0,0 l/m 9,7 km/h (2 Bft) NO 45 0 min 0,0 UV-I 60 W/m -2,8 C -5,5 C 14,5 km/h (3 Bft)
31.01.2021 10:36 -2,1 C -0,6 C 95 % 1004,3 hPa 0,0 l/m 4,8 km/h (1 Bft) O 90 0 min 0,0 UV-I 72 W/m -2,8 C -2,1 C 9,7 km/h (2 Bft)
31.01.2021 10:37 -2,0 C -0,6 C 95 % 1004,3 hPa 0,0 l/m 8,0 km/h (2 Bft) O-NO 67 0 min 0,0 UV-I 74 W/m -2,7 C -3,7 C 14,5 km/h (3 Bft)
31.01.2021 10:38 -2,1 C -0,6 C 95 % 1004,3 hPa 0,0 l/m 9,7 km/h (2 Bft) O-NO 67 0 min 0,0 UV-I 77 W/m -2,8 C -5,5 C 14,5 km/h (3 Bft)
31.01.2021 10:39 -2,0 C -0,6 C 95 % 1004,3 hPa 0,0 l/m 6,4 km/h (2 Bft) O 90 0 min 0,0 UV-I 83 W/m -2,7 C -2,0 C 9,7 km/h (2 Bft)
31.01.2021 10:40 -2,0 C -0,6 C 95 % 1004,3 hPa 0,0 l/m 6,4 km/h (2 Bft) O-NO 67 0 min 0,0 UV-I 94 W/m -2,7 C -2,0 C 9,7 km/h (2 Bft)
31.01.2021 10:41 -2,0 C -0,6 C 95 % 1004,2 hPa 0,0 l/m 6,4 km/h (2 Bft) O-NO 67 0 min 0,0 UV-I 104 W/m -2,7 C -2,0 C 8,0 km/h (2 Bft)
31.01.2021 10:42 -2,0 C -0,6 C 95 % 1004,3 hPa 0,0 l/m 9,7 km/h (2 Bft) O-NO 67 0 min 0,0 UV-I 111 W/m -2,7 C -5,4 C 12,9 km/h (3 Bft)
31.01.2021 10:43 -1,9 C -0,6 C 95 % 1004,2 hPa 0,0 l/m 8,0 km/h (2 Bft) O-NO 67 0 min 0,0 UV-I 107 W/m -2,6 C -3,6 C 14,5 km/h (3 Bft)
31.01.2021 10:44 -1,9 C -0,6 C 95 % 1004,2 hPa 0,0 l/m 6,4 km/h (2 Bft) NO 45 0 min 0,0 UV-I 109 W/m -2,6 C -1,9 C 11,3 km/h (2 Bft)
31.01.2021 10:45 -1,9 C -0,6 C 95 % 1004,3 hPa 0,0 l/m 6,4 km/h (2 Bft) NO 45 0 min 0,0 UV-I 109 W/m -2,6 C -1,9 C 8,0 km/h (2 Bft)
31.01.2021 10:46 -1,9 C 0,0 C 95 % 1004,2 hPa 0,0 l/m 11,3 km/h (2 Bft) O-NO 67 0 min 0,0 UV-I 107 W/m -2,6 C -6,6 C 16,1 km/h (3 Bft)
31.01.2021 10:47 -1,9 C 0,0 C 95 % 1004,3 hPa 0,0 l/m 8,0 km/h (2 Bft) O-NO 67 0 min 0,0 UV-I 98 W/m -2,6 C -3,6 C 12,9 km/h (3 Bft)
31.01.2021 10:48 -1,8 C 0,0 C 95 % 1004,3 hPa 0,0 l/m 8,0 km/h (2 Bft) O-NO 67 0 min 0,0 UV-I 97 W/m -2,5 C -3,5 C 12,9 km/h (3 Bft)
31.01.2021 10:49 -1,8 C 0,0 C 95 % 1004,4 hPa 0,0 l/m 8,0 km/h (2 Bft) O-NO 67 0 min 0,0 UV-I 97 W/m -2,5 C -3,5 C 12,9 km/h (3 Bft)
31.01.2021 10:50 -1,8 C 0,0 C 95 % 1004,5 hPa 0,0 l/m 4,8 km/h (1 Bft) O-NO 67 0 min 0,0 UV-I 93 W/m -2,5 C -1,8 C 6,4 km/h (2 Bft)
31.01.2021 10:51 -1,8 C 0,0 C 95 % 1004,4 hPa 0,0 l/m 6,4 km/h (2 Bft) NO 45 0 min 0,0 UV-I 91 W/m -2,5 C -1,8 C 8,0 km/h (2 Bft)
31.01.2021 10:52 -1,8 C 0,0 C 95 % 1004,4 hPa 0,0 l/m 8,0 km/h (2 Bft) O-NO 67 0 min 0,0 UV-I 89 W/m -2,5 C -3,5 C 12,9 km/h (3 Bft)
31.01.2021 10:53 -1,8 C 0,0 C 95 % 1004,3 hPa 0,0 l/m 11,3 km/h (2 Bft) O-NO 67 0 min 0,0 UV-I 98 W/m -2,5 C -6,5 C 16,1 km/h (3 Bft)
31.01.2021 10:54 -1,8 C 0,0 C 95 % 1004,3 hPa 0,0 l/m 8,0 km/h (2 Bft) NO 45 0 min 0,0 UV-I 98 W/m -2,5 C -3,5 C 12,9 km/h (3 Bft)
31.01.2021 10:55 -1,8 C 0,0 C 95 % 1004,4 hPa 0,0 l/m 9,7 km/h (2 Bft) NO 45 0 min 0,0 UV-I 100 W/m -2,5 C -5,2 C 16,1 km/h (3 Bft)
31.01.2021 10:56 -1,8 C -0,6 C 95 % 1004,3 hPa 0,0 l/m 11,3 km/h (2 Bft) O-NO 67 0 min 0,0 UV-I 104 W/m -2,5 C -6,5 C 16,1 km/h (3 Bft)
31.01.2021 10:57 -1,8 C 0,0 C 95 % 1004,4 hPa 0,0 l/m 11,3 km/h (2 Bft) NO 45 0 min 0,0 UV-I 104 W/m -2,5 C -6,5 C 17,7 km/h (3 Bft)
31.01.2021 10:58 -1,8 C 0,0 C 95 % 1004,4 hPa 0,0 l/m 12,9 km/h (3 Bft) NO 45 0 min 0,0 UV-I 99 W/m -2,5 C -7,7 C 16,1 km/h (3 Bft)
31.01.2021 10:59 -1,7 C -0,6 C 95 % 1004,4 hPa 0,0 l/m 11,3 km/h (2 Bft) NO 45 0 min 0,0 UV-I 102 W/m -2,4 C -6,4 C 14,5 km/h (3 Bft)
31.01.2021 11:00 -1,7 C 0,0 C 95 % 1004,5 hPa 0,0 l/m 12,9 km/h (3 Bft) NO 45 0 min 0,0 UV-I 102 W/m -2,4 C -7,6 C 17,7 km/h (3 Bft)
31.01.2021 11:01 -1,8 C 0,0 C 95 % 1004,4 hPa 0,0 l/m 12,9 km/h (3 Bft) NO 45 0 min 0,0 UV-I 95 W/m -2,5 C -7,7 C 16,1 km/h (3 Bft)
31.01.2021 11:02 -1,7 C 0,0 C 95 % 1004,5 hPa 0,0 l/m 14,5 km/h (3 Bft) NO 45 0 min 0,0 UV-I 90 W/m -2,4 C -8,7 C 19,3 km/h (3 Bft)
31.01.2021 11:03 -1,7 C 0,0 C 95 % 1004,4 hPa 0,0 l/m 11,3 km/h (2 Bft) O-NO 67 0 min 0,0 UV-I 90 W/m -2,4 C -6,4 C 16,1 km/h (3 Bft)
31.01.2021 11:04 -1,7 C 0,0 C 95 % 1004,5 hPa 0,0 l/m 8,0 km/h (2 Bft) NO 45 0 min 0,0 UV-I 85 W/m -2,4 C -3,4 C 12,9 km/h (3 Bft)
31.01.2021 11:05 -1,8 C 0,0 C 95 % 1004,4 hPa 0,0 l/m 9,7 km/h (2 Bft) NO 45 0 min 0,0 UV-I 86 W/m -2,5 C -5,2 C 12,9 km/h (3 Bft)
31.01.2021 11:06 -1,7 C 0,0 C 95 % 1004,4 hPa 0,0 l/m 9,7 km/h (2 Bft) O-NO 67 0 min 0,0 UV-I 83 W/m -2,4 C -5,1 C 12,9 km/h (3 Bft)
31.01.2021 11:07 -1,7 C 0,0 C 95 % 1004,5 hPa 0,0 l/m 6,4 km/h (2 Bft) O-NO 67 0 min 0,0 UV-I 81 W/m -2,4 C -1,7 C 8,0 km/h (2 Bft)
31.01.2021 11:08 -1,7 C -0,6 C 95 % 1004,5 hPa 0,0 l/m 6,4 km/h (2 Bft) O-NO 67 0 min 0,0 UV-I 86 W/m -2,4 C -1,7 C 8,0 km/h (2 Bft)
31.01.2021 11:09 -1,8 C 0,0 C 95 % 1004,5 hPa 0,0 l/m 8,0 km/h (2 Bft) O-NO 67 0 min 0,0 UV-I 90 W/m -2,5 C -3,5 C 12,9 km/h (3 Bft)
31.01.2021 11:10 -1,7 C 0,0 C 95 % 1004,5 hPa 0,0 l/m 8,0 km/h (2 Bft) O-NO 67 0 min 0,0 UV-I 93 W/m -2,4 C -3,4 C 12,9 km/h (3 Bft)
31.01.2021 11:11 -1,7 C 0,0 C 95 % 1004,5 hPa 0,0 l/m 6,4 km/h (2 Bft) O-NO 67 0 min 0,0 UV-I 84 W/m -2,4 C -1,7 C 8,0 km/h (2 Bft)
31.01.2021 11:12 -1,7 C 0,0 C 95 % 1004,5 hPa 0,0 l/m 8,0 km/h (2 Bft) NO 45 0 min 0,0 UV-I 88 W/m -2,4 C -3,4 C 9,7 km/h (2 Bft)
31.01.2021 11:13 -1,7 C 0,0 C 95 % 1004,6 hPa 0,0 l/m 8,0 km/h (2 Bft) NO 45 0 min 0,0 UV-I 81 W/m -2,4 C -3,4 C 11,3 km/h (2 Bft)
31.01.2021 11:14 -1,7 C 0,0 C 95 % 1004,5 hPa 0,0 l/m 8,0 km/h (2 Bft) O-NO 67 0 min 0,0 UV-I 90 W/m -2,4 C -3,4 C 11,3 km/h (2 Bft)
31.01.2021 11:15 -1,7 C 0,0 C 95 % 1004,6 hPa 0,0 l/m 6,4 km/h (2 Bft) O-NO 67 0 min 0,0 UV-I 97 W/m -2,4 C -1,7 C 8,0 km/h (2 Bft)
31.01.2021 11:16 -1,7 C 0,0 C 95 % 1004,6 hPa 0,0 l/m 6,4 km/h (2 Bft) NO 45 0 min 0,0 UV-I 99 W/m -2,4 C -1,7 C 8,0 km/h (2 Bft)
31.01.2021 11:17 -1,7 C 0,0 C 95 % 1004,6 hPa 0,0 l/m 6,4 km/h (2 Bft) O-NO 67 0 min 0,0 UV-I 97 W/m -2,4 C -1,7 C 8,0 km/h (2 Bft)
31.01.2021 11:18 -1,7 C 0,0 C 95 % 1004,6 hPa 0,0 l/m 6,4 km/h (2 Bft) O-NO 67 0 min 0,0 UV-I 98 W/m -2,4 C -1,7 C 9,7 km/h (2 Bft)
31.01.2021 11:19 -1,7 C 0,0 C 95 % 1004,6 hPa 0,0 l/m 6,4 km/h (2 Bft) NO 45 0 min 0,0 UV-I 105 W/m -2,4 C -1,7 C 8,0 km/h (2 Bft)
31.01.2021 11:20 -1,7 C 0,0 C 95 % 1004,5 hPa 0,0 l/m 9,7 km/h (2 Bft) NO 45 0 min 0,0 UV-I 114 W/m -2,4 C -5,1 C 14,5 km/h (3 Bft)
31.01.2021 11:21 -1,7 C 0,0 C 95 % 1004,5 hPa 0,0 l/m 11,3 km/h (2 Bft) NO 45 0 min 0,0 UV-I 118 W/m -2,4 C -6,4 C 16,1 km/h (3 Bft)
31.01.2021 11:22 -1,6 C 0,0 C 95 % 1004,6 hPa 0,0 l/m 9,7 km/h (2 Bft) NO 45 0 min 0,0 UV-I 113 W/m -2,3 C -5,0 C 14,5 km/h (3 Bft)
31.01.2021 11:23 -1,6 C 0,0 C 95 % 1004,5 hPa 0,0 l/m 6,4 km/h (2 Bft) NO 45 0 min 0,0 UV-I 107 W/m -2,3 C -1,6 C 9,7 km/h (2 Bft)
31.01.2021 11:24 -1,6 C 0,0 C 95 % 1004,4 hPa 0,0 l/m 9,7 km/h (2 Bft) O-NO 67 0 min 0,0 UV-I 109 W/m -2,3 C -5,0 C 12,9 km/h (3 Bft)
31.01.2021 11:25 -1,6 C 0,0 C 95 % 1004,5 hPa 0,0 l/m 8,0 km/h (2 Bft) O-NO 67 0 min 0,0 UV-I 107 W/m -2,3 C -3,3 C 12,9 km/h (3 Bft)
31.01.2021 11:26 -1,6 C 0,0 C 95 % 1004,5 hPa 0,0 l/m 9,7 km/h (2 Bft) O-NO 67 0 min 0,0 UV-I 105 W/m -2,3 C -5,0 C 14,5 km/h (3 Bft)
31.01.2021 11:27 -1,6 C 0,0 C 95 % 1004,4 hPa 0,0 l/m 6,4 km/h (2 Bft) O-NO 67 0 min 0,0 UV-I 105 W/m -2,3 C -1,6 C 11,3 km/h (2 Bft)
31.01.2021 11:28 -1,6 C 0,0 C 95 % 1004,4 hPa 0,0 l/m 9,7 km/h (2 Bft) NO 45 0 min 0,0 UV-I 107 W/m -2,3 C -5,0 C 16,1 km/h (3 Bft)
31.01.2021 11:29 -1,6 C 0,0 C 95 % 1004,4 hPa 0,0 l/m 9,7 km/h (2 Bft) O-NO 67 0 min 0,0 UV-I 107 W/m -2,3 C -5,0 C 14,5 km/h (3 Bft)
31.01.2021 11:30 -1,5 C 0,0 C 95 % 1004,4 hPa 0,0 l/m 11,3 km/h (2 Bft) O-NO 67 0 min 0,0 UV-I 114 W/m -2,2 C -6,2 C 16,1 km/h (3 Bft)
31.01.2021 11:31 -1,6 C 0,0 C 95 % 1004,4 hPa 0,0 l/m 9,7 km/h (2 Bft) NO 45 0 min 0,0 UV-I 114 W/m -2,3 C -5,0 C 14,5 km/h (3 Bft)
31.01.2021 11:32 -1,5 C 0,0 C 95 % 1004,4 hPa 0,0 l/m 14,5 km/h (3 Bft) NO 45 0 min 0,0 UV-I 111 W/m -2,2 C -8,5 C 17,7 km/h (3 Bft)
31.01.2021 11:33 -1,5 C 0,0 C 95 % 1004,4 hPa 0,0 l/m 11,3 km/h (2 Bft) NO 45 0 min 0,0 UV-I 107 W/m -2,2 C -6,2 C 16,1 km/h (3 Bft)
31.01.2021 11:34 -1,5 C 0,0 C 95 % 1004,4 hPa 0,0 l/m 16,1 km/h (3 Bft) O-NO 67 0 min 0,0 UV-I 107 W/m -2,2 C -9,5 C 19,3 km/h (3 Bft)
31.01.2021 11:35 -1,5 C 0,0 C 95 % 1004,4 hPa 0,0 l/m 11,3 km/h (2 Bft) O-NO 67 0 min 0,0 UV-I 113 W/m -2,2 C -6,2 C 17,7 km/h (3 Bft)
31.01.2021 11:36 -1,5 C 0,0 C 95 % 1004,4 hPa 0,0 l/m 9,7 km/h (2 Bft) NO 45 0 min 0,0 UV-I 114 W/m -2,2 C -4,8 C 14,5 km/h (3 Bft)
31.01.2021 11:40 -1,4 C 0,0 C 95 % 1004,3 hPa 0,0 l/m 9,2 km/h (2 Bft) O 79 0 min 0,3 UV-I 120 W/m -2,1 C -4,3 C 14,5 km/h (3 Bft)
31.01.2021 11:42 -1,5 C 0,0 C 95 % 1004,3 hPa 0,0 l/m 15,5 km/h (3 Bft) N-NO 31 0 min 0,5 UV-I 133 W/m -2,2 C -9,1 C 25,7 km/h (4 Bft)
31.01.2021 11:44 -1,6 C 0,0 C 95 % 1004,3 hPa 0,0 l/m 13,2 km/h (3 Bft) O 90 0 min 0,5 UV-I 143 W/m -2,3 C -7,7 C 17,7 km/h (3 Bft)
31.01.2021 11:46 -1,6 C 0,0 C 95 % 1004,2 hPa 0,0 l/m 8,5 km/h (2 Bft) O-SO 123 0 min 0,5 UV-I 150 W/m -2,3 C -3,8 C 12,9 km/h (3 Bft)
31.01.2021 11:48 -1,6 C 0,0 C 95 % 1004,3 hPa 0,0 l/m 5,9 km/h (2 Bft) O-NO 71 0 min 0,5 UV-I 158 W/m -2,3 C -1,6 C 9,7 km/h (2 Bft)
31.01.2021 11:50 -1,6 C 0,6 C 95 % 1004,3 hPa 0,0 l/m 8,5 km/h (2 Bft) O 95 0 min 0,5 UV-I 164 W/m -2,3 C -3,8 C 16,1 km/h (3 Bft)
31.01.2021 11:52 -1,6 C 0,0 C 94 % 1004,2 hPa 0,0 l/m 8,2 km/h (2 Bft) O-NO 70 0 min 0,5 UV-I 157 W/m -2,4 C -3,5 C 14,5 km/h (3 Bft)
31.01.2021 11:54 -1,6 C 0,0 C 94 % 1004,2 hPa 0,0 l/m 5,9 km/h (2 Bft) O 97 0 min 0,5 UV-I 159 W/m -2,4 C -1,6 C 12,9 km/h (3 Bft)
31.01.2021 11:56 -1,6 C 0,6 C 94 % 1004,2 hPa 0,0 l/m 7,0 km/h (2 Bft) O-NO 75 0 min 0,5 UV-I 153 W/m -2,4 C -2,3 C 12,9 km/h (3 Bft)
31.01.2021 11:58 -1,5 C 0,6 C 94 % 1004,2 hPa 0,0 l/m 10,7 km/h (2 Bft) O-NO 70 0 min 0,5 UV-I 137 W/m -2,3 C -5,7 C 17,7 km/h (3 Bft)
31.01.2021 12:00 -1,5 C 0,6 C 94 % 1004,1 hPa 0,0 l/m 9,8 km/h (2 Bft) O-NO 78 0 min 0,5 UV-I 132 W/m -2,3 C -4,9 C 16,1 km/h (3 Bft)
31.01.2021 12:02 -1,6 C 0,6 C 94 % 1004,1 hPa 0,0 l/m 9,3 km/h (2 Bft) O 86 0 min 0,5 UV-I 131 W/m -2,4 C -4,6 C 16,1 km/h (3 Bft)
31.01.2021 12:04 -1,5 C 0,6 C 94 % 1004,0 hPa 0,0 l/m 6,8 km/h (2 Bft) O-NO 65 0 min 0,5 UV-I 125 W/m -2,3 C -1,9 C 11,3 km/h (2 Bft)
31.01.2021 12:06 -1,5 C 0,6 C 94 % 1003,8 hPa 0,0 l/m 7,4 km/h (2 Bft) O-NO 63 0 min 0,5 UV-I 149 W/m -2,3 C -2,6 C 14,5 km/h (3 Bft)
31.01.2021 12:08 -1,4 C 0,6 C 94 % 1004,0 hPa 0,0 l/m 9,4 km/h (2 Bft) O-SO 120 0 min 0,6 UV-I 163 W/m -2,2 C -4,5 C 14,5 km/h (3 Bft)
31.01.2021 12:10 -1,4 C 0,0 C 94 % 1004,0 hPa 0,0 l/m 10,6 km/h (2 Bft) O-SO 111 0 min 0,6 UV-I 173 W/m -2,2 C -5,5 C 16,1 km/h (3 Bft)
31.01.2021 12:12 -1,5 C -0,6 C 94 % 1004,0 hPa 0,0 l/m 5,5 km/h (1 Bft) O 82 0 min 0,6 UV-I 170 W/m -2,3 C -1,5 C 11,3 km/h (2 Bft)
31.01.2021 12:14 -1,4 C 0,0 C 94 % 1004,0 hPa 0,0 l/m 11,3 km/h (2 Bft) O 82 0 min 0,6 UV-I 165 W/m -2,2 C -6,1 C 19,3 km/h (3 Bft)
31.01.2021 12:16 -1,4 C 0,6 C 94 % 1003,8 hPa 0,0 l/m 12,0 km/h (2 Bft) O 85 0 min 0,6 UV-I 162 W/m -2,2 C -6,6 C 17,7 km/h (3 Bft)
31.01.2021 12:18 -1,5 C 0,6 C 94 % 1003,8 hPa 0,0 l/m 7,6 km/h (2 Bft) NO 49 0 min 0,5 UV-I 134 W/m -2,3 C -2,8 C 12,9 km/h (3 Bft)
31.01.2021 12:20 -1,4 C 0,6 C 94 % 1003,8 hPa 0,0 l/m 9,9 km/h (2 Bft) O-NO 71 0 min 0,5 UV-I 134 W/m -2,2 C -4,9 C 16,1 km/h (3 Bft)
31.01.2021 12:22 -1,4 C 0,6 C 94 % 1003,7 hPa 0,0 l/m 9,9 km/h (2 Bft) O 101 0 min 0,5 UV-I 127 W/m -2,2 C -4,9 C 14,5 km/h (3 Bft)
31.01.2021 12:24 -1,5 C 0,0 C 94 % 1003,7 hPa 0,0 l/m 10,5 km/h (2 Bft) O 82 0 min 0,5 UV-I 138 W/m -2,3 C -5,5 C 16,1 km/h (3 Bft)
31.01.2021 12:26 -1,5 C 0,6 C 94 % 1003,8 hPa 0,0 l/m 5,0 km/h (1 Bft) O 88 0 min 0,5 UV-I 153 W/m -2,3 C -1,5 C 8,0 km/h (2 Bft)
31.01.2021 12:28 -1,4 C 0,6 C 94 % 1003,8 hPa 0,0 l/m 8,4 km/h (2 Bft) O-NO 77 0 min 0,5 UV-I 154 W/m -2,2 C -3,5 C 14,5 km/h (3 Bft)
31.01.2021 12:30 -1,3 C 1,1 C 94 % 1003,7 hPa 0,0 l/m 5,4 km/h (1 Bft) O-NO 61 0 min 0,5 UV-I 159 W/m -2,1 C -1,3 C 8,0 km/h (2 Bft)
31.01.2021 12:32 -1,4 C 0,6 C 94 % 1003,7 hPa 0,0 l/m 4,1 km/h (1 Bft) O 97 0 min 0,5 UV-I 160 W/m -2,2 C -1,4 C 9,7 km/h (2 Bft)
31.01.2021 12:34 -1,3 C 1,1 C 94 % 1003,7 hPa 0,0 l/m 6,4 km/h (2 Bft) O-NO 71 0 min 0,5 UV-I 152 W/m -2,1 C -1,3 C 11,3 km/h (2 Bft)
31.01.2021 12:36 -1,3 C 1,1 C 94 % 1003,7 hPa 0,0 l/m 8,8 km/h (2 Bft) O-NO 64 0 min 0,5 UV-I 152 W/m -2,1 C -3,8 C 16,1 km/h (3 Bft)
31.01.2021 12:38 -1,3 C 1,1 C 94 % 1003,6 hPa 0,0 l/m 7,6 km/h (2 Bft) O-NO 67 0 min 0,5 UV-I 152 W/m -2,1 C -2,6 C 14,5 km/h (3 Bft)
31.01.2021 12:40 -1,3 C 1,1 C 94 % 1003,6 hPa 0,0 l/m 7,5 km/h (2 Bft) NO 55 0 min 0,6 UV-I 159 W/m -2,1 C -2,5 C 11,3 km/h (2 Bft)
31.01.2021 12:42 -1,3 C 1,1 C 94 % 1003,7 hPa 0,0 l/m 6,1 km/h (2 Bft) O-NO 59 0 min 0,5 UV-I 154 W/m -2,1 C -1,3 C 12,9 km/h (3 Bft)
31.01.2021 12:44 -1,3 C 1,1 C 94 % 1003,6 hPa 0,0 l/m 8,6 km/h (2 Bft) O-NO 71 0 min 0,5 UV-I 128 W/m -2,1 C -3,6 C 16,1 km/h (3 Bft)
31.01.2021 12:46 -1,3 C 0,6 C 94 % 1003,7 hPa 0,0 l/m 6,0 km/h (2 Bft) NO 54 0 min 0,5 UV-I 119 W/m -2,1 C -1,3 C 9,7 km/h (2 Bft)
31.01.2021 12:48 -1,4 C 0,6 C 94 % 1003,6 hPa 0,0 l/m 9,3 km/h (2 Bft) O-NO 62 0 min 0,5 UV-I 134 W/m -2,2 C -4,4 C 16,1 km/h (3 Bft)
31.01.2021 12:50 -1,4 C 0,6 C 94 % 1003,6 hPa 0,0 l/m 7,3 km/h (2 Bft) O-NO 78 0 min 0,5 UV-I 134 W/m -2,2 C -2,4 C 14,5 km/h (3 Bft)
31.01.2021 12:52 -1,4 C 0,6 C 94 % 1003,5 hPa 0,0 l/m 9,3 km/h (2 Bft) O-NO 78 0 min 0,5 UV-I 128 W/m -2,2 C -4,4 C 16,1 km/h (3 Bft)
31.01.2021 12:54 -1,4 C 0,0 C 94 % 1003,5 hPa 0,0 l/m 5,3 km/h (1 Bft) O-NO 78 0 min 0,5 UV-I 124 W/m -2,2 C -1,4 C 9,7 km/h (2 Bft)
31.01.2021 12:56 -1,4 C 0,0 C 94 % 1003,5 hPa 0,0 l/m 3,4 km/h (1 Bft) O 80 0 min 0,5 UV-I 107 W/m -2,2 C -1,4 C 4,8 km/h (1 Bft)
31.01.2021 12:58 -1,3 C 0,0 C 94 % 1003,4 hPa 0,0 l/m 6,1 km/h (2 Bft) SO 126 0 min 0,5 UV-I 104 W/m -2,1 C -1,3 C 11,3 km/h (2 Bft)
31.01.2021 13:00 -1,4 C -0,6 C 94 % 1003,4 hPa 0,0 l/m 8,7 km/h (2 Bft) O-SO 109 0 min 0,3 UV-I 95 W/m -2,2 C -3,8 C 12,9 km/h (3 Bft)
31.01.2021 13:02 -1,4 C 0,0 C 94 % 1003,4 hPa 0,0 l/m 5,8 km/h (2 Bft) NO 51 0 min 0,0 UV-I 95 W/m -2,2 C -1,4 C 11,3 km/h (2 Bft)
31.01.2021 13:04 -1,3 C 0,0 C 94 % 1003,4 hPa 0,0 l/m 5,9 km/h (2 Bft) O 81 0 min 0,3 UV-I 111 W/m -2,1 C -1,3 C 9,7 km/h (2 Bft)
31.01.2021 13:06 -1,3 C 0,6 C 94 % 1003,3 hPa 0,0 l/m 5,6 km/h (1 Bft) O 84 0 min 0,1 UV-I 112 W/m -2,1 C -1,3 C 11,3 km/h (2 Bft)
31.01.2021 13:08 -1,3 C 0,6 C 94 % 1003,3 hPa 0,0 l/m 5,6 km/h (1 Bft) O-NO 72 0 min 0,0 UV-I 103 W/m -2,1 C -1,3 C 9,7 km/h (2 Bft)
31.01.2021 13:10 -1,3 C 0,0 C 94 % 1003,2 hPa 0,0 l/m 6,7 km/h (2 Bft) O-SO 105 0 min 0,0 UV-I 104 W/m -2,1 C -1,6 C 12,9 km/h (3 Bft)
31.01.2021 13:12 -1,3 C 0,0 C 94 % 1003,1 hPa 0,0 l/m 5,0 km/h (1 Bft) O 81 0 min 0,0 UV-I 106 W/m -2,1 C -1,3 C 6,4 km/h (2 Bft)
31.01.2021 13:14 -1,3 C 0,0 C 94 % 1003,1 hPa 0,0 l/m 5,1 km/h (1 Bft) O 95 0 min 0,0 UV-I 114 W/m -2,1 C -1,3 C 9,7 km/h (2 Bft)
31.01.2021 13:16 -1,3 C 0,6 C 94 % 1003,0 hPa 0,0 l/m 5,0 km/h (1 Bft) O 96 0 min 0,5 UV-I 133 W/m -2,1 C -1,3 C 6,4 km/h (2 Bft)
31.01.2021 13:18 -1,3 C 0,0 C 94 % 1003,0 hPa 0,0 l/m 8,7 km/h (2 Bft) O 94 0 min 0,5 UV-I 123 W/m -2,1 C -3,7 C 12,9 km/h (3 Bft)
31.01.2021 13:20 -1,3 C 0,0 C 94 % 1003,1 hPa 0,0 l/m 5,5 km/h (1 Bft) O 96 0 min 0,2 UV-I 125 W/m -2,1 C -1,3 C 9,7 km/h (2 Bft)
31.01.2021 13:22 -1,3 C 0,0 C 94 % 1003,0 hPa 0,0 l/m 5,4 km/h (1 Bft) O-NO 73 0 min 0,3 UV-I 135 W/m -2,1 C -1,3 C 11,3 km/h (2 Bft)
31.01.2021 13:24 -1,3 C 0,0 C 94 % 1003,1 hPa 0,0 l/m 5,2 km/h (1 Bft) O 89 0 min 0,5 UV-I 137 W/m -2,1 C -1,3 C 9,7 km/h (2 Bft)
31.01.2021 13:26 -1,3 C 0,6 C 94 % 1003,0 hPa 0,0 l/m 5,5 km/h (1 Bft) O 94 0 min 0,5 UV-I 150 W/m -2,1 C -1,3 C 9,7 km/h (2 Bft)
31.01.2021 13:28 -1,3 C 0,6 C 94 % 1002,9 hPa 0,0 l/m 5,5 km/h (1 Bft) O-NO 78 0 min 0,5 UV-I 141 W/m -2,1 C -1,3 C 11,3 km/h (2 Bft)
31.01.2021 13:30 -1,3 C 0,6 C 94 % 1003,0 hPa 0,0 l/m 8,4 km/h (2 Bft) O 91 0 min 0,5 UV-I 147 W/m -2,1 C -3,4 C 12,9 km/h (3 Bft)
31.01.2021 13:32 -1,3 C 0,6 C 94 % 1002,9 hPa 0,0 l/m 6,4 km/h (2 Bft) O 95 0 min 0,5 UV-I 149 W/m -2,1 C -1,3 C 12,9 km/h (3 Bft)
31.01.2021 13:34 -1,2 C 0,6 C 94 % 1002,8 hPa 0,0 l/m 4,5 km/h (1 Bft) SO 138 0 min 0,5 UV-I 156 W/m -2,0 C -1,2 C 9,7 km/h (2 Bft)
31.01.2021 13:36 -1,2 C 0,6 C 94 % 1002,7 hPa 0,0 l/m 5,7 km/h (1 Bft) SO 137 0 min 0,5 UV-I 151 W/m -2,0 C -1,2 C 11,3 km/h (2 Bft)
31.01.2021 13:38 -1,2 C 0,6 C 94 % 1002,8 hPa 0,0 l/m 4,2 km/h (1 Bft) O 85 0 min 0,5 UV-I 152 W/m -2,0 C -1,2 C 6,4 km/h (2 Bft)
31.01.2021 13:40 -1,2 C 0,0 C 94 % 1002,7 hPa 0,0 l/m 3,6 km/h (1 Bft) O-SO 119 0 min 0,5 UV-I 124 W/m -2,0 C -1,2 C 6,4 km/h (2 Bft)
31.01.2021 13:42 -1,2 C 0,6 C 94 % 1002,8 hPa 0,0 l/m 5,5 km/h (1 Bft) O-NO 74 0 min 0,5 UV-I 122 W/m -2,0 C -1,2 C 11,3 km/h (2 Bft)
31.01.2021 13:44 -1,2 C 0,6 C 94 % 1002,8 hPa 0,0 l/m 4,5 km/h (1 Bft) O 86 0 min 0,2 UV-I 115 W/m -2,0 C -1,2 C 8,0 km/h (2 Bft)
31.01.2021 13:46 -1,2 C 0,6 C 94 % 1002,8 hPa 0,0 l/m 7,5 km/h (2 Bft) O-NO 59 0 min 0,3 UV-I 118 W/m -2,0 C -2,4 C 12,9 km/h (3 Bft)
31.01.2021 13:48 -1,2 C 0,6 C 94 % 1002,7 hPa 0,0 l/m 13,1 km/h (3 Bft) O-NO 73 0 min 0,5 UV-I 120 W/m -2,0 C -7,2 C 17,7 km/h (3 Bft)
31.01.2021 13:50 -1,3 C 0,6 C 94 % 1002,8 hPa 0,0 l/m 4,8 km/h (1 Bft) O-NO 60 0 min 0,4 UV-I 123 W/m -2,1 C -1,3 C 6,4 km/h (2 Bft)
31.01.2021 13:52 -1,2 C 0,6 C 94 % 1002,8 hPa 0,0 l/m 2,1 km/h (1 Bft) O-NO 60 0 min 0,0 UV-I 116 W/m -2,0 C -1,2 C 4,8 km/h (1 Bft)
31.01.2021 13:54 -1,2 C 0,0 C 94 % 1002,9 hPa 0,0 l/m 5,1 km/h (1 Bft) O-SO 119 0 min 0,0 UV-I 112 W/m -2,0 C -1,2 C 8,0 km/h (2 Bft)
31.01.2021 13:56 -1,2 C -0,6 C 94 % 1002,7 hPa 0,0 l/m 3,9 km/h (1 Bft) O-SO 107 0 min 0,0 UV-I 104 W/m -2,0 C -1,2 C 6,4 km/h (2 Bft)
31.01.2021 13:58 -1,2 C 0,0 C 94 % 1002,8 hPa 0,0 l/m 4,3 km/h (1 Bft) SO 144 0 min 0,0 UV-I 106 W/m -2,0 C -1,2 C 8,0 km/h (2 Bft)
31.01.2021 14:00 -1,2 C -0,6 C 94 % 1002,9 hPa 0,0 l/m 6,6 km/h (2 Bft) O-SO 110 0 min 0,0 UV-I 109 W/m -2,0 C -1,4 C 9,7 km/h (2 Bft)
31.01.2021 14:02 -1,2 C -0,6 C 94 % 1002,8 hPa 0,0 l/m 5,0 km/h (1 Bft) O-SO 120 0 min 0,0 UV-I 106 W/m -2,0 C -1,2 C 6,4 km/h (2 Bft)
31.01.2021 14:04 -1,2 C -0,6 C 94 % 1002,7 hPa 0,0 l/m 5,1 km/h (1 Bft) SO 141 0 min 0,0 UV-I 104 W/m -2,0 C -1,2 C 8,0 km/h (2 Bft)
31.01.2021 14:06 -1,3 C -0,6 C 94 % 1002,7 hPa 0,0 l/m 6,4 km/h (2 Bft) O-SO 123 0 min 0,0 UV-I 98 W/m -2,1 C -1,3 C 11,3 km/h (2 Bft)
31.01.2021 14:07 -1,2 C -0,6 C 94 % 1002,7 hPa 0,0 l/m 8,0 km/h (2 Bft) O-SO 112 0 min 0,0 UV-I 100 W/m -2,0 C -2,9 C 11,3 km/h (2 Bft)
31.01.2021 14:08 -1,3 C -0,6 C 94 % 1002,6 hPa 0,0 l/m 8,0 km/h (2 Bft) SO 135 0 min 0,0 UV-I 100 W/m -2,1 C -3,0 C 12,9 km/h (3 Bft)
31.01.2021 14:10 -1,3 C -0,6 C 94 % 1002,5 hPa 0,0 l/m 11,6 km/h (2 Bft) O-SO 109 0 min 0,0 UV-I 100 W/m -2,1 C -6,2 C 14,5 km/h (3 Bft)
31.01.2021 14:12 -1,3 C -0,6 C 94 % 1002,5 hPa 0,0 l/m 8,8 km/h (2 Bft) O-SO 107 0 min 0,0 UV-I 109 W/m -2,1 C -3,8 C 14,5 km/h (3 Bft)
31.01.2021 14:14 -1,3 C -0,6 C 94 % 1002,4 hPa 0,0 l/m 9,5 km/h (2 Bft) O-NO 75 0 min 0,0 UV-I 123 W/m -2,1 C -4,4 C 16,1 km/h (3 Bft)
31.01.2021 14:16 -1,3 C 0,0 C 94 % 1002,5 hPa 0,0 l/m 7,4 km/h (2 Bft) O 87 0 min 0,0 UV-I 124 W/m -2,1 C -2,4 C 12,9 km/h (3 Bft)
31.01.2021 14:18 -1,2 C 0,0 C 94 % 1002,5 hPa 0,0 l/m 5,8 km/h (2 Bft) O-SO 117 0 min 0,0 UV-I 122 W/m -2,0 C -1,2 C 9,7 km/h (2 Bft)
31.01.2021 14:20 -1,2 C 0,6 C 94 % 1002,5 hPa 0,0 l/m 6,9 km/h (2 Bft) O-NO 78 0 min 0,0 UV-I 126 W/m -2,0 C -1,7 C 11,3 km/h (2 Bft)
31.01.2021 14:22 -1,1 C 0,6 C 94 % 1002,5 hPa 0,0 l/m 5,3 km/h (1 Bft) O-SO 111 0 min 0,0 UV-I 135 W/m -1,9 C -1,1 C 8,0 km/h (2 Bft)
31.01.2021 14:24 -1,2 C 0,0 C 94 % 1002,5 hPa 0,0 l/m 6,7 km/h (2 Bft) SO 130 0 min 0,0 UV-I 121 W/m -2,0 C -1,5 C 11,3 km/h (2 Bft)
31.01.2021 14:26 -1,2 C 0,0 C 94 % 1002,4 hPa 0,0 l/m 5,0 km/h (1 Bft) O-SO 111 0 min 0,0 UV-I 112 W/m -2,0 C -1,2 C 11,3 km/h (2 Bft)
31.01.2021 14:28 -1,2 C 0,0 C 94 % 1002,4 hPa 0,0 l/m 7,3 km/h (2 Bft) O-SO 106 0 min 0,0 UV-I 100 W/m -2,0 C -2,2 C 11,3 km/h (2 Bft)
31.01.2021 14:30 -1,2 C -0,6 C 94 % 1002,4 hPa 0,0 l/m 4,4 km/h (1 Bft) O-SO 119 0 min 0,0 UV-I 88 W/m -2,0 C -1,2 C 6,4 km/h (2 Bft)
31.01.2021 14:32 -1,1 C 0,0 C 94 % 1002,5 hPa 0,0 l/m 3,2 km/h (1 Bft) O-SO 114 0 min 0,0 UV-I 83 W/m -1,9 C -1,1 C 6,4 km/h (2 Bft)
31.01.2021 14:34 -1,1 C 0,0 C 94 % 1002,4 hPa 0,0 l/m 6,1 km/h (2 Bft) O-NO 65 0 min 0,0 UV-I 80 W/m -1,9 C -1,1 C 9,7 km/h (2 Bft)
31.01.2021 14:36 -1,2 C 0,0 C 94 % 1002,4 hPa 0,0 l/m 7,2 km/h (2 Bft) O 87 0 min 0,0 UV-I 92 W/m -2,0 C -2,1 C 12,9 km/h (3 Bft)
31.01.2021 14:38 -1,2 C 0,0 C 94 % 1002,4 hPa 0,0 l/m 8,5 km/h (2 Bft) O 93 0 min 0,0 UV-I 96 W/m -2,0 C -3,4 C 16,1 km/h (3 Bft)
31.01.2021 14:40 -1,2 C 0,0 C 94 % 1002,4 hPa 0,0 l/m 11,6 km/h (2 Bft) SO 130 0 min 0,0 UV-I 98 W/m -2,0 C -6,1 C 16,1 km/h (3 Bft)
31.01.2021 14:42 -1,2 C 0,0 C 94 % 1002,4 hPa 0,0 l/m 8,1 km/h (2 Bft) O 86 0 min 0,0 UV-I 100 W/m -2,0 C -3,0 C 16,1 km/h (3 Bft)
31.01.2021 14:44 -1,2 C 0,0 C 94 % 1002,2 hPa 0,0 l/m 7,6 km/h (2 Bft) O-SO 111 0 min 0,0 UV-I 96 W/m -2,0 C -2,5 C 12,9 km/h (3 Bft)
31.01.2021 14:46 -1,2 C 0,0 C 94 % 1002,2 hPa 0,0 l/m 9,4 km/h (2 Bft) O 94 0 min 0,0 UV-I 90 W/m -2,0 C -4,2 C 14,5 km/h (3 Bft)
31.01.2021 14:48 -1,2 C 0,0 C 94 % 1002,1 hPa 0,0 l/m 9,0 km/h (2 Bft) O 84 0 min 0,0 UV-I 81 W/m -2,0 C -3,9 C 14,5 km/h (3 Bft)
31.01.2021 14:50 -1,2 C 0,0 C 94 % 1002,1 hPa 0,0 l/m 5,4 km/h (1 Bft) SO 125 0 min 0,0 UV-I 76 W/m -2,0 C -1,2 C 11,3 km/h (2 Bft)
31.01.2021 14:52 -1,2 C -0,6 C 94 % 1002,2 hPa 0,0 l/m 2,4 km/h (1 Bft) SO 125 0 min 0,0 UV-I 74 W/m -2,0 C -1,2 C 4,8 km/h (1 Bft)
31.01.2021 14:54 -1,2 C -0,6 C 94 % 1002,2 hPa 0,0 l/m 8,9 km/h (2 Bft) O-SO 106 0 min 0,0 UV-I 75 W/m -2,0 C -3,8 C 14,5 km/h (3 Bft)
31.01.2021 14:56 -1,2 C -0,6 C 94 % 1002,2 hPa 0,0 l/m 5,8 km/h (2 Bft) O 98 0 min 0,0 UV-I 69 W/m -2,0 C -1,2 C 9,7 km/h (2 Bft)
31.01.2021 14:58 -1,2 C -0,6 C 94 % 1002,1 hPa 0,0 l/m 4,0 km/h (1 Bft) O-SO 113 0 min 0,0 UV-I 61 W/m -2,0 C -1,2 C 9,7 km/h (2 Bft)
31.01.2021 15:00 -1,2 C -0,6 C 94 % 1002,1 hPa 0,0 l/m 4,4 km/h (1 Bft) O-SO 113 0 min 0,0 UV-I 58 W/m -2,0 C -1,2 C 6,4 km/h (2 Bft)
31.01.2021 15:02 -1,1 C 0,0 C 94 % 1002,0 hPa 0,0 l/m 4,0 km/h (1 Bft) O 88 0 min 0,0 UV-I 56 W/m -1,9 C -1,1 C 6,4 km/h (2 Bft)
31.01.2021 15:04 -1,1 C 0,0 C 94 % 1002,1 hPa 0,0 l/m 4,5 km/h (1 Bft) O-SO 106 0 min 0,0 UV-I 56 W/m -1,9 C -1,1 C 8,0 km/h (2 Bft)
31.01.2021 15:06 -1,1 C 0,0 C 94 % 1002,0 hPa 0,0 l/m 10,0 km/h (2 Bft) O-NO 61 0 min 0,0 UV-I 61 W/m -1,9 C -4,7 C 19,3 km/h (3 Bft)
31.01.2021 15:08 -1,2 C 0,0 C 94 % 1001,9 hPa 0,0 l/m 10,8 km/h (2 Bft) O-NO 74 0 min 0,0 UV-I 63 W/m -2,0 C -5,4 C 19,3 km/h (3 Bft)
31.01.2021 15:10 -1,2 C -0,6 C 94 % 1001,8 hPa 0,0 l/m 8,5 km/h (2 Bft) O-NO 76 0 min 0,0 UV-I 65 W/m -2,0 C -3,4 C 12,9 km/h (3 Bft)
31.01.2021 15:12 -1,2 C 0,0 C 94 % 1001,8 hPa 0,0 l/m 7,5 km/h (2 Bft) O-NO 57 0 min 0,0 UV-I 75 W/m -2,0 C -2,4 C 12,9 km/h (3 Bft)
31.01.2021 15:14 -1,2 C 0,0 C 94 % 1001,7 hPa 0,0 l/m 6,0 km/h (2 Bft) NO 55 0 min 0,0 UV-I 85 W/m -2,0 C -1,2 C 11,3 km/h (2 Bft)
31.01.2021 15:16 -1,1 C 0,0 C 94 % 1001,8 hPa 0,0 l/m 7,5 km/h (2 Bft) NO 53 0 min 0,0 UV-I 90 W/m -1,9 C -2,3 C 11,3 km/h (2 Bft)
31.01.2021 15:18 -1,1 C 0,0 C 94 % 1001,8 hPa 0,0 l/m 9,1 km/h (2 Bft) O-NO 62 0 min 0,0 UV-I 93 W/m -1,9 C -3,9 C 14,5 km/h (3 Bft)
31.01.2021 15:20 -1,2 C 0,0 C 94 % 1001,8 hPa 0,0 l/m 6,1 km/h (2 Bft) O 86 0 min 0,0 UV-I 90 W/m -2,0 C -1,2 C 8,0 km/h (2 Bft)
31.01.2021 15:22 -1,1 C 0,0 C 94 % 1001,8 hPa 0,0 l/m 3,5 km/h (1 Bft) SO 143 0 min 0,0 UV-I 78 W/m -1,9 C -1,1 C 6,4 km/h (2 Bft)
31.01.2021 15:24 -1,2 C -0,6 C 94 % 1001,8 hPa 0,0 l/m 5,5 km/h (1 Bft) O-SO 111 0 min 0,0 UV-I 64 W/m -2,0 C -1,2 C 8,0 km/h (2 Bft)
31.01.2021 15:26 -1,2 C -0,6 C 94 % 1001,8 hPa 0,0 l/m 5,5 km/h (1 Bft) O-SO 113 0 min 0,0 UV-I 54 W/m -2,0 C -1,2 C 8,0 km/h (2 Bft)
31.01.2021 15:28 -1,2 C -0,6 C 94 % 1001,7 hPa 0,0 l/m 3,5 km/h (1 Bft) O-SO 113 0 min 0,0 UV-I 47 W/m -2,0 C -1,2 C 4,8 km/h (1 Bft)
31.01.2021 15:30 -1,2 C -0,6 C 94 % 1001,7 hPa 0,0 l/m 3,9 km/h (1 Bft) O-NO 67 0 min 0,0 UV-I 48 W/m -2,0 C -1,2 C 6,4 km/h (2 Bft)
31.01.2021 15:32 -1,2 C -0,6 C 94 % 1001,7 hPa 0,0 l/m 3,0 km/h (1 Bft) O-NO 66 0 min 0,0 UV-I 49 W/m -2,0 C -1,2 C 6,4 km/h (2 Bft)
31.01.2021 15:34 -1,1 C -0,6 C 94 % 1001,7 hPa 0,0 l/m 2,7 km/h (1 Bft) O-SO 109 0 min 0,0 UV-I 51 W/m -1,9 C -1,1 C 6,4 km/h (2 Bft)
31.01.2021 15:36 -1,1 C -0,6 C 94 % 1001,6 hPa 0,0 l/m 3,9 km/h (1 Bft) O-SO 109 0 min 0,0 UV-I 53 W/m -1,9 C -1,1 C 6,4 km/h (2 Bft)
31.01.2021 15:38 -1,2 C -0,6 C 94 % 1001,5 hPa 0,0 l/m 4,4 km/h (1 Bft) O-SO 109 0 min 0,0 UV-I 57 W/m -2,0 C -1,2 C 6,4 km/h (2 Bft)
31.01.2021 15:40 -1,1 C 0,0 C 94 % 1001,5 hPa 0,0 l/m 4,3 km/h (1 Bft) O-NO 62 0 min 0,0 UV-I 62 W/m -1,9 C -1,1 C 6,4 km/h (2 Bft)
31.01.2021 15:42 -1,1 C 0,0 C 94 % 1001,6 hPa 0,0 l/m 7,0 km/h (2 Bft) O-SO 102 0 min 0,0 UV-I 59 W/m -1,9 C -1,7 C 12,9 km/h (3 Bft)
31.01.2021 15:44 -1,1 C 0,0 C 94 % 1001,5 hPa 0,0 l/m 4,7 km/h (1 Bft) O 89 0 min 0,0 UV-I 54 W/m -1,9 C -1,1 C 9,7 km/h (2 Bft)
31.01.2021 15:46 -1,1 C 0,0 C 94 % 1001,5 hPa 0,0 l/m 5,0 km/h (1 Bft) O 91 0 min 0,0 UV-I 49 W/m -1,9 C -1,1 C 6,4 km/h (2 Bft)
31.01.2021 15:48 -1,1 C -0,6 C 94 % 1001,4 hPa 0,0 l/m 7,8 km/h (2 Bft) O-SO 119 0 min 0,0 UV-I 47 W/m -1,9 C -2,6 C 11,3 km/h (2 Bft)
31.01.2021 15:50 -1,2 C -0,6 C 94 % 1001,3 hPa 0,0 l/m 9,9 km/h (2 Bft) O-NO 67 0 min 0,0 UV-I 44 W/m -2,0 C -4,7 C 16,1 km/h (3 Bft)
31.01.2021 15:52 -1,2 C -1,1 C 94 % 1001,4 hPa 0,0 l/m 4,9 km/h (1 Bft) O 99 0 min 0,0 UV-I 42 W/m -2,0 C -1,2 C 11,3 km/h (2 Bft)
31.01.2021 15:54 -1,2 C -0,6 C 94 % 1001,3 hPa 0,0 l/m 10,1 km/h (2 Bft) SO 133 0 min 0,0 UV-I 41 W/m -2,0 C -4,9 C 14,5 km/h (3 Bft)
31.01.2021 15:56 -1,2 C -0,6 C 94 % 1001,4 hPa 0,0 l/m 6,2 km/h (2 Bft) SO 130 0 min 0,0 UV-I 39 W/m -2,0 C -1,2 C 11,3 km/h (2 Bft)
31.01.2021 15:58 -1,3 C -1,1 C 94 % 1001,4 hPa 0,0 l/m 10,1 km/h (2 Bft) SO 131 0 min 0,0 UV-I 34 W/m -2,1 C -5,0 C 14,5 km/h (3 Bft)
31.01.2021 16:00 -1,3 C -1,1 C 94 % 1001,3 hPa 0,0 l/m 6,2 km/h (2 Bft) SO 126 0 min 0,0 UV-I 32 W/m -2,1 C -1,3 C 12,9 km/h (3 Bft)
31.01.2021 16:02 -1,2 C -1,1 C 94 % 1001,3 hPa 0,0 l/m 2,2 km/h (1 Bft) SO 125 0 min 0,0 UV-I 28 W/m -2,0 C -1,2 C 4,8 km/h (1 Bft)
31.01.2021 16:04 -1,2 C -1,1 C 94 % 1001,3 hPa 0,0 l/m 5,4 km/h (1 Bft) O-SO 107 0 min 0,0 UV-I 24 W/m -2,0 C -1,2 C 9,7 km/h (2 Bft)
31.01.2021 16:06 -1,2 C -1,1 C 94 % 1001,3 hPa 0,0 l/m 4,3 km/h (1 Bft) O 83 0 min 0,0 UV-I 21 W/m -2,0 C -1,2 C 6,4 km/h (2 Bft)
31.01.2021 16:08 -1,2 C -0,6 C 94 % 1001,3 hPa 0,0 l/m 6,2 km/h (2 Bft) O-NO 76 0 min 0,0 UV-I 19 W/m -2,0 C -1,2 C 11,3 km/h (2 Bft)
31.01.2021 16:10 -1,2 C -1,1 C 94 % 1001,3 hPa 0,0 l/m 9,3 km/h (2 Bft) O 101 0 min 0,0 UV-I 18 W/m -2,0 C -4,2 C 12,9 km/h (3 Bft)
31.01.2021 16:12 -1,2 C -0,6 C 94 % 1001,3 hPa 0,0 l/m 9,1 km/h (2 Bft) O 86 0 min 0,0 UV-I 17 W/m -2,0 C -4,0 C 12,9 km/h (3 Bft)
31.01.2021 16:14 -1,3 C -1,1 C 94 % 1001,2 hPa 0,0 l/m 6,2 km/h (2 Bft) O-SO 119 0 min 0,0 UV-I 17 W/m -2,1 C -1,3 C 11,3 km/h (2 Bft)
31.01.2021 16:16 -1,3 C -1,1 C 94 % 1001,2 hPa 0,0 l/m 3,8 km/h (1 Bft) O 79 0 min 0,0 UV-I 16 W/m -2,1 C -1,3 C 6,4 km/h (2 Bft)
31.01.2021 16:18 -1,3 C -0,6 C 94 % 1001,2 hPa 0,0 l/m 6,4 km/h (2 Bft) O 81 0 min 0,0 UV-I 14 W/m -2,1 C -1,3 C 11,3 km/h (2 Bft)
31.01.2021 16:20 -1,2 C -0,6 C 94 % 1001,1 hPa 0,0 l/m 6,1 km/h (2 Bft) O 91 0 min 0,0 UV-I 15 W/m -2,0 C -1,2 C 9,7 km/h (2 Bft)
31.01.2021 16:22 -1,2 C -0,6 C 94 % 1001,1 hPa 0,0 l/m 5,7 km/h (1 Bft) O 97 0 min 0,0 UV-I 16 W/m -2,0 C -1,2 C 9,7 km/h (2 Bft)
31.01.2021 16:24 -1,2 C -0,6 C 94 % 1001,0 hPa 0,0 l/m 6,8 km/h (2 Bft) O 94 0 min 0,0 UV-I 17 W/m -2,0 C -1,6 C 9,7 km/h (2 Bft)
31.01.2021 16:26 -1,2 C -0,6 C 94 % 1001,1 hPa 0,0 l/m 6,2 km/h (2 Bft) O-NO 67 0 min 0,0 UV-I 18 W/m -2,0 C -1,2 C 11,3 km/h (2 Bft)
31.01.2021 16:28 -1,2 C -0,6 C 94 % 1001,0 hPa 0,0 l/m 5,0 km/h (1 Bft) O 82 0 min 0,0 UV-I 19 W/m -2,0 C -1,2 C 8,0 km/h (2 Bft)
31.01.2021 16:30 -1,2 C -0,6 C 94 % 1000,9 hPa 0,0 l/m 7,1 km/h (2 Bft) O-NO 64 0 min 0,0 UV-I 19 W/m -2,0 C -2,0 C 11,3 km/h (2 Bft)
31.01.2021 16:32 -1,2 C -0,6 C 94 % 1000,9 hPa 0,0 l/m 8,0 km/h (2 Bft) O-NO 78 0 min 0,0 UV-I 18 W/m -2,0 C -2,9 C 12,9 km/h (3 Bft)
31.01.2021 16:34 -1,2 C -0,6 C 94 % 1000,9 hPa 0,0 l/m 4,6 km/h (1 Bft) O 91 0 min 0,0 UV-I 18 W/m -2,0 C -1,2 C 6,4 km/h (2 Bft)
31.01.2021 16:36 -1,2 C -0,6 C 94 % 1000,9 hPa 0,0 l/m 6,2 km/h (2 Bft) O-NO 65 0 min 0,0 UV-I 18 W/m -2,0 C -1,2 C 11,3 km/h (2 Bft)
31.01.2021 16:38 -1,2 C -0,6 C 94 % 1000,9 hPa 0,0 l/m 5,0 km/h (1 Bft) O 92 0 min 0,0 UV-I 17 W/m -2,0 C -1,2 C 9,7 km/h (2 Bft)
31.01.2021 16:40 -1,2 C -0,6 C 94 % 1001,0 hPa 0,0 l/m 4,0 km/h (1 Bft) O-NO 76 0 min 0,0 UV-I 16 W/m -2,0 C -1,2 C 6,4 km/h (2 Bft)
31.01.2021 16:42 -1,2 C -0,6 C 94 % 1000,9 hPa 0,0 l/m 2,1 km/h (1 Bft) O-NO 76 0 min 0,0 UV-I 16 W/m -2,0 C -1,2 C 3,2 km/h (1 Bft)
31.01.2021 16:44 -1,2 C -0,6 C 94 % 1000,9 hPa 0,0 l/m 1,5 km/h (1 Bft) O-NO 76 0 min 0,0 UV-I 15 W/m -2,0 C -1,2 C 4,8 km/h (1 Bft)
31.01.2021 16:46 -1,2 C -1,1 C 95 % 1001,0 hPa 0,0 l/m 2,1 km/h (1 Bft) O 87 0 min 0,0 UV-I 14 W/m -1,9 C -1,2 C 4,8 km/h (1 Bft)
31.01.2021 16:48 -1,1 C -1,1 C 95 % 1000,8 hPa 0,0 l/m 4,5 km/h (1 Bft) S-SO 148 0 min 0,0 UV-I 12 W/m -1,8 C -1,1 C 8,0 km/h (2 Bft)
31.01.2021 16:50 -1,1 C -1,1 C 95 % 1000,8 hPa 0,0 l/m 4,4 km/h (1 Bft) SO 124 0 min 0,0 UV-I 12 W/m -1,8 C -1,1 C 6,4 km/h (2 Bft)
31.01.2021 16:52 -1,1 C -1,1 C 95 % 1000,8 hPa 0,0 l/m 2,7 km/h (1 Bft) SO 124 0 min 0,0 UV-I 11 W/m -1,8 C -1,1 C 3,2 km/h (1 Bft)
31.01.2021 16:54 -1,1 C -1,1 C 94 % 1000,8 hPa 0,0 l/m 3,5 km/h (1 Bft) O 86 0 min 0,0 UV-I 11 W/m -1,9 C -1,1 C 6,4 km/h (2 Bft)
31.01.2021 16:56 -1,1 C -0,6 C 94 % 1000,8 hPa 0,0 l/m 5,8 km/h (2 Bft) O 80 0 min 0,0 UV-I 11 W/m -1,9 C -1,1 C 9,7 km/h (2 Bft)
31.01.2021 16:58 -1,1 C -0,6 C 94 % 1000,7 hPa 0,0 l/m 6,3 km/h (2 Bft) O-NO 72 0 min 0,0 UV-I 10 W/m -1,9 C -1,1 C 8,0 km/h (2 Bft)
31.01.2021 17:00 -1,1 C -0,6 C 94 % 1000,7 hPa 0,0 l/m 5,4 km/h (1 Bft) O-NO 62 0 min 0,0 UV-I 9 W/m -1,9 C -1,1 C 8,0 km/h (2 Bft)
31.01.2021 17:02 -1,1 C -0,6 C 94 % 1000,7 hPa 0,0 l/m 5,2 km/h (1 Bft) NO 41 0 min 0,0 UV-I 9 W/m -1,9 C -1,1 C 8,0 km/h (2 Bft)
31.01.2021 17:04 -1,1 C -0,6 C 95 % 1000,6 hPa 0,0 l/m 3,6 km/h (1 Bft) NO 41 0 min 0,0 UV-I 7 W/m -1,8 C -1,1 C 4,8 km/h (1 Bft)
31.01.2021 17:06 -1,1 C -0,6 C 94 % 1000,6 hPa 0,0 l/m 4,5 km/h (1 Bft) NO 53 0 min 0,0 UV-I 7 W/m -1,9 C -1,1 C 9,7 km/h (2 Bft)
31.01.2021 17:08 -1,2 C -0,6 C 94 % 1000,6 hPa 0,0 l/m 3,7 km/h (1 Bft) NO 53 0 min 0,0 UV-I 5 W/m -2,0 C -1,2 C 6,4 km/h (2 Bft)
31.01.2021 17:10 -1,1 C -0,6 C 94 % 1000,5 hPa 0,0 l/m 5,6 km/h (1 Bft) N-NO 32 0 min 0,0 UV-I 5 W/m -1,9 C -1,1 C 8,0 km/h (2 Bft)
31.01.2021 17:12 -1,1 C -0,6 C 95 % 1000,6 hPa 0,0 l/m 6,7 km/h (2 Bft) O-NO 75 0 min 0,0 UV-I 1 W/m -1,8 C -1,4 C 8,0 km/h (2 Bft)
31.01.2021 17:14 -1,1 C -0,6 C 95 % 1000,5 hPa 0,0 l/m 6,5 km/h (2 Bft) NO 46 0 min 0,0 UV-I 0 W/m -1,8 C -1,2 C 8,0 km/h (2 Bft)
31.01.2021 17:16 -1,1 C -0,6 C 95 % 1000,6 hPa 0,0 l/m 5,4 km/h (1 Bft) NO 44 0 min 0,0 UV-I 0 W/m -1,8 C -1,1 C 8,0 km/h (2 Bft)
31.01.2021 17:18 -1,1 C -0,6 C 95 % 1000,5 hPa 0,0 l/m 5,6 km/h (1 Bft) NO 36 0 min 0,0 UV-I 0 W/m -1,8 C -1,1 C 6,4 km/h (2 Bft)
31.01.2021 17:20 -1,1 C -0,6 C 95 % 1000,5 hPa 0,0 l/m 5,9 km/h (2 Bft) NO 52 0 min 0,0 UV-I 0 W/m -1,8 C -1,1 C 8,0 km/h (2 Bft)
31.01.2021 17:22 -1,1 C -0,6 C 95 % 1000,5 hPa 0,0 l/m 5,1 km/h (1 Bft) O-NO 60 0 min 0,0 UV-I 0 W/m -1,8 C -1,1 C 9,7 km/h (2 Bft)
31.01.2021 17:24 -1,1 C -0,6 C 95 % 1000,5 hPa 0,0 l/m 6,0 km/h (2 Bft) O-NO 74 0 min 0,0 UV-I 0 W/m -1,8 C -1,1 C 12,9 km/h (3 Bft)
31.01.2021 17:26 -1,1 C -0,6 C 95 % 1000,3 hPa 0,0 l/m 4,6 km/h (1 Bft) NO 54 0 min 0,0 UV-I 0 W/m -1,8 C -1,1 C 6,4 km/h (2 Bft)
31.01.2021 17:28 -1,1 C -0,6 C 95 % 1000,4 hPa 0,0 l/m 6,2 km/h (2 Bft) O-NO 57 0 min 0,0 UV-I 0 W/m -1,8 C -1,1 C 8,0 km/h (2 Bft)
31.01.2021 17:30 -1,1 C -0,6 C 95 % 1000,3 hPa 0,0 l/m 6,6 km/h (2 Bft) O-NO 69 0 min 0,0 UV-I 0 W/m -1,8 C -1,3 C 12,9 km/h (3 Bft)
31.01.2021 17:32 -1,1 C -0,6 C 95 % 1000,4 hPa 0,0 l/m 6,1 km/h (2 Bft) O-NO 67 0 min 0,0 UV-I 0 W/m -1,8 C -1,1 C 8,0 km/h (2 Bft)
31.01.2021 17:34 -1,1 C -0,6 C 95 % 1000,3 hPa 0,0 l/m 5,3 km/h (1 Bft) O-NO 71 0 min 0,0 UV-I 0 W/m -1,8 C -1,1 C 8,0 km/h (2 Bft)
31.01.2021 17:36 -1,1 C -0,6 C 95 % 1000,4 hPa 0,0 l/m 4,8 km/h (1 Bft) O-NO 67 0 min 0,0 UV-I 0 W/m -1,8 C -1,1 C 8,0 km/h (2 Bft)
31.01.2021 17:38 -1,1 C -0,6 C 95 % 1000,5 hPa 0,0 l/m 3,1 km/h (1 Bft) O-NO 66 0 min 0,0 UV-I 0 W/m -1,8 C -1,1 C 6,4 km/h (2 Bft)
31.01.2021 17:40 -1,1 C -1,1 C 95 % 1000,4 hPa 0,0 l/m 3,1 km/h (1 Bft) O-NO 66 0 min 0,0 UV-I 0 W/m -1,8 C -1,1 C 4,8 km/h (1 Bft)
31.01.2021 17:42 -1,1 C -1,1 C 95 % 1000,5 hPa 0,0 l/m 5,0 km/h (1 Bft) O-NO 70 0 min 0,0 UV-I 0 W/m -1,8 C -1,1 C 8,0 km/h (2 Bft)
31.01.2021 17:44 -1,1 C -1,1 C 95 % 1000,5 hPa 0,0 l/m 3,1 km/h (1 Bft) O-NO 70 0 min 0,0 UV-I 0 W/m -1,8 C -1,1 C 4,8 km/h (1 Bft)
31.01.2021 17:46 -1,1 C -0,6 C 95 % 1000,4 hPa 0,0 l/m 2,4 km/h (1 Bft) O-NO 70 0 min 0,0 UV-I 0 W/m -1,8 C -1,1 C 4,8 km/h (1 Bft)
31.01.2021 17:48 -1,1 C -0,6 C 95 % 1000,3 hPa 0,0 l/m 4,4 km/h (1 Bft) NO 55 0 min 0,0 UV-I 0 W/m -1,8 C -1,1 C 6,4 km/h (2 Bft)
31.01.2021 17:50 -1,1 C -0,6 C 95 % 1000,3 hPa 0,0 l/m 6,2 km/h (2 Bft) O 92 0 min 0,0 UV-I 0 W/m -1,8 C -1,1 C 9,7 km/h (2 Bft)
31.01.2021 17:52 -1,1 C -0,6 C 95 % 1000,3 hPa 0,0 l/m 6,0 km/h (2 Bft) NO 45 0 min 0,0 UV-I 0 W/m -1,8 C -1,1 C 11,3 km/h (2 Bft)
31.01.2021 17:54 -1,1 C -0,6 C 95 % 1000,2 hPa 0,0 l/m 4,3 km/h (1 Bft) NO 39 0 min 0,0 UV-I 0 W/m -1,8 C -1,1 C 6,4 km/h (2 Bft)
31.01.2021 17:56 -1,1 C -1,1 C 95 % 1000,3 hPa 0,0 l/m 3,3 km/h (1 Bft) NO 38 0 min 0,0 UV-I 0 W/m -1,8 C -1,1 C 4,8 km/h (1 Bft)
31.01.2021 17:58 -1,1 C -0,6 C 95 % 1000,2 hPa 0,0 l/m 5,3 km/h (1 Bft) NO 56 0 min 0,0 UV-I 0 W/m -1,8 C -1,1 C 6,4 km/h (2 Bft)
31.01.2021 18:00 -1,1 C -1,1 C 95 % 1000,2 hPa 0,0 l/m 2,6 km/h (1 Bft) NO 56 0 min 0,0 UV-I 0 W/m -1,8 C -1,1 C 6,4 km/h (2 Bft)
31.01.2021 18:02 -1,1 C -0,6 C 95 % 1000,2 hPa 0,0 l/m 3,4 km/h (1 Bft) O-NO 61 0 min 0,0 UV-I 0 W/m -1,8 C -1,1 C 8,0 km/h (2 Bft)
31.01.2021 18:04 -1,0 C -0,6 C 95 % 1000,1 hPa 0,0 l/m 3,8 km/h (1 Bft) O-NO 63 0 min 0,0 UV-I 0 W/m -1,7 C -1,0 C 6,4 km/h (2 Bft)
31.01.2021 18:06 -1,0 C -0,6 C 95 % 1000,1 hPa 0,0 l/m 3,7 km/h (1 Bft) NO 35 0 min 0,0 UV-I 0 W/m -1,7 C -1,0 C 6,4 km/h (2 Bft)
31.01.2021 18:08 -1,0 C -0,6 C 95 % 1000,1 hPa 0,0 l/m 5,3 km/h (1 Bft) O-NO 58 0 min 0,0 UV-I 0 W/m -1,7 C -1,0 C 8,0 km/h (2 Bft)
31.01.2021 18:10 -1,0 C -0,6 C 95 % 1000,0 hPa 0,0 l/m 4,9 km/h (1 Bft) NO 42 0 min 0,0 UV-I 0 W/m -1,7 C -1,0 C 8,0 km/h (2 Bft)
31.01.2021 18:12 -1,1 C -0,6 C 95 % 1000,0 hPa 0,0 l/m 5,7 km/h (1 Bft) N-NO 32 0 min 0,0 UV-I 0 W/m -1,8 C -1,1 C 8,0 km/h (2 Bft)
31.01.2021 18:14 -1,0 C -0,6 C 95 % 1000,0 hPa 0,0 l/m 5,8 km/h (2 Bft) O-NO 65 0 min 0,0 UV-I 0 W/m -1,7 C -1,0 C 8,0 km/h (2 Bft)
31.01.2021 18:16 -1,0 C -0,6 C 95 % 999,8 hPa 0,0 l/m 4,7 km/h (1 Bft) NO 39 0 min 0,0 UV-I 0 W/m -1,7 C -1,0 C 6,4 km/h (2 Bft)
31.01.2021 18:18 -1,1 C -0,6 C 95 % 999,9 hPa 0,0 l/m 2,4 km/h (1 Bft) NO 48 0 min 0,0 UV-I 0 W/m -1,8 C -1,1 C 6,4 km/h (2 Bft)
31.01.2021 18:20 -1,0 C -0,6 C 95 % 999,9 hPa 0,0 l/m 4,7 km/h (1 Bft) O-NO 78 0 min 0,0 UV-I 0 W/m -1,7 C -1,0 C 8,0 km/h (2 Bft)
31.01.2021 18:22 -1,0 C -0,6 C 95 % 999,8 hPa 0,0 l/m 4,6 km/h (1 Bft) NO 48 0 min 0,0 UV-I 0 W/m -1,7 C -1,0 C 8,0 km/h (2 Bft)
31.01.2021 18:24 -0,9 C -0,6 C 95 % 999,9 hPa 0,0 l/m 5,8 km/h (2 Bft) O 82 0 min 0,0 UV-I 0 W/m -1,6 C -0,9 C 11,3 km/h (2 Bft)
31.01.2021 18:26 -0,9 C -0,6 C 95 % 999,9 hPa 0,0 l/m 5,3 km/h (1 Bft) O 90 0 min 0,0 UV-I 0 W/m -1,6 C -0,9 C 8,0 km/h (2 Bft)
31.01.2021 18:28 -0,9 C -0,6 C 95 % 999,7 hPa 0,0 l/m 4,3 km/h (1 Bft) O 98 0 min 0,0 UV-I 0 W/m -1,6 C -0,9 C 6,4 km/h (2 Bft)
31.01.2021 18:30 -1,0 C -0,6 C 95 % 999,7 hPa 0,0 l/m 4,1 km/h (1 Bft) NO 55 0 min 0,0 UV-I 0 W/m -1,7 C -1,0 C 6,4 km/h (2 Bft)
31.01.2021 18:32 -0,9 C -0,6 C 95 % 999,7 hPa 0,0 l/m 2,8 km/h (1 Bft) N-NO 19 0 min 0,0 UV-I 0 W/m -1,6 C -0,9 C 6,4 km/h (2 Bft)
31.01.2021 18:34 -1,0 C -0,6 C 95 % 999,7 hPa 0,0 l/m 4,8 km/h (1 Bft) N-NO 32 0 min 0,0 UV-I 0 W/m -1,7 C -1,0 C 8,0 km/h (2 Bft)
31.01.2021 18:36 -0,9 C -0,6 C 95 % 999,7 hPa 0,0 l/m 4,6 km/h (1 Bft) NO 44 0 min 0,0 UV-I 0 W/m -1,6 C -0,9 C 6,4 km/h (2 Bft)
31.01.2021 18:38 -0,9 C -0,6 C 95 % 999,6 hPa 0,0 l/m 4,7 km/h (1 Bft) O-NO 61 0 min 0,0 UV-I 0 W/m -1,6 C -0,9 C 8,0 km/h (2 Bft)
31.01.2021 18:40 -0,9 C -0,6 C 95 % 999,5 hPa 0,0 l/m 5,7 km/h (1 Bft) NO 42 0 min 0,0 UV-I 0 W/m -1,6 C -0,9 C 8,0 km/h (2 Bft)
31.01.2021 18:42 -0,9 C -0,6 C 95 % 999,6 hPa 0,0 l/m 4,7 km/h (1 Bft) O-NO 61 0 min 0,0 UV-I 0 W/m -1,6 C -0,9 C 6,4 km/h (2 Bft)
31.01.2021 18:44 -0,9 C -0,6 C 95 % 999,5 hPa 0,0 l/m 4,4 km/h (1 Bft) NO 51 0 min 0,0 UV-I 0 W/m -1,6 C -0,9 C 6,4 km/h (2 Bft)
31.01.2021 18:46 -0,9 C -0,6 C 95 % 999,5 hPa 0,0 l/m 6,8 km/h (2 Bft) NO 48 0 min 0,0 UV-I 0 W/m -1,6 C -1,3 C 8,0 km/h (2 Bft)
31.01.2021 18:48 -0,9 C -0,6 C 95 % 999,5 hPa 0,0 l/m 6,8 km/h (2 Bft) O-NO 74 0 min 0,0 UV-I 0 W/m -1,6 C -1,3 C 9,7 km/h (2 Bft)
31.01.2021 18:50 -0,9 C -0,6 C 95 % 999,5 hPa 0,0 l/m 6,5 km/h (2 Bft) NO 54 0 min 0,0 UV-I 0 W/m -1,6 C -1,0 C 8,0 km/h (2 Bft)
31.01.2021 18:52 -1,0 C -0,6 C 95 % 999,4 hPa 0,0 l/m 6,4 km/h (2 Bft) O-NO 63 0 min 0,0 UV-I 0 W/m -1,7 C -1,0 C 9,7 km/h (2 Bft)
31.01.2021 18:54 -1,0 C -0,6 C 95 % 999,4 hPa 0,0 l/m 6,9 km/h (2 Bft) NO 43 0 min 0,0 UV-I 0 W/m -1,7 C -1,5 C 9,7 km/h (2 Bft)
31.01.2021 18:56 -1,0 C -0,6 C 95 % 999,3 hPa 0,0 l/m 6,3 km/h (2 Bft) O-NO 58 0 min 0,0 UV-I 0 W/m -1,7 C -1,0 C 9,7 km/h (2 Bft)
31.01.2021 18:58 -0,9 C -0,6 C 95 % 999,3 hPa 0,0 l/m 6,2 km/h (2 Bft) O-NO 57 0 min 0,0 UV-I 0 W/m -1,6 C -0,9 C 9,7 km/h (2 Bft)
31.01.2021 19:00 -1,0 C -0,6 C 95 % 999,4 hPa 0,0 l/m 6,4 km/h (2 Bft) NO 44 0 min 0,0 UV-I 0 W/m -1,7 C -1,0 C 9,7 km/h (2 Bft)
31.01.2021 19:02 -0,9 C -0,6 C 95 % 999,3 hPa 0,0 l/m 6,1 km/h (2 Bft) NO 37 0 min 0,0 UV-I 0 W/m -1,6 C -0,9 C 8,0 km/h (2 Bft)
31.01.2021 19:04 -0,9 C -0,6 C 95 % 999,3 hPa 0,0 l/m 5,6 km/h (1 Bft) O-NO 70 0 min 0,0 UV-I 0 W/m -1,6 C -0,9 C 9,7 km/h (2 Bft)
31.01.2021 19:06 -1,0 C -0,6 C 95 % 999,2 hPa 0,0 l/m 5,2 km/h (1 Bft) O-NO 63 0 min 0,0 UV-I 0 W/m -1,7 C -1,0 C 8,0 km/h (2 Bft)
31.01.2021 19:08 -0,9 C -0,6 C 95 % 999,2 hPa 0,0 l/m 5,4 km/h (1 Bft) O-NO 63 0 min 0,0 UV-I 0 W/m -1,6 C -0,9 C 9,7 km/h (2 Bft)
31.01.2021 19:10 -0,9 C -0,6 C 95 % 999,2 hPa 0,0 l/m 6,1 km/h (2 Bft) O-NO 61 0 min 0,0 UV-I 0 W/m -1,6 C -0,9 C 9,7 km/h (2 Bft)
31.01.2021 19:12 -0,9 C -0,6 C 95 % 999,0 hPa 0,0 l/m 5,7 km/h (1 Bft) O-NO 57 0 min 0,0 UV-I 0 W/m -1,6 C -0,9 C 9,7 km/h (2 Bft)
31.01.2021 19:14 -0,9 C -0,6 C 95 % 999,0 hPa 0,0 l/m 6,7 km/h (2 Bft) NO 44 0 min 0,0 UV-I 0 W/m -1,6 C -1,2 C 9,7 km/h (2 Bft)
31.01.2021 19:16 -0,9 C -0,6 C 95 % 998,9 hPa 0,0 l/m 6,2 km/h (2 Bft) NO 42 0 min 0,0 UV-I 0 W/m -1,6 C -0,9 C 8,0 km/h (2 Bft)
31.01.2021 19:18 -0,9 C -0,6 C 95 % 998,8 hPa 0,0 l/m 6,0 km/h (2 Bft) N-NO 29 0 min 0,0 UV-I 0 W/m -1,6 C -0,9 C 8,0 km/h (2 Bft)
31.01.2021 19:20 -0,9 C -0,6 C 95 % 998,9 hPa 0,0 l/m 5,3 km/h (1 Bft) NO 40 0 min 0,0 UV-I 0 W/m -1,6 C -0,9 C 8,0 km/h (2 Bft)
31.01.2021 19:22 -0,9 C -0,6 C 95 % 998,8 hPa 0,0 l/m 4,6 km/h (1 Bft) NO 46 0 min 0,0 UV-I 0 W/m -1,6 C -0,9 C 8,0 km/h (2 Bft)
31.01.2021 19:24 -0,9 C -0,6 C 95 % 998,8 hPa 0,0 l/m 4,4 km/h (1 Bft) NO 47 0 min 0,0 UV-I 0 W/m -1,6 C -0,9 C 8,0 km/h (2 Bft)
31.01.2021 19:26 -0,9 C -0,6 C 95 % 998,8 hPa 0,0 l/m 4,4 km/h (1 Bft) NO 53 0 min 0,0 UV-I 0 W/m -1,6 C -0,9 C 8,0 km/h (2 Bft)
31.01.2021 19:28 -0,9 C -0,6 C 95 % 998,8 hPa 0,0 l/m 4,5 km/h (1 Bft) N-NO 27 0 min 0,0 UV-I 0 W/m -1,6 C -0,9 C 6,4 km/h (2 Bft)
31.01.2021 19:30 -0,9 C -0,6 C 95 % 998,7 hPa 0,0 l/m 5,4 km/h (1 Bft) N-NO 19 0 min 0,0 UV-I 0 W/m -1,6 C -0,9 C 8,0 km/h (2 Bft)
31.01.2021 19:32 -0,9 C -0,6 C 95 % 998,7 hPa 0,0 l/m 4,9 km/h (1 Bft) N-NO 28 0 min 0,0 UV-I 0 W/m -1,6 C -0,9 C 8,0 km/h (2 Bft)
31.01.2021 19:34 -0,9 C -0,6 C 95 % 998,7 hPa 0,0 l/m 4,6 km/h (1 Bft) N-NO 24 0 min 0,0 UV-I 0 W/m -1,6 C -0,9 C 6,4 km/h (2 Bft)
31.01.2021 19:36 -0,9 C -0,6 C 95 % 998,6 hPa 0,0 l/m 4,5 km/h (1 Bft) O-NO 57 0 min 0,0 UV-I 0 W/m -1,6 C -0,9 C 8,0 km/h (2 Bft)
31.01.2021 19:38 -0,9 C -0,6 C 95 % 998,7 hPa 0,0 l/m 5,6 km/h (1 Bft) NO 45 0 min 0,0 UV-I 0 W/m -1,6 C -0,9 C 8,0 km/h (2 Bft)
31.01.2021 19:40 -0,8 C -0,6 C 95 % 998,7 hPa 0,0 l/m 7,3 km/h (2 Bft) N-NO 24 0 min 0,0 UV-I 0 W/m -1,5 C -1,8 C 12,9 km/h (3 Bft)
31.01.2021 19:42 -0,8 C -0,6 C 95 % 998,6 hPa 0,0 l/m 7,1 km/h (2 Bft) N-NO 26 0 min 0,0 UV-I 0 W/m -1,5 C -1,5 C 12,9 km/h (3 Bft)
31.01.2021 19:44 -0,8 C -0,6 C 95 % 998,5 hPa 0,0 l/m 5,7 km/h (1 Bft) NO 38 0 min 0,0 UV-I 0 W/m -1,5 C -0,8 C 8,0 km/h (2 Bft)
31.01.2021 19:46 -0,8 C -0,6 C 95 % 998,5 hPa 0,0 l/m 9,0 km/h (2 Bft) N-NO 29 0 min 0,0 UV-I 0 W/m -1,5 C -3,4 C 12,9 km/h (3 Bft)
31.01.2021 19:48 -0,8 C -0,6 C 95 % 998,4 hPa 0,0 l/m 7,4 km/h (2 Bft) N-NO 24 0 min 0,0 UV-I 0 W/m -1,5 C -1,9 C 9,7 km/h (2 Bft)
31.01.2021 19:50 -0,8 C -0,6 C 95 % 998,4 hPa 0,0 l/m 7,1 km/h (2 Bft) NO 34 0 min 0,0 UV-I 0 W/m -1,5 C -1,5 C 9,7 km/h (2 Bft)
31.01.2021 19:52 -0,8 C -0,6 C 95 % 998,4 hPa 0,0 l/m 9,1 km/h (2 Bft) N-NO 28 0 min 0,0 UV-I 0 W/m -1,5 C -3,5 C 12,9 km/h (3 Bft)
31.01.2021 19:54 -0,8 C -0,6 C 95 % 998,3 hPa 0,0 l/m 6,7 km/h (2 Bft) N-NO 32 0 min 0,0 UV-I 0 W/m -1,5 C -1,1 C 9,7 km/h (2 Bft)
31.01.2021 19:56 -0,8 C -0,6 C 95 % 998,3 hPa 0,0 l/m 7,3 km/h (2 Bft) NO 40 0 min 0,0 UV-I 0 W/m -1,5 C -1,8 C 11,3 km/h (2 Bft)
31.01.2021 19:58 -0,8 C -0,6 C 95 % 998,2 hPa 0,0 l/m 8,5 km/h (2 Bft) NO 38 0 min 0,0 UV-I 0 W/m -1,5 C -3,0 C 14,5 km/h (3 Bft)
31.01.2021 20:00 -0,8 C -0,6 C 95 % 998,2 hPa 0,0 l/m 9,2 km/h (2 Bft) O-NO 59 0 min 0,0 UV-I 0 W/m -1,5 C -3,6 C 14,5 km/h (3 Bft)
31.01.2021 20:02 -0,8 C -0,6 C 95 % 998,2 hPa 0,0 l/m 7,2 km/h (2 Bft) O-NO 60 0 min 0,0 UV-I 0 W/m -1,5 C -1,7 C 12,9 km/h (3 Bft)
31.01.2021 20:04 -0,8 C -0,6 C 95 % 998,1 hPa 0,0 l/m 7,0 km/h (2 Bft) NO 39 0 min 0,0 UV-I 0 W/m -1,5 C -1,4 C 9,7 km/h (2 Bft)
31.01.2021 20:06 -0,8 C -0,6 C 95 % 998,2 hPa 0,0 l/m 7,5 km/h (2 Bft) O-NO 59 0 min 0,0 UV-I 0 W/m -1,5 C -2,0 C 11,3 km/h (2 Bft)
31.01.2021 20:08 -0,8 C -0,6 C 95 % 998,1 hPa 0,0 l/m 7,8 km/h (2 Bft) N-NO 26 0 min 0,0 UV-I 0 W/m -1,5 C -2,3 C 14,5 km/h (3 Bft)
31.01.2021 20:10 -0,8 C -0,6 C 95 % 998,1 hPa 0,0 l/m 7,3 km/h (2 Bft) N-NO 20 0 min 0,0 UV-I 0 W/m -1,5 C -1,8 C 9,7 km/h (2 Bft)
31.01.2021 20:12 -0,8 C -0,6 C 95 % 998,2 hPa 0,0 l/m 7,4 km/h (2 Bft) N 10 0 min 0,0 UV-I 0 W/m -1,5 C -1,9 C 11,3 km/h (2 Bft)
31.01.2021 20:14 -0,7 C -0,6 C 95 % 998,2 hPa 0,0 l/m 7,9 km/h (2 Bft) N-NO 13 0 min 0,0 UV-I 0 W/m -1,4 C -2,3 C 9,7 km/h (2 Bft)
31.01.2021 20:16 -0,8 C -0,6 C 95 % 998,0 hPa 0,0 l/m 6,5 km/h (2 Bft) NO 40 0 min 0,0 UV-I 0 W/m -1,5 C -0,9 C 11,3 km/h (2 Bft)
31.01.2021 20:18 -0,8 C -0,6 C 95 % 998,0 hPa 0,0 l/m 9,4 km/h (2 Bft) N-NO 21 0 min 0,0 UV-I 0 W/m -1,5 C -3,8 C 12,9 km/h (3 Bft)
31.01.2021 20:20 -0,8 C -0,6 C 95 % 997,9 hPa 0,0 l/m 8,6 km/h (2 Bft) N-NO 26 0 min 0,0 UV-I 0 W/m -1,5 C -3,1 C 12,9 km/h (3 Bft)
31.01.2021 20:22 -0,7 C -0,6 C 95 % 998,0 hPa 0,0 l/m 6,8 km/h (2 Bft) N-NO 18 0 min 0,0 UV-I 0 W/m -1,4 C -1,1 C 12,9 km/h (3 Bft)
31.01.2021 20:24 -0,7 C -0,6 C 95 % 998,0 hPa 0,0 l/m 5,5 km/h (1 Bft) N-NO 13 0 min 0,0 UV-I 0 W/m -1,4 C -0,7 C 8,0 km/h (2 Bft)
31.01.2021 20:26 -0,7 C -0,6 C 95 % 998,0 hPa 0,0 l/m 4,0 km/h (1 Bft) N-NO 17 0 min 0,0 UV-I 0 W/m -1,4 C -0,7 C 6,4 km/h (2 Bft)
31.01.2021 20:28 -0,7 C -0,6 C 95 % 997,9 hPa 0,0 l/m 5,6 km/h (1 Bft) N-NO 30 0 min 0,0 UV-I 0 W/m -1,4 C -0,7 C 9,7 km/h (2 Bft)
31.01.2021 20:30 -0,7 C -0,6 C 95 % 997,9 hPa 0,0 l/m 5,5 km/h (1 Bft) NO 42 0 min 0,0 UV-I 0 W/m -1,4 C -0,7 C 9,7 km/h (2 Bft)
31.01.2021 20:32 -0,7 C -0,6 C 95 % 997,9 hPa 0,0 l/m 6,7 km/h (2 Bft) O-NO 65 0 min 0,0 UV-I 0 W/m -1,4 C -1,0 C 12,9 km/h (3 Bft)
31.01.2021 20:34 -0,7 C -0,6 C 95 % 997,8 hPa 0,2 l/m 4,3 km/h (1 Bft) N-NO 26 0 min 0,0 UV-I 0 W/m -1,4 C -0,7 C 6,4 km/h (2 Bft)
31.01.2021 20:36 -0,7 C -0,6 C 95 % 997,7 hPa 0,0 l/m 8,1 km/h (2 Bft) NO 38 0 min 0,0 UV-I 0 W/m -1,4 C -2,5 C 14,5 km/h (3 Bft)
31.01.2021 20:38 -0,7 C -0,6 C 95 % 997,6 hPa 0,0 l/m 6,2 km/h (2 Bft) O-NO 59 0 min 0,0 UV-I 0 W/m -1,4 C -0,7 C 12,9 km/h (3 Bft)
31.01.2021 20:40 -0,7 C -0,6 C 95 % 997,7 hPa 0,0 l/m 4,8 km/h (1 Bft) O 85 0 min 0,0 UV-I 0 W/m -1,4 C -0,7 C 9,7 km/h (2 Bft)
31.01.2021 20:42 -0,7 C -0,6 C 95 % 997,6 hPa 0,0 l/m 6,2 km/h (2 Bft) NO 42 0 min 0,0 UV-I 0 W/m -1,4 C -0,7 C 11,3 km/h (2 Bft)
31.01.2021 20:44 -0,6 C -0,6 C 95 % 997,5 hPa 0,0 l/m 4,9 km/h (1 Bft) NO 55 0 min 0,0 UV-I 0 W/m -1,3 C -0,6 C 6,4 km/h (2 Bft)
31.01.2021 20:46 -0,6 C -0,6 C 95 % 997,5 hPa 0,0 l/m 5,2 km/h (1 Bft) NO 53 0 min 0,0 UV-I 0 W/m -1,3 C -0,6 C 9,7 km/h (2 Bft)
31.01.2021 20:48 -0,6 C -0,6 C 95 % 997,5 hPa 0,0 l/m 6,5 km/h (2 Bft) N-NO 19 0 min 0,0 UV-I 0 W/m -1,3 C -0,7 C 9,7 km/h (2 Bft)
31.01.2021 20:50 -0,6 C -0,6 C 95 % 997,4 hPa 0,0 l/m 4,7 km/h (1 Bft) N-NO 26 0 min 0,0 UV-I 0 W/m -1,3 C -0,6 C 6,4 km/h (2 Bft)
31.01.2021 20:52 -0,6 C -0,6 C 95 % 997,5 hPa 0,0 l/m 5,2 km/h (1 Bft) NO 43 0 min 0,0 UV-I 0 W/m -1,3 C -0,6 C 9,7 km/h (2 Bft)
31.01.2021 20:54 -0,6 C -0,6 C 95 % 997,5 hPa 0,0 l/m 6,8 km/h (2 Bft) O-NO 74 0 min 0,0 UV-I 0 W/m -1,3 C -1,0 C 11,3 km/h (2 Bft)
31.01.2021 20:56 -0,6 C -0,6 C 95 % 997,4 hPa 0,0 l/m 4,5 km/h (1 Bft) NO 47 0 min 0,0 UV-I 0 W/m -1,3 C -0,6 C 6,4 km/h (2 Bft)
31.01.2021 20:58 -0,6 C -0,6 C 95 % 997,4 hPa 0,0 l/m 2,5 km/h (1 Bft) NO 47 0 min 0,0 UV-I 0 W/m -1,3 C -0,6 C 4,8 km/h (1 Bft)
31.01.2021 21:00 -0,6 C -0,6 C 95 % 997,4 hPa 0,0 l/m 3,4 km/h (1 Bft) O-NO 57 0 min 0,0 UV-I 0 W/m -1,3 C -0,6 C 6,4 km/h (2 Bft)
31.01.2021 21:02 -0,6 C -0,6 C 95 % 997,4 hPa 0,0 l/m 2,8 km/h (1 Bft) O-NO 57 0 min 0,0 UV-I 0 W/m -1,3 C -0,6 C 4,8 km/h (1 Bft)
31.01.2021 21:04 -0,6 C -0,6 C 95 % 997,4 hPa 0,0 l/m 3,9 km/h (1 Bft) O-SO 117 0 min 0,0 UV-I 0 W/m -1,3 C -0,6 C 9,7 km/h (2 Bft)
31.01.2021 21:06 -0,6 C -0,6 C 95 % 997,3 hPa 0,0 l/m 7,5 km/h (2 Bft) O-SO 103 0 min 0,0 UV-I 0 W/m -1,3 C -1,8 C 12,9 km/h (3 Bft)
31.01.2021 21:08 -0,6 C -0,6 C 95 % 997,2 hPa 0,0 l/m 3,1 km/h (1 Bft) O 84 0 min 0,0 UV-I 0 W/m -1,3 C -0,6 C 4,8 km/h (1 Bft)
31.01.2021 21:10 -0,6 C -0,6 C 95 % 997,2 hPa 0,0 l/m 5,4 km/h (1 Bft) O-NO 74 0 min 0,0 UV-I 0 W/m -1,3 C -0,6 C 9,7 km/h (2 Bft)
31.01.2021 21:12 -0,6 C -0,6 C 95 % 997,2 hPa 0,0 l/m 6,2 km/h (2 Bft) O-NO 67 0 min 0,0 UV-I 0 W/m -1,3 C -0,6 C 9,7 km/h (2 Bft)
31.01.2021 21:14 -0,6 C -0,6 C 95 % 997,2 hPa 0,0 l/m 6,9 km/h (2 Bft) O 80 0 min 0,0 UV-I 0 W/m -1,3 C -1,1 C 11,3 km/h (2 Bft)
31.01.2021 21:16 -0,6 C -0,6 C 95 % 997,2 hPa 0,0 l/m 7,8 km/h (2 Bft) O 86 0 min 0,0 UV-I 0 W/m -1,3 C -2,1 C 12,9 km/h (3 Bft)
31.01.2021 21:18 -0,5 C -0,6 C 95 % 997,2 hPa 0,0 l/m 8,1 km/h (2 Bft) O-SO 119 0 min 0,0 UV-I 0 W/m -1,2 C -2,3 C 11,3 km/h (2 Bft)
31.01.2021 21:20 -0,5 C -0,6 C 95 % 997,2 hPa 0,0 l/m 6,0 km/h (2 Bft) O-NO 72 0 min 0,0 UV-I 0 W/m -1,2 C -0,5 C 11,3 km/h (2 Bft)
31.01.2021 21:22 -0,5 C -0,6 C 95 % 997,2 hPa 0,0 l/m 4,5 km/h (1 Bft) O 82 0 min 0,0 UV-I 0 W/m -1,2 C -0,5 C 11,3 km/h (2 Bft)
31.01.2021 21:24 -0,5 C -0,6 C 95 % 997,1 hPa 0,0 l/m 5,0 km/h (1 Bft) O 90 0 min 0,0 UV-I 0 W/m -1,2 C -0,5 C 8,0 km/h (2 Bft)
31.01.2021 21:26 -0,5 C -0,6 C 95 % 997,1 hPa 0,0 l/m 6,2 km/h (2 Bft) O 82 0 min 0,0 UV-I 0 W/m -1,2 C -0,5 C 11,3 km/h (2 Bft)
31.01.2021 21:28 -0,5 C 0,0 C 95 % 997,1 hPa 0,0 l/m 6,1 km/h (2 Bft) O-NO 57 0 min 0,0 UV-I 0 W/m -1,2 C -0,5 C 11,3 km/h (2 Bft)
31.01.2021 21:30 -0,4 C 0,0 C 95 % 997,0 hPa 0,0 l/m 7,9 km/h (2 Bft) O 80 0 min 0,0 UV-I 0 W/m -1,1 C -2,0 C 14,5 km/h (3 Bft)
31.01.2021 21:32 -0,5 C 0,0 C 95 % 997,0 hPa 0,0 l/m 7,3 km/h (2 Bft) O 92 0 min 0,0 UV-I 0 W/m -1,2 C -1,5 C 14,5 km/h (3 Bft)
31.01.2021 21:34 -0,4 C 0,0 C 95 % 997,0 hPa 0,0 l/m 6,6 km/h (2 Bft) O 84 0 min 0,0 UV-I 0 W/m -1,1 C -0,6 C 11,3 km/h (2 Bft)
31.01.2021 21:36 -0,4 C 0,0 C 95 % 997,0 hPa 0,0 l/m 8,4 km/h (2 Bft) O 84 0 min 0,0 UV-I 0 W/m -1,1 C -2,5 C 12,9 km/h (3 Bft)
31.01.2021 21:38 -0,4 C 0,0 C 95 % 997,0 hPa 0,0 l/m 7,3 km/h (2 Bft) O-SO 103 0 min 0,0 UV-I 0 W/m -1,1 C -1,3 C 11,3 km/h (2 Bft)
31.01.2021 21:40 -0,4 C 0,0 C 95 % 996,8 hPa 0,0 l/m 6,8 km/h (2 Bft) SO 140 0 min 0,0 UV-I 0 W/m -1,1 C -0,8 C 12,9 km/h (3 Bft)
31.01.2021 21:42 -0,4 C 0,0 C 95 % 996,9 hPa 0,0 l/m 9,2 km/h (2 Bft) O-NO 76 0 min 0,0 UV-I 0 W/m -1,1 C -3,2 C 14,5 km/h (3 Bft)
31.01.2021 21:44 -0,4 C -0,6 C 95 % 996,9 hPa 0,0 l/m 6,1 km/h (2 Bft) O 96 0 min 0,0 UV-I 0 W/m -1,1 C -0,4 C 11,3 km/h (2 Bft)
31.01.2021 21:46 -0,4 C -0,6 C 95 % 996,8 hPa 0,0 l/m 7,8 km/h (2 Bft) O 94 0 min 0,0 UV-I 0 W/m -1,1 C -1,9 C 12,9 km/h (3 Bft)
31.01.2021 21:48 -0,4 C -0,6 C 95 % 996,6 hPa 0,0 l/m 7,2 km/h (2 Bft) O-NO 71 0 min 0,0 UV-I 0 W/m -1,1 C -1,2 C 11,3 km/h (2 Bft)
31.01.2021 21:50 -0,4 C 0,0 C 95 % 996,7 hPa 0,0 l/m 6,8 km/h (2 Bft) O-SO 103 0 min 0,0 UV-I 0 W/m -1,1 C -0,8 C 11,3 km/h (2 Bft)
31.01.2021 21:52 -0,4 C 0,0 C 95 % 996,7 hPa 0,0 l/m 5,4 km/h (1 Bft) O-NO 73 0 min 0,0 UV-I 0 W/m -1,1 C -0,4 C 11,3 km/h (2 Bft)
31.01.2021 21:54 -0,4 C -0,6 C 95 % 996,6 hPa 0,0 l/m 4,2 km/h (1 Bft) O 85 0 min 0,0 UV-I 0 W/m -1,1 C -0,4 C 6,4 km/h (2 Bft)
31.01.2021 21:56 -0,4 C 0,0 C 95 % 996,6 hPa 0,0 l/m 8,7 km/h (2 Bft) O 89 0 min 0,0 UV-I 0 W/m -1,1 C -2,7 C 12,9 km/h (3 Bft)
31.01.2021 21:58 -0,4 C 0,0 C 95 % 996,6 hPa 0,0 l/m 5,5 km/h (1 Bft) O 94 0 min 0,0 UV-I 0 W/m -1,1 C -0,4 C 12,9 km/h (3 Bft)
31.01.2021 22:00 -0,4 C 0,0 C 95 % 996,6 hPa 0,0 l/m 4,5 km/h (1 Bft) NO 54 0 min 0,0 UV-I 0 W/m -1,1 C -0,4 C 6,4 km/h (2 Bft)
31.01.2021 22:02 -0,4 C 0,0 C 95 % 996,5 hPa 0,0 l/m 5,1 km/h (1 Bft) O-NO 61 0 min 0,0 UV-I 0 W/m -1,1 C -0,4 C 8,0 km/h (2 Bft)
31.01.2021 22:04 -0,3 C 0,0 C 95 % 996,6 hPa 0,0 l/m 5,8 km/h (2 Bft) O-NO 72 0 min 0,0 UV-I 0 W/m -1,0 C -0,3 C 8,0 km/h (2 Bft)
31.01.2021 22:06 -0,3 C 0,0 C 95 % 996,5 hPa 0,0 l/m 5,5 km/h (1 Bft) O-NO 76 0 min 0,0 UV-I 0 W/m -1,0 C -0,3 C 8,0 km/h (2 Bft)
31.01.2021 22:08 -0,4 C 0,0 C 95 % 996,4 hPa 0,0 l/m 5,3 km/h (1 Bft) O 96 0 min 0,0 UV-I 0 W/m -1,1 C -0,4 C 11,3 km/h (2 Bft)
31.01.2021 22:10 -0,3 C 0,0 C 95 % 996,4 hPa 0,0 l/m 5,0 km/h (1 Bft) NO 44 0 min 0,0 UV-I 0 W/m -1,0 C -0,3 C 6,4 km/h (2 Bft)
31.01.2021 22:12 -0,3 C 0,0 C 95 % 996,4 hPa 0,0 l/m 5,5 km/h (1 Bft) NO 43 0 min 0,0 UV-I 0 W/m -1,0 C -0,3 C 6,4 km/h (2 Bft)
31.01.2021 22:14 -0,3 C 0,0 C 95 % 996,4 hPa 0,0 l/m 3,9 km/h (1 Bft) O-NO 70 0 min 0,0 UV-I 0 W/m -1,0 C -0,3 C 6,4 km/h (2 Bft)
31.01.2021 22:16 -0,3 C 0,0 C 95 % 996,3 hPa 0,0 l/m 4,2 km/h (1 Bft) O-NO 76 0 min 0,0 UV-I 0 W/m -1,0 C -0,3 C 6,4 km/h (2 Bft)
31.01.2021 22:18 -0,3 C 0,0 C 95 % 996,3 hPa 0,0 l/m 5,7 km/h (1 Bft) O-NO 74 0 min 0,0 UV-I 0 W/m -1,0 C -0,3 C 8,0 km/h (2 Bft)
31.01.2021 22:20 -0,3 C 0,0 C 95 % 996,3 hPa 0,0 l/m 6,3 km/h (2 Bft) O 86 0 min 0,0 UV-I 0 W/m -1,0 C -0,3 C 11,3 km/h (2 Bft)
31.01.2021 22:22 -0,3 C 0,0 C 95 % 996,2 hPa 0,0 l/m 5,6 km/h (1 Bft) O-NO 75 0 min 0,0 UV-I 0 W/m -1,0 C -0,3 C 8,0 km/h (2 Bft)
31.01.2021 22:24 -0,3 C 0,0 C 95 % 996,1 hPa 0,0 l/m 6,1 km/h (2 Bft) O-NO 75 0 min 0,0 UV-I 0 W/m -1,0 C -0,3 C 8,0 km/h (2 Bft)
31.01.2021 22:26 -0,3 C 0,0 C 95 % 996,1 hPa 0,0 l/m 5,5 km/h (1 Bft) O-NO 76 0 min 0,0 UV-I 0 W/m -1,0 C -0,3 C 8,0 km/h (2 Bft)
31.01.2021 22:28 -0,3 C 0,0 C 95 % 996,1 hPa 0,0 l/m 7,2 km/h (2 Bft) O-NO 76 0 min 0,0 UV-I 0 W/m -1,0 C -1,1 C 12,9 km/h (3 Bft)
31.01.2021 22:30 -0,3 C 0,0 C 95 % 996,1 hPa 0,0 l/m 7,5 km/h (2 Bft) O-NO 59 0 min 0,0 UV-I 0 W/m -1,0 C -1,5 C 12,9 km/h (3 Bft)
31.01.2021 22:32 -0,4 C 0,0 C 95 % 996,0 hPa 0,0 l/m 7,0 km/h (2 Bft) O-NO 61 0 min 0,0 UV-I 0 W/m -1,1 C -1,0 C 12,9 km/h (3 Bft)
31.01.2021 22:34 -0,3 C 0,0 C 95 % 996,0 hPa 0,0 l/m 6,1 km/h (2 Bft) O-NO 59 0 min 0,0 UV-I 0 W/m -1,0 C -0,3 C 8,0 km/h (2 Bft)
31.01.2021 22:36 -0,3 C 0,0 C 95 % 996,0 hPa 0,0 l/m 6,1 km/h (2 Bft) O-NO 66 0 min 0,0 UV-I 0 W/m -1,0 C -0,3 C 9,7 km/h (2 Bft)
31.01.2021 22:38 -0,3 C 0,0 C 95 % 995,9 hPa 0,0 l/m 5,8 km/h (2 Bft) NO 51 0 min 0,0 UV-I 0 W/m -1,0 C -0,3 C 9,7 km/h (2 Bft)
31.01.2021 22:40 -0,4 C 0,0 C 95 % 996,0 hPa 0,0 l/m 5,3 km/h (1 Bft) O-NO 66 0 min 0,0 UV-I 0 W/m -1,1 C -0,4 C 6,4 km/h (2 Bft)
31.01.2021 22:42 -0,3 C 0,0 C 96 % 995,9 hPa 0,0 l/m 4,9 km/h (1 Bft) O-NO 59 0 min 0,0 UV-I 0 W/m -0,9 C -0,3 C 8,0 km/h (2 Bft)
31.01.2021 22:44 -0,4 C 0,0 C 95 % 995,9 hPa 0,0 l/m 5,5 km/h (1 Bft) O-NO 70 0 min 0,0 UV-I 0 W/m -1,1 C -0,4 C 11,3 km/h (2 Bft)
31.01.2021 22:46 -0,3 C -0,6 C 95 % 996,0 hPa 0,0 l/m 5,4 km/h (1 Bft) O-NO 76 0 min 0,0 UV-I 0 W/m -1,0 C -0,3 C 9,7 km/h (2 Bft)
31.01.2021 22:48 -0,3 C -0,6 C 95 % 995,9 hPa 0,0 l/m 4,3 km/h (1 Bft) O 82 0 min 0,0 UV-I 0 W/m -1,0 C -0,3 C 6,4 km/h (2 Bft)
31.01.2021 22:50 -0,3 C 0,0 C 95 % 995,8 hPa 0,0 l/m 4,6 km/h (1 Bft) NO 46 0 min 0,0 UV-I 0 W/m -1,0 C -0,3 C 6,4 km/h (2 Bft)
31.01.2021 22:52 -0,4 C 0,0 C 95 % 995,9 hPa 0,0 l/m 7,9 km/h (2 Bft) O-NO 76 0 min 0,0 UV-I 0 W/m -1,1 C -2,0 C 12,9 km/h (3 Bft)
31.01.2021 22:54 -0,3 C 0,0 C 95 % 995,8 hPa 0,0 l/m 6,7 km/h (2 Bft) O 83 0 min 0,0 UV-I 0 W/m -1,0 C -0,6 C 9,7 km/h (2 Bft)
31.01.2021 22:56 -0,4 C 0,0 C 95 % 995,9 hPa 0,0 l/m 3,5 km/h (1 Bft) O-SO 103 0 min 0,0 UV-I 0 W/m -1,1 C -0,4 C 4,8 km/h (1 Bft)
31.01.2021 22:58 -0,3 C 0,0 C 95 % 995,8 hPa 0,0 l/m 5,9 km/h (2 Bft) O 94 0 min 0,0 UV-I 0 W/m -1,0 C -0,3 C 11,3 km/h (2 Bft)
31.01.2021 23:00 -0,3 C 0,0 C 96 % 995,8 hPa 0,0 l/m 4,8 km/h (1 Bft) O 85 0 min 0,0 UV-I 0 W/m -0,9 C -0,3 C 9,7 km/h (2 Bft)
31.01.2021 23:02 -0,3 C 0,0 C 96 % 995,8 hPa 0,0 l/m 6,0 km/h (2 Bft) O-SO 103 0 min 0,0 UV-I 0 W/m -0,9 C -0,3 C 9,7 km/h (2 Bft)
31.01.2021 23:04 -0,3 C 0,0 C 95 % 995,8 hPa 0,0 l/m 5,8 km/h (2 Bft) O 96 0 min 0,0 UV-I 0 W/m -1,0 C -0,3 C 9,7 km/h (2 Bft)
31.01.2021 23:06 -0,3 C 0,0 C 96 % 995,8 hPa 0,0 l/m 4,1 km/h (1 Bft) O 92 0 min 0,0 UV-I 0 W/m -0,9 C -0,3 C 6,4 km/h (2 Bft)
31.01.2021 23:08 -0,3 C 0,0 C 96 % 995,7 hPa 0,0 l/m 3,0 km/h (1 Bft) O 97 0 min 0,0 UV-I 0 W/m -0,9 C -0,3 C 6,4 km/h (2 Bft)
31.01.2021 23:10 -0,3 C 0,0 C 96 % 995,7 hPa 0,0 l/m 3,0 km/h (1 Bft) O 81 0 min 0,0 UV-I 0 W/m -0,9 C -0,3 C 4,8 km/h (1 Bft)
31.01.2021 23:12 -0,3 C 0,0 C 96 % 995,7 hPa 0,0 l/m 3,4 km/h (1 Bft) O 82 0 min 0,0 UV-I 0 W/m -0,9 C -0,3 C 4,8 km/h (1 Bft)
31.01.2021 23:14 -0,3 C 0,0 C 96 % 995,7 hPa 0,0 l/m 2,6 km/h (1 Bft) O 82 0 min 0,0 UV-I 0 W/m -0,9 C -0,3 C 3,2 km/h (1 Bft)
31.01.2021 23:16 -0,3 C 0,0 C 96 % 995,6 hPa 0,0 l/m 3,4 km/h (1 Bft) O-NO 76 0 min 0,0 UV-I 0 W/m -0,9 C -0,3 C 6,4 km/h (2 Bft)
31.01.2021 23:18 -0,3 C 0,0 C 96 % 995,7 hPa 0,0 l/m 2,5 km/h (1 Bft) O-NO 71 0 min 0,0 UV-I 0 W/m -0,9 C -0,3 C 4,8 km/h (1 Bft)
31.01.2021 23:20 -0,3 C 0,0 C 96 % 995,6 hPa 0,0 l/m 4,0 km/h (1 Bft) O-NO 62 0 min 0,0 UV-I 0 W/m -0,9 C -0,3 C 6,4 km/h (2 Bft)
31.01.2021 23:22 -0,3 C 0,0 C 96 % 995,5 hPa 0,0 l/m 3,9 km/h (1 Bft) O-NO 68 0 min 0,0 UV-I 0 W/m -0,9 C -0,3 C 6,4 km/h (2 Bft)
31.01.2021 23:24 -0,3 C 0,0 C 96 % 995,5 hPa 0,0 l/m 3,2 km/h (1 Bft) O-NO 62 0 min 0,0 UV-I 0 W/m -0,9 C -0,3 C 4,8 km/h (1 Bft)
31.01.2021 23:26 -0,3 C 0,0 C 96 % 995,5 hPa 0,0 l/m 4,5 km/h (1 Bft) O-NO 68 0 min 0,0 UV-I 0 W/m -0,9 C -0,3 C 6,4 km/h (2 Bft)
31.01.2021 23:28 -0,3 C 0,0 C 96 % 995,5 hPa 0,0 l/m 5,6 km/h (1 Bft) O-NO 63 0 min 0,0 UV-I 0 W/m -0,9 C -0,3 C 8,0 km/h (2 Bft)
31.01.2021 23:30 -0,3 C 0,0 C 96 % 995,4 hPa 0,0 l/m 5,7 km/h (1 Bft) O-NO 58 0 min 0,0 UV-I 0 W/m -0,9 C -0,3 C 8,0 km/h (2 Bft)
31.01.2021 23:32 -0,2 C 0,0 C 96 % 995,4 hPa 0,0 l/m 4,5 km/h (1 Bft) O-NO 69 0 min 0,0 UV-I 0 W/m -0,8 C -0,2 C 8,0 km/h (2 Bft)
31.01.2021 23:34 -0,3 C 0,0 C 96 % 995,3 hPa 0,0 l/m 4,4 km/h (1 Bft) O-NO 57 0 min 0,0 UV-I 0 W/m -0,9 C -0,3 C 6,4 km/h (2 Bft)
31.01.2021 23:36 -0,2 C 0,0 C 96 % 995,4 hPa 0,0 l/m 5,3 km/h (1 Bft) O-NO 74 0 min 0,0 UV-I 0 W/m -0,8 C -0,2 C 9,7 km/h (2 Bft)
31.01.2021 23:38 -0,3 C 0,0 C 96 % 995,3 hPa 0,0 l/m 5,5 km/h (1 Bft) O 84 0 min 0,0 UV-I 0 W/m -0,9 C -0,3 C 8,0 km/h (2 Bft)
31.01.2021 23:40 -0,2 C 0,0 C 96 % 995,3 hPa 0,0 l/m 6,2 km/h (2 Bft) O-NO 74 0 min 0,0 UV-I 0 W/m -0,8 C -0,2 C 11,3 km/h (2 Bft)
31.01.2021 23:42 -0,2 C 0,0 C 96 % 995,3 hPa 0,0 l/m 6,3 km/h (2 Bft) NO 53 0 min 0,0 UV-I 0 W/m -0,8 C -0,2 C 9,7 km/h (2 Bft)
31.01.2021 23:44 -0,2 C 0,0 C 96 % 995,2 hPa 0,0 l/m 5,2 km/h (1 Bft) O 80 0 min 0,0 UV-I 0 W/m -0,8 C -0,2 C 8,0 km/h (2 Bft)
31.01.2021 23:46 -0,2 C 0,0 C 96 % 995,2 hPa 0,0 l/m 5,0 km/h (1 Bft) O-NO 63 0 min 0,0 UV-I 0 W/m -0,8 C -0,2 C 8,0 km/h (2 Bft)
31.01.2021 23:48 -0,2 C 0,0 C 96 % 995,3 hPa 0,0 l/m 6,0 km/h (2 Bft) O 80 0 min 0,0 UV-I 0 W/m -0,8 C -0,2 C 9,7 km/h (2 Bft)
31.01.2021 23:50 -0,2 C 0,0 C 96 % 995,2 hPa 0,0 l/m 6,9 km/h (2 Bft) O-NO 66 0 min 0,0 UV-I 0 W/m -0,8 C -0,7 C 8,0 km/h (2 Bft)
31.01.2021 23:52 -0,2 C 0,0 C 96 % 995,2 hPa 0,0 l/m 7,1 km/h (2 Bft) NO 45 0 min 0,0 UV-I 0 W/m -0,8 C -0,9 C 9,7 km/h (2 Bft)
31.01.2021 23:54 -0,3 C 0,0 C 96 % 995,2 hPa 0,0 l/m 6,6 km/h (2 Bft) NO 54 0 min 0,0 UV-I 0 W/m -0,9 C -0,5 C 9,7 km/h (2 Bft)
31.01.2021 23:56 -0,2 C 0,0 C 96 % 995,2 hPa 0,0 l/m 4,4 km/h (1 Bft) NO 42 0 min 0,0 UV-I 0 W/m -0,8 C -0,2 C 6,4 km/h (2 Bft)
31.01.2021 23:58 -0,3 C 0,0 C 96 % 995,2 hPa 0,0 l/m 4,8 km/h (1 Bft) O-NO 65 0 min 0,0 UV-I 0 W/m -0,9 C -0,3 C 8,0 km/h (2 Bft)
31.01.2021 23:59 -0,2 C 0,0 C 96 % 995,2 hPa 0,0 l/m 4,8 km/h (1 Bft) O-NO 67 0 min 0,0 UV-I 0 W/m -0,8 C -0,2 C 6,4 km/h (2 Bft)
_ Min-Zeit 07:48 06:29 11:52 23:44 - 16:44 - - - - - 08:01 06:04 16:42
Minimum _ -2,4 C -1,7 C 94 % 995,2 hPa - 1,5 km/h (1 Bft) - - - - - -3,1 C -12,2 C 3,2 km/h (1 Bft)
_ Max-Zeit 23:32 12:30 00:01 11:13 20:34 02:22 - - 00:00 12:08 12:10 23:32 23:32 05:49
Maximum _ -0,2 C 1,1 C 96 % 1004,6 hPa 0,2 l/m 19,3 km/h
NO (3 Bft)
- - 0 min 0,6 UV-I 173 W/m -0,8 C -0,2 C 27,4 km/h
NO (4 Bft)
Durchschnitt _ -1,4 C -0,6 C 95 % 1001,5 hPa #0,2 l/m 8,6 km/h (2 Bft) NO - #0 min. 0,5 UV-I 77 W/m -2,1 C -4,0 C 13,1 km/h (3 Bft)